<?xml version='1.0' encoding='UTF-8'?><gpx version="1.1" creator="JPX - https://github.com/jenetics/jpx" xmlns="http://www.topografix.com/GPX/1/1"><trk><trkseg><trkpt lat="42.430524004044834" lon="-8.068057787686664"><ele>394.8</ele><time>2026-03-30T12:45:52.999Z</time></trkpt><trkpt lat="42.430474591660754" lon="-8.067947906301994"><ele>393.6</ele><time>2026-03-30T12:45:53.999Z</time></trkpt><trkpt lat="42.430422924142995" lon="-8.067833010232542"><ele>392.4</ele><time>2026-03-30T12:45:54.999Z</time></trkpt><trkpt lat="42.43036803494795" lon="-8.067710949885326"><ele>391.2</ele><time>2026-03-30T12:45:55.999Z</time></trkpt><trkpt lat="42.43031297566474" lon="-8.06758851410344"><ele>390.0</ele><time>2026-03-30T12:45:56.999Z</time></trkpt><trkpt lat="42.430256591801175" lon="-8.067463006279077"><ele>391.0</ele><time>2026-03-30T12:45:57.999Z</time></trkpt><trkpt lat="42.430197325954516" lon="-8.06733236594096"><ele>392.0</ele><time>2026-03-30T12:45:58.999Z</time></trkpt><trkpt lat="42.43013543349251" lon="-8.067195953661521"><ele>393.0</ele><time>2026-03-30T12:45:59.999Z</time></trkpt><trkpt lat="42.430073198681484" lon="-8.067058786595917"><ele>394.0</ele><time>2026-03-30T12:46:00.999Z</time></trkpt><trkpt lat="42.43001051367514" lon="-8.066920256043732"><ele>394.0</ele><time>2026-03-30T12:46:01.999Z</time></trkpt><trkpt lat="42.42994640680494" lon="-8.066778387600463"><ele>394.0</ele><time>2026-03-30T12:46:02.999Z</time></trkpt><trkpt lat="42.42988216020809" lon="-8.066636209747552"><ele>394.0</ele><time>2026-03-30T12:46:03.999Z</time></trkpt><trkpt lat="42.42981914188686" lon="-8.066495046819359"><ele>394.0</ele><time>2026-03-30T12:46:04.999Z</time></trkpt><trkpt lat="42.429761667216475" lon="-8.06636486135804"><ele>394.4</ele><time>2026-03-30T12:46:05.999Z</time></trkpt><trkpt lat="42.429709297192844" lon="-8.066246434410886"><ele>394.79999999999995</ele><time>2026-03-30T12:46:06.999Z</time></trkpt><trkpt lat="42.42965565820704" lon="-8.066125224900544"><ele>395.20000000000005</ele><time>2026-03-30T12:46:07.999Z</time></trkpt><trkpt lat="42.42959693322472" lon="-8.06599252284364"><ele>395.6</ele><time>2026-03-30T12:46:08.998Z</time></trkpt><trkpt lat="42.42953695066316" lon="-8.06585697890358"><ele>396.0</ele><time>2026-03-30T12:46:09.998Z</time></trkpt><trkpt lat="42.429476465128026" lon="-8.065720298280109"><ele>395.0</ele><time>2026-03-30T12:46:10.998Z</time></trkpt><trkpt lat="42.429412742407266" lon="-8.065576302601054"><ele>394.0</ele><time>2026-03-30T12:46:11.998Z</time></trkpt><trkpt lat="42.42934798115806" lon="-8.065429959988714"><ele>393.0</ele><time>2026-03-30T12:46:12.998Z</time></trkpt><trkpt lat="42.42928327616991" lon="-8.065283744695984"><ele>392.0</ele><time>2026-03-30T12:46:13.998Z</time></trkpt><trkpt lat="42.42921812056773" lon="-8.065136511042947"><ele>392.0</ele><time>2026-03-30T12:46:14.998Z</time></trkpt><trkpt lat="42.42915546755159" lon="-8.064994515993888"><ele>392.0</ele><time>2026-03-30T12:46:15.998Z</time></trkpt><trkpt lat="42.42910136804516" lon="-8.064871795231412"><ele>392.0</ele><time>2026-03-30T12:46:16.998Z</time></trkpt><trkpt lat="42.42905665560749" lon="-8.064770368251894"><ele>392.0</ele><time>2026-03-30T12:46:18Z</time></trkpt><trkpt lat="42.429019426259266" lon="-8.064685915958721"><ele>392.0</ele><time>2026-03-30T12:46:19Z</time></trkpt><trkpt lat="42.4289965801405" lon="-8.064594862709177"><ele>392.5</ele><time>2026-03-30T12:46:20Z</time></trkpt><trkpt lat="42.428930414632774" lon="-8.06448400673708"><ele>393.0</ele><time>2026-03-30T12:46:22Z</time></trkpt><trkpt lat="42.42900011383521" lon="-8.0642861593296"><ele>393.5</ele><time>2026-03-30T12:46:24Z</time></trkpt><trkpt lat="42.42896844193635" lon="-8.064131176213111"><ele>394.0</ele><time>2026-03-30T12:46:26Z</time></trkpt><trkpt lat="42.42895076912644" lon="-8.064037309950509"><ele>394.00000000000006</ele><time>2026-03-30T12:46:27Z</time></trkpt><trkpt lat="42.42893120851073" lon="-8.06393539267418"><ele>394.0</ele><time>2026-03-30T12:46:28Z</time></trkpt><trkpt lat="42.42891072482593" lon="-8.063833517571208"><ele>394.0</ele><time>2026-03-30T12:46:29Z</time></trkpt><trkpt lat="42.42888942094059" lon="-8.06373512226615"><ele>394.0</ele><time>2026-03-30T12:46:30Z</time></trkpt><trkpt lat="42.42886610973543" lon="-8.063627455160317"><ele>394.00000000000006</ele><time>2026-03-30T12:46:31Z</time></trkpt><trkpt lat="42.42884058483002" lon="-8.063508346022497"><ele>394.0</ele><time>2026-03-30T12:46:32Z</time></trkpt><trkpt lat="42.42883177581586" lon="-8.063392086724273"><ele>393.33333333333337</ele><time>2026-03-30T12:46:33Z</time></trkpt><trkpt lat="42.428792855292244" lon="-8.06327632256317"><ele>392.6666666666667</ele><time>2026-03-30T12:46:34Z</time></trkpt><trkpt lat="42.428789689712666" lon="-8.063183450857059"><ele>392.0</ele><time>2026-03-30T12:46:35Z</time></trkpt><trkpt lat="42.42876651143329" lon="-8.063091516361736"><ele>391.33333333333337</ele><time>2026-03-30T12:46:36Z</time></trkpt><trkpt lat="42.42874633857811" lon="-8.062967844989279"><ele>390.6666666666667</ele><time>2026-03-30T12:46:38Z</time></trkpt><trkpt lat="42.42873576245638" lon="-8.062881416070327"><ele>390.0</ele><time>2026-03-30T12:46:40Z</time></trkpt><trkpt lat="42.42876341192667" lon="-8.062758921101203"><ele>390.8</ele><time>2026-03-30T12:46:43Z</time></trkpt><trkpt lat="42.42887109026136" lon="-8.062672363490195"><ele>391.6</ele><time>2026-03-30T12:46:45Z</time></trkpt><trkpt lat="42.42892824460648" lon="-8.062602166429526"><ele>392.4</ele><time>2026-03-30T12:46:46Z</time></trkpt><trkpt lat="42.42901692486702" lon="-8.062553477679513"><ele>393.2</ele><time>2026-03-30T12:46:47Z</time></trkpt><trkpt lat="42.429084254943504" lon="-8.062435705466418"><ele>394.0</ele><time>2026-03-30T12:46:48Z</time></trkpt><trkpt lat="42.42913360467925" lon="-8.062306728430396"><ele>394.0</ele><time>2026-03-30T12:46:49Z</time></trkpt><trkpt lat="42.42921260976985" lon="-8.062175819692866"><ele>394.0</ele><time>2026-03-30T12:46:50Z</time></trkpt><trkpt lat="42.42927943800877" lon="-8.062018970747507"><ele>394.0</ele><time>2026-03-30T12:46:51Z</time></trkpt><trkpt lat="42.42934736595901" lon="-8.061855997430378"><ele>394.0</ele><time>2026-03-30T12:46:52Z</time></trkpt><trkpt lat="42.429418884907854" lon="-8.061688798008008"><ele>393.6666666666667</ele><time>2026-03-30T12:46:53Z</time></trkpt><trkpt lat="42.4294982092078" lon="-8.061520956418978"><ele>393.33333333333337</ele><time>2026-03-30T12:46:54Z</time></trkpt><trkpt lat="42.42957628064915" lon="-8.061343051085956"><ele>393.0</ele><time>2026-03-30T12:46:55Z</time></trkpt><trkpt lat="42.42964950277563" lon="-8.06116392631404"><ele>393.66666666666663</ele><time>2026-03-30T12:46:55.999Z</time></trkpt><trkpt lat="42.4297272435696" lon="-8.060985238356194"><ele>394.3333333333333</ele><time>2026-03-30T12:46:56.999Z</time></trkpt><trkpt lat="42.429798299485306" lon="-8.060795188995714"><ele>395.0</ele><time>2026-03-30T12:46:57.999Z</time></trkpt><trkpt lat="42.429880728421715" lon="-8.060611447032409"><ele>395.3333333333333</ele><time>2026-03-30T12:46:58.999Z</time></trkpt><trkpt lat="42.42996112080749" lon="-8.060425349997878"><ele>395.66666666666663</ele><time>2026-03-30T12:46:59.999Z</time></trkpt><trkpt lat="42.43004808344888" lon="-8.060236379434237"><ele>396.0</ele><time>2026-03-30T12:47:00.999Z</time></trkpt><trkpt lat="42.43012482893015" lon="-8.060044333505894"><ele>395.66666666666663</ele><time>2026-03-30T12:47:01.999Z</time></trkpt><trkpt lat="42.430212003490965" lon="-8.059850659037151"><ele>395.3333333333333</ele><time>2026-03-30T12:47:02.999Z</time></trkpt><trkpt lat="42.43029448999204" lon="-8.059651102987411"><ele>395.0</ele><time>2026-03-30T12:47:03.999Z</time></trkpt><trkpt lat="42.43037853255053" lon="-8.05944907166122"><ele>395.0</ele><time>2026-03-30T12:47:04.999Z</time></trkpt><trkpt lat="42.430464480822934" lon="-8.059242577594418"><ele>395.0</ele><time>2026-03-30T12:47:05.999Z</time></trkpt><trkpt lat="42.430551575068115" lon="-8.059036381055478"><ele>395.0</ele><time>2026-03-30T12:47:06.999Z</time></trkpt><trkpt lat="42.43063442648387" lon="-8.058825999911711"><ele>395.0</ele><time>2026-03-30T12:47:07.999Z</time></trkpt><trkpt lat="42.43072113377001" lon="-8.05860670249283"><ele>395.0</ele><time>2026-03-30T12:47:08.999Z</time></trkpt><trkpt lat="42.43081494614057" lon="-8.058395311621316"><ele>395.0</ele><time>2026-03-30T12:47:09.999Z</time></trkpt><trkpt lat="42.43090904126917" lon="-8.058177014935655"><ele>394.3333333333333</ele><time>2026-03-30T12:47:10.999Z</time></trkpt><trkpt lat="42.431000608085085" lon="-8.057959958763997"><ele>393.66666666666663</ele><time>2026-03-30T12:47:11.999Z</time></trkpt><trkpt lat="42.43109243373006" lon="-8.057718118496664"><ele>393.0</ele><time>2026-03-30T12:47:12.999Z</time></trkpt><trkpt lat="42.43118613278396" lon="-8.057499463597441"><ele>393.33333333333337</ele><time>2026-03-30T12:47:13.999Z</time></trkpt><trkpt lat="42.43128462801928" lon="-8.057269615775331"><ele>393.6666666666667</ele><time>2026-03-30T12:47:14.999Z</time></trkpt><trkpt lat="42.43139228253048" lon="-8.057054729308218"><ele>394.0</ele><time>2026-03-30T12:47:15.999Z</time></trkpt><trkpt lat="42.43148446678868" lon="-8.056829583301813"><ele>395.0</ele><time>2026-03-30T12:47:16.999Z</time></trkpt><trkpt lat="42.431576699050694" lon="-8.056607943759044"><ele>396.0</ele><time>2026-03-30T12:47:17.999Z</time></trkpt><trkpt lat="42.43166695745995" lon="-8.056398440703488"><ele>397.0</ele><time>2026-03-30T12:47:18.999Z</time></trkpt><trkpt lat="42.43174894942663" lon="-8.056207431595887"><ele>397.0</ele><time>2026-03-30T12:47:19.999Z</time></trkpt><trkpt lat="42.43180852210814" lon="-8.056020295512969"><ele>397.0</ele><time>2026-03-30T12:47:20.999Z</time></trkpt><trkpt lat="42.43187738463336" lon="-8.0558547163588"><ele>397.0</ele><time>2026-03-30T12:47:21.999Z</time></trkpt><trkpt lat="42.431943032188926" lon="-8.055696867180457"><ele>397.0</ele><time>2026-03-30T12:47:22.999Z</time></trkpt><trkpt lat="42.432006661780434" lon="-8.055543870442328"><ele>397.33333333333337</ele><time>2026-03-30T12:47:23.999Z</time></trkpt><trkpt lat="42.43206285299057" lon="-8.05540875850603"><ele>397.6666666666667</ele><time>2026-03-30T12:47:24.999Z</time></trkpt><trkpt lat="42.43212610607724" lon="-8.055293344555226"><ele>398.0</ele><time>2026-03-30T12:47:25.999Z</time></trkpt><trkpt lat="42.43216192704603" lon="-8.05518144577846"><ele>398.33333333333337</ele><time>2026-03-30T12:47:26.999Z</time></trkpt><trkpt lat="42.43218698786993" lon="-8.055097939146334"><ele>398.6666666666667</ele><time>2026-03-30T12:47:27.999Z</time></trkpt><trkpt lat="42.43221591762593" lon="-8.055010220920453"><ele>399.0</ele><time>2026-03-30T12:47:29.999Z</time></trkpt><trkpt lat="42.43233372284318" lon="-8.055019071623029"><ele>399.0</ele><time>2026-03-30T12:47:32.999Z</time></trkpt><trkpt lat="42.432413188092376" lon="-8.055068004421262"><ele>399.0</ele><time>2026-03-30T12:47:33.999Z</time></trkpt><trkpt lat="42.4325051040517" lon="-8.055132772847108"><ele>399.0</ele><time>2026-03-30T12:47:34.999Z</time></trkpt><trkpt lat="42.43260609984591" lon="-8.055206736858864"><ele>399.0</ele><time>2026-03-30T12:47:35.999Z</time></trkpt><trkpt lat="42.43270719767904" lon="-8.055274828467526"><ele>399.0</ele><time>2026-03-30T12:47:36.999Z</time></trkpt><trkpt lat="42.432820469655326" lon="-8.055332645851417"><ele>399.0</ele><time>2026-03-30T12:47:37.999Z</time></trkpt><trkpt lat="42.43294962649759" lon="-8.055406230664117"><ele>399.0</ele><time>2026-03-30T12:47:38.999Z</time></trkpt><trkpt lat="42.43306883283232" lon="-8.055494378848715"><ele>399.0</ele><time>2026-03-30T12:47:39.999Z</time></trkpt><trkpt lat="42.43318748754602" lon="-8.055581446065649"><ele>399.0</ele><time>2026-03-30T12:47:40.999Z</time></trkpt><trkpt lat="42.43330838298857" lon="-8.055664240264669"><ele>400.25</ele><time>2026-03-30T12:47:41.999Z</time></trkpt><trkpt lat="42.433437197197385" lon="-8.055742533029074"><ele>401.5</ele><time>2026-03-30T12:47:42.999Z</time></trkpt><trkpt lat="42.433560203232034" lon="-8.055824803330971"><ele>402.75</ele><time>2026-03-30T12:47:43.999Z</time></trkpt><trkpt lat="42.43368694357444" lon="-8.05590460382628"><ele>404.0</ele><time>2026-03-30T12:47:44.999Z</time></trkpt><trkpt lat="42.433807004708385" lon="-8.055997944826624"><ele>406.75</ele><time>2026-03-30T12:47:45.999Z</time></trkpt><trkpt lat="42.43392841363281" lon="-8.056091496974611"><ele>409.5</ele><time>2026-03-30T12:47:46.999Z</time></trkpt><trkpt lat="42.434057303399854" lon="-8.056179338900906"><ele>412.25</ele><time>2026-03-30T12:47:47.999Z</time></trkpt><trkpt lat="42.43418206212963" lon="-8.056269810763071"><ele>415.0</ele><time>2026-03-30T12:47:48.999Z</time></trkpt><trkpt lat="42.43430668124107" lon="-8.056361749720411"><ele>415.0</ele><time>2026-03-30T12:47:49.999Z</time></trkpt><trkpt lat="42.434431804937354" lon="-8.056460591855469"><ele>415.0</ele><time>2026-03-30T12:47:50.999Z</time></trkpt><trkpt lat="42.43455975861951" lon="-8.056575739818294"><ele>415.0</ele><time>2026-03-30T12:47:51.999Z</time></trkpt><trkpt lat="42.4346734507343" lon="-8.056665678195913"><ele>415.0</ele><time>2026-03-30T12:47:52.999Z</time></trkpt><trkpt lat="42.4347922938072" lon="-8.056761816157278"><ele>418.25</ele><time>2026-03-30T12:47:53.999Z</time></trkpt><trkpt lat="42.43491438894969" lon="-8.056860297516831"><ele>421.5</ele><time>2026-03-30T12:47:54.999Z</time></trkpt><trkpt lat="42.435040367726685" lon="-8.05696117577846"><ele>424.75</ele><time>2026-03-30T12:47:55.999Z</time></trkpt><trkpt lat="42.43515899853943" lon="-8.05706048300471"><ele>428.0</ele><time>2026-03-30T12:47:56.999Z</time></trkpt><trkpt lat="42.43528106822574" lon="-8.05716426880147"><ele>428.0</ele><time>2026-03-30T12:47:57.999Z</time></trkpt><trkpt lat="42.43541032575359" lon="-8.057273066001349"><ele>428.0</ele><time>2026-03-30T12:47:58.999Z</time></trkpt><trkpt lat="42.43554249131" lon="-8.057347787040547"><ele>428.0</ele><time>2026-03-30T12:47:59.999Z</time></trkpt><trkpt lat="42.43566130807517" lon="-8.057453830800382"><ele>428.0</ele><time>2026-03-30T12:48:00.999Z</time></trkpt><trkpt lat="42.43578575652577" lon="-8.057563905919013"><ele>429.4</ele><time>2026-03-30T12:48:01.999Z</time></trkpt><trkpt lat="42.43588581340797" lon="-8.057658194773051"><ele>430.79999999999995</ele><time>2026-03-30T12:48:02.999Z</time></trkpt><trkpt lat="42.43598168696351" lon="-8.057737820855268"><ele>432.2</ele><time>2026-03-30T12:48:03.999Z</time></trkpt><trkpt lat="42.4360630039377" lon="-8.057813450746485"><ele>433.6</ele><time>2026-03-30T12:48:04.999Z</time></trkpt><trkpt lat="42.436140798044946" lon="-8.057881342140453"><ele>435.0</ele><time>2026-03-30T12:48:05.999Z</time></trkpt><trkpt lat="42.43621932247086" lon="-8.057928625955045"><ele>435.0</ele><time>2026-03-30T12:48:06.999Z</time></trkpt><trkpt lat="42.43629703966055" lon="-8.05794425867441"><ele>435.0</ele><time>2026-03-30T12:48:07.999Z</time></trkpt><trkpt lat="42.43636971067864" lon="-8.05794621598145"><ele>435.0</ele><time>2026-03-30T12:48:08.999Z</time></trkpt><trkpt lat="42.43644210994633" lon="-8.057827453029018"><ele>435.0</ele><time>2026-03-30T12:48:09.999Z</time></trkpt><trkpt lat="42.43650607597283" lon="-8.057706492646293"><ele>435.0</ele><time>2026-03-30T12:48:10.999Z</time></trkpt><trkpt lat="42.43657437537378" lon="-8.057576980806546"><ele>436.25</ele><time>2026-03-30T12:48:11.999Z</time></trkpt><trkpt lat="42.43665093861981" lon="-8.057445047844393"><ele>437.5</ele><time>2026-03-30T12:48:12.999Z</time></trkpt><trkpt lat="42.43672771742033" lon="-8.057296910005537"><ele>438.75</ele><time>2026-03-30T12:48:13.999Z</time></trkpt><trkpt lat="42.43680718143367" lon="-8.057140030839781"><ele>440.0</ele><time>2026-03-30T12:48:14.999Z</time></trkpt><trkpt lat="42.436892631941795" lon="-8.0569775134506"><ele>440.0</ele><time>2026-03-30T12:48:15.999Z</time></trkpt><trkpt lat="42.43697652693646" lon="-8.056820423344318"><ele>440.0</ele><time>2026-03-30T12:48:16.999Z</time></trkpt><trkpt lat="42.43706454873108" lon="-8.056655516450835"><ele>440.0</ele><time>2026-03-30T12:48:17.999Z</time></trkpt><trkpt lat="42.437146115863776" lon="-8.056513215905536"><ele>440.0</ele><time>2026-03-30T12:48:18.999Z</time></trkpt><trkpt lat="42.43722018281129" lon="-8.056389532618345"><ele>440.4</ele><time>2026-03-30T12:48:19.999Z</time></trkpt><trkpt lat="42.43730014111135" lon="-8.056294276015619"><ele>440.8</ele><time>2026-03-30T12:48:20.998Z</time></trkpt><trkpt lat="42.437385714090595" lon="-8.056238916393859"><ele>441.20000000000005</ele><time>2026-03-30T12:48:21.998Z</time></trkpt><trkpt lat="42.43748636334779" lon="-8.056219843724818"><ele>441.6</ele><time>2026-03-30T12:48:22.998Z</time></trkpt><trkpt lat="42.43758020486955" lon="-8.056240897768202"><ele>442.0</ele><time>2026-03-30T12:48:23.999Z</time></trkpt><trkpt lat="42.437688649497325" lon="-8.056280308149823"><ele>442.0</ele><time>2026-03-30T12:48:24.999Z</time></trkpt><trkpt lat="42.437812944457" lon="-8.056330023351931"><ele>442.0</ele><time>2026-03-30T12:48:25.999Z</time></trkpt><trkpt lat="42.4379337225885" lon="-8.056364831140403"><ele>442.0</ele><time>2026-03-30T12:48:26.999Z</time></trkpt><trkpt lat="42.43806136332835" lon="-8.056400537829077"><ele>442.0</ele><time>2026-03-30T12:48:27.999Z</time></trkpt><trkpt lat="42.43819728264454" lon="-8.056436909043297"><ele>443.33333333333337</ele><time>2026-03-30T12:48:28.999Z</time></trkpt><trkpt lat="42.438339814065735" lon="-8.056478253885915"><ele>444.66666666666663</ele><time>2026-03-30T12:48:29.999Z</time></trkpt><trkpt lat="42.438490548325426" lon="-8.056516091253693"><ele>446.0</ele><time>2026-03-30T12:48:30.999Z</time></trkpt><trkpt lat="42.43864034455797" lon="-8.056556158086181"><ele>446.3333333333333</ele><time>2026-03-30T12:48:31.999Z</time></trkpt><trkpt lat="42.438802240079056" lon="-8.05657902105391"><ele>446.66666666666663</ele><time>2026-03-30T12:48:32.999Z</time></trkpt><trkpt lat="42.43896684956105" lon="-8.056621937824245"><ele>447.0</ele><time>2026-03-30T12:48:33.999Z</time></trkpt><trkpt lat="42.43912840013128" lon="-8.05668400544448"><ele>447.33333333333337</ele><time>2026-03-30T12:48:34.999Z</time></trkpt><trkpt lat="42.43929463508743" lon="-8.056729795897569"><ele>447.6666666666667</ele><time>2026-03-30T12:48:35.999Z</time></trkpt><trkpt lat="42.43946384819231" lon="-8.056777924034119"><ele>448.0</ele><time>2026-03-30T12:48:36.999Z</time></trkpt><trkpt lat="42.43963033344524" lon="-8.056831461195918"><ele>448.0</ele><time>2026-03-30T12:48:37.999Z</time></trkpt><trkpt lat="42.43979467731737" lon="-8.056887578077417"><ele>448.0</ele><time>2026-03-30T12:48:38.999Z</time></trkpt><trkpt lat="42.43995073583735" lon="-8.05695353146534"><ele>448.0</ele><time>2026-03-30T12:48:39.999Z</time></trkpt><trkpt lat="42.44010144246155" lon="-8.057029883113533"><ele>448.0</ele><time>2026-03-30T12:48:40.999Z</time></trkpt><trkpt lat="42.44024142055844" lon="-8.057104411302637"><ele>448.0</ele><time>2026-03-30T12:48:41.999Z</time></trkpt><trkpt lat="42.44037963519885" lon="-8.057142485120949"><ele>448.0</ele><time>2026-03-30T12:48:42.999Z</time></trkpt><trkpt lat="42.44050082552357" lon="-8.05721310149051"><ele>448.0</ele><time>2026-03-30T12:48:43.999Z</time></trkpt><trkpt lat="42.44061400104531" lon="-8.057279047719165"><ele>448.0</ele><time>2026-03-30T12:48:44.999Z</time></trkpt><trkpt lat="42.44072626995041" lon="-8.057344500666124"><ele>448.0</ele><time>2026-03-30T12:48:45.999Z</time></trkpt><trkpt lat="42.44083682610966" lon="-8.057408979620067"><ele>448.0</ele><time>2026-03-30T12:48:46.999Z</time></trkpt><trkpt lat="42.440942559751164" lon="-8.057470646048882"><ele>448.0</ele><time>2026-03-30T12:48:47.999Z</time></trkpt><trkpt lat="42.44104057437953" lon="-8.057527327646966"><ele>448.00000000000006</ele><time>2026-03-30T12:48:48.999Z</time></trkpt><trkpt lat="42.44112647270852" lon="-8.05757715310531"><ele>448.0</ele><time>2026-03-30T12:48:49.999Z</time></trkpt><trkpt lat="42.44120663021093" lon="-8.057624420479392"><ele>448.0</ele><time>2026-03-30T12:48:50.999Z</time></trkpt><trkpt lat="42.44128843833325" lon="-8.057647546464562"><ele>448.0</ele><time>2026-03-30T12:48:51.999Z</time></trkpt><trkpt lat="42.44137727116703" lon="-8.05768147035201"><ele>448.00000000000006</ele><time>2026-03-30T12:48:53.999Z</time></trkpt><trkpt lat="42.441443930092824" lon="-8.057712967520265"><ele>448.0</ele><time>2026-03-30T12:49:02.999Z</time></trkpt><trkpt lat="42.44135196530573" lon="-8.057980687230495"><ele>448.0</ele><time>2026-03-30T12:49:04.999Z</time></trkpt><trkpt lat="42.441305731412804" lon="-8.058074630641004"><ele>447.99999999999994</ele><time>2026-03-30T12:49:05.999Z</time></trkpt><trkpt lat="42.44125014092456" lon="-8.058169023132292"><ele>447.99999999999994</ele><time>2026-03-30T12:49:06.999Z</time></trkpt><trkpt lat="42.44120238876081" lon="-8.058280253135285"><ele>448.0</ele><time>2026-03-30T12:49:07.999Z</time></trkpt><trkpt lat="42.441146445621186" lon="-8.058394213628706"><ele>448.0</ele><time>2026-03-30T12:49:08.999Z</time></trkpt><trkpt lat="42.44109572705315" lon="-8.058523139920778"><ele>447.5</ele><time>2026-03-30T12:49:09.999Z</time></trkpt><trkpt lat="42.44102469723126" lon="-8.058642170862923"><ele>447.0</ele><time>2026-03-30T12:49:10.999Z</time></trkpt><trkpt lat="42.44095615301088" lon="-8.058772403496633"><ele>446.5</ele><time>2026-03-30T12:49:11.999Z</time></trkpt><trkpt lat="42.44088909491888" lon="-8.058906257747102"><ele>446.0</ele><time>2026-03-30T12:49:12.999Z</time></trkpt><trkpt lat="42.44081847369052" lon="-8.059041722769678"><ele>446.0</ele><time>2026-03-30T12:49:13.999Z</time></trkpt><trkpt lat="42.4407496266443" lon="-8.059175190188245"><ele>446.0</ele><time>2026-03-30T12:49:14.999Z</time></trkpt><trkpt lat="42.44068745655552" lon="-8.059311347920566"><ele>446.0</ele><time>2026-03-30T12:49:15.999Z</time></trkpt><trkpt lat="42.440634863119556" lon="-8.059438168532285"><ele>446.0</ele><time>2026-03-30T12:49:16.999Z</time></trkpt><trkpt lat="42.44057085643259" lon="-8.059557795660565"><ele>446.0</ele><time>2026-03-30T12:49:17.999Z</time></trkpt><trkpt lat="42.44051205627613" lon="-8.05967852217774"><ele>446.0</ele><time>2026-03-30T12:49:18.999Z</time></trkpt><trkpt lat="42.44047004864241" lon="-8.059773248394462"><ele>446.0</ele><time>2026-03-30T12:49:19.999Z</time></trkpt><trkpt lat="42.440401146968505" lon="-8.059915064602421"><ele>446.0</ele><time>2026-03-30T12:49:20.999Z</time></trkpt><trkpt lat="42.44033759980005" lon="-8.06003745874265"><ele>446.0</ele><time>2026-03-30T12:49:21.999Z</time></trkpt><trkpt lat="42.44027488889013" lon="-8.060158327833932"><ele>444.5</ele><time>2026-03-30T12:49:22.999Z</time></trkpt><trkpt lat="42.44020857146068" lon="-8.06028758465306"><ele>443.0</ele><time>2026-03-30T12:49:23.999Z</time></trkpt><trkpt lat="42.44014211864956" lon="-8.060422977546239"><ele>441.5</ele><time>2026-03-30T12:49:24.999Z</time></trkpt><trkpt lat="42.440071796684094" lon="-8.060566138011934"><ele>440.0</ele><time>2026-03-30T12:49:25.999Z</time></trkpt><trkpt lat="42.4400063300629" lon="-8.060707242349766"><ele>439.5</ele><time>2026-03-30T12:49:26.999Z</time></trkpt><trkpt lat="42.43994028325568" lon="-8.060840990448257"><ele>439.0</ele><time>2026-03-30T12:49:27.999Z</time></trkpt><trkpt lat="42.439876426227926" lon="-8.060965112046036"><ele>438.5</ele><time>2026-03-30T12:49:28.999Z</time></trkpt><trkpt lat="42.43981555820209" lon="-8.061092323709051"><ele>438.0</ele><time>2026-03-30T12:49:29.999Z</time></trkpt><trkpt lat="42.43975678384641" lon="-8.061214470460648"><ele>438.0</ele><time>2026-03-30T12:49:30.999Z</time></trkpt><trkpt lat="42.43969981415753" lon="-8.061329269296934"><ele>437.99999999999994</ele><time>2026-03-30T12:49:31.999Z</time></trkpt><trkpt lat="42.43965177752245" lon="-8.061428613367909"><ele>437.99999999999994</ele><time>2026-03-30T12:49:32.999Z</time></trkpt><trkpt lat="42.43959153610314" lon="-8.061549730896667"><ele>438.0</ele><time>2026-03-30T12:49:33.999Z</time></trkpt><trkpt lat="42.43953013556723" lon="-8.06166679802614"><ele>438.0</ele><time>2026-03-30T12:49:34.999Z</time></trkpt><trkpt lat="42.43947259203149" lon="-8.061780598169815"><ele>437.4</ele><time>2026-03-30T12:49:35.999Z</time></trkpt><trkpt lat="42.43941747183114" lon="-8.061896583121236"><ele>436.79999999999995</ele><time>2026-03-30T12:49:36.999Z</time></trkpt><trkpt lat="42.43936465297138" lon="-8.062003473010135"><ele>436.2</ele><time>2026-03-30T12:49:37.999Z</time></trkpt><trkpt lat="42.43931088839092" lon="-8.062110241918955"><ele>435.6</ele><time>2026-03-30T12:49:38.999Z</time></trkpt><trkpt lat="42.43925683302697" lon="-8.062207549127253"><ele>435.0</ele><time>2026-03-30T12:49:39.999Z</time></trkpt><trkpt lat="42.43920791115135" lon="-8.062325740898677"><ele>435.0</ele><time>2026-03-30T12:49:40.999Z</time></trkpt><trkpt lat="42.439155783066425" lon="-8.062426957130413"><ele>435.0</ele><time>2026-03-30T12:49:41.999Z</time></trkpt><trkpt lat="42.43910075215422" lon="-8.062535255443768"><ele>435.0</ele><time>2026-03-30T12:49:42.999Z</time></trkpt><trkpt lat="42.439041176710084" lon="-8.062659716145358"><ele>435.0</ele><time>2026-03-30T12:49:43.999Z</time></trkpt><trkpt lat="42.438981927293106" lon="-8.062783703400298"><ele>435.0</ele><time>2026-03-30T12:49:44.999Z</time></trkpt><trkpt lat="42.43892315342771" lon="-8.0629038932596"><ele>435.0</ele><time>2026-03-30T12:49:45.999Z</time></trkpt><trkpt lat="42.43886688620354" lon="-8.063012325203593"><ele>435.0</ele><time>2026-03-30T12:49:46.999Z</time></trkpt><trkpt lat="42.43882010008703" lon="-8.063108868996169"><ele>435.0</ele><time>2026-03-30T12:49:47.999Z</time></trkpt><trkpt lat="42.43877497128208" lon="-8.063205596036612"><ele>435.0</ele><time>2026-03-30T12:49:48.999Z</time></trkpt><trkpt lat="42.43873317245193" lon="-8.063300854241678"><ele>435.0</ele><time>2026-03-30T12:49:49.999Z</time></trkpt><trkpt lat="42.438694209106515" lon="-8.063387315432767"><ele>435.0</ele><time>2026-03-30T12:49:50.999Z</time></trkpt><trkpt lat="42.43864001918798" lon="-8.063517176648556"><ele>430.0</ele><time>2026-03-30T12:49:52.999Z</time></trkpt><trkpt lat="42.43862465441557" lon="-8.063607448244511"><ele>430.0</ele><time>2026-03-30T12:49:55.999Z</time></trkpt></trkseg><trkseg><trkpt lat="42.43006911382003" lon="-8.067049784280815"><ele>394.0</ele><time>2026-03-30T12:58:09Z</time></trkpt><trkpt lat="42.42999572601437" lon="-8.066887531703271"><ele>394.0</ele><time>2026-03-30T12:58:10Z</time></trkpt><trkpt lat="42.429925964520116" lon="-8.066733149519864"><ele>394.0</ele><time>2026-03-30T12:58:11Z</time></trkpt><trkpt lat="42.4298577947457" lon="-8.066582289818314"><ele>394.0</ele><time>2026-03-30T12:58:12Z</time></trkpt><trkpt lat="42.429792881042815" lon="-8.066435564458214"><ele>394.5</ele><time>2026-03-30T12:58:13Z</time></trkpt><trkpt lat="42.42972884811334" lon="-8.066290614872868"><ele>395.0</ele><time>2026-03-30T12:58:14Z</time></trkpt><trkpt lat="42.42966613419148" lon="-8.066148898748265"><ele>395.5</ele><time>2026-03-30T12:58:15Z</time></trkpt><trkpt lat="42.42959895234958" lon="-8.065997086363112"><ele>396.0</ele><time>2026-03-30T12:58:16Z</time></trkpt><trkpt lat="42.42953350339826" lon="-8.065849189828675"><ele>395.0</ele><time>2026-03-30T12:58:17Z</time></trkpt><trkpt lat="42.4294637437481" lon="-8.065691552313243"><ele>394.0</ele><time>2026-03-30T12:58:18Z</time></trkpt><trkpt lat="42.42939591806038" lon="-8.06553828500841"><ele>393.0</ele><time>2026-03-30T12:58:19Z</time></trkpt><trkpt lat="42.42933148797209" lon="-8.065392690829311"><ele>392.0</ele><time>2026-03-30T12:58:20Z</time></trkpt><trkpt lat="42.42926998224524" lon="-8.065253704896604"><ele>392.0</ele><time>2026-03-30T12:58:21Z</time></trkpt><trkpt lat="42.42921159947729" lon="-8.065121775986963"><ele>392.0</ele><time>2026-03-30T12:58:22Z</time></trkpt><trkpt lat="42.42915944065588" lon="-8.065003529635465"><ele>392.0</ele><time>2026-03-30T12:58:23Z</time></trkpt><trkpt lat="42.42910619438992" lon="-8.06488274420553"><ele>392.0</ele><time>2026-03-30T12:58:24Z</time></trkpt><trkpt lat="42.42905758406643" lon="-8.064772475079922"><ele>392.0</ele><time>2026-03-30T12:58:25Z</time></trkpt><trkpt lat="42.429013652655335" lon="-8.064672819745244"><ele>392.40000000000003</ele><time>2026-03-30T12:58:26Z</time></trkpt><trkpt lat="42.42898053742756" lon="-8.064597700162986"><ele>392.8</ele><time>2026-03-30T12:58:27Z</time></trkpt><trkpt lat="42.428937963608625" lon="-8.064501124361334"><ele>393.2</ele><time>2026-03-30T12:58:29Z</time></trkpt><trkpt lat="42.428994920526776" lon="-8.064281784996021"><ele>393.6</ele><time>2026-03-30T12:58:31Z</time></trkpt><trkpt lat="42.42904632733118" lon="-8.0641701670976"><ele>394.0</ele><time>2026-03-30T12:58:32Z</time></trkpt><trkpt lat="42.42900977484867" lon="-8.064064184190281"><ele>394.0</ele><time>2026-03-30T12:58:32.999Z</time></trkpt><trkpt lat="42.42898749243715" lon="-8.0639602160946"><ele>394.0</ele><time>2026-03-30T12:58:33.999Z</time></trkpt><trkpt lat="42.42896103314771" lon="-8.063838976692136"><ele>394.0</ele><time>2026-03-30T12:58:34.999Z</time></trkpt><trkpt lat="42.42888869982722" lon="-8.063731791691696"><ele>394.0</ele><time>2026-03-30T12:58:35.999Z</time></trkpt><trkpt lat="42.42886332910405" lon="-8.063614612516917"><ele>394.0</ele><time>2026-03-30T12:58:36.999Z</time></trkpt><trkpt lat="42.42884072927062" lon="-8.063509021807093"><ele>394.0</ele><time>2026-03-30T12:58:37.999Z</time></trkpt><trkpt lat="42.42883548334503" lon="-8.06341414631594"><ele>394.0</ele><time>2026-03-30T12:58:38.999Z</time></trkpt><trkpt lat="42.42879885976654" lon="-8.063307247380003"><ele>394.0</ele><time>2026-03-30T12:58:39.999Z</time></trkpt><trkpt lat="42.42878030590082" lon="-8.063211690987506"><ele>394.0</ele><time>2026-03-30T12:58:40.999Z</time></trkpt><trkpt lat="42.42874937395075" lon="-8.06304705102158"><ele>394.0</ele><time>2026-03-30T12:58:42.999Z</time></trkpt><trkpt lat="42.42872568152139" lon="-8.062916868661583"><ele>394.0</ele><time>2026-03-30T12:58:44.999Z</time></trkpt><trkpt lat="42.428733713723275" lon="-8.062801298647452"><ele>394.0</ele><time>2026-03-30T12:58:46.999Z</time></trkpt><trkpt lat="42.42883310603586" lon="-8.062679287572987"><ele>394.0</ele><time>2026-03-30T12:58:48.999Z</time></trkpt><trkpt lat="42.42893586089177" lon="-8.062614099625812"><ele>394.0</ele><time>2026-03-30T12:58:50.999Z</time></trkpt><trkpt lat="42.42905351025335" lon="-8.062459561685934"><ele>394.0</ele><time>2026-03-30T12:58:51.999Z</time></trkpt><trkpt lat="42.42912994236903" lon="-8.06231688291267"><ele>394.0</ele><time>2026-03-30T12:58:52.999Z</time></trkpt><trkpt lat="42.42920168771909" lon="-8.062161188918742"><ele>394.0</ele><time>2026-03-30T12:58:54Z</time></trkpt><trkpt lat="42.429285327930806" lon="-8.06200737338699"><ele>394.0</ele><time>2026-03-30T12:58:55Z</time></trkpt><trkpt lat="42.42935816006142" lon="-8.061828835988237"><ele>394.0</ele><time>2026-03-30T12:58:56Z</time></trkpt><trkpt lat="42.429435475163594" lon="-8.061650305007332"><ele>394.0</ele><time>2026-03-30T12:58:57Z</time></trkpt><trkpt lat="42.42951664737204" lon="-8.061475130095806"><ele>394.0</ele><time>2026-03-30T12:58:58Z</time></trkpt><trkpt lat="42.429587029467946" lon="-8.061301929483179"><ele>394.25</ele><time>2026-03-30T12:58:59Z</time></trkpt><trkpt lat="42.429660191284775" lon="-8.061127081473217"><ele>394.5</ele><time>2026-03-30T12:59:00Z</time></trkpt><trkpt lat="42.429733776662886" lon="-8.060952299682501"><ele>394.75</ele><time>2026-03-30T12:59:01Z</time></trkpt><trkpt lat="42.429809616781185" lon="-8.06077907661982"><ele>395.0</ele><time>2026-03-30T12:59:02Z</time></trkpt><trkpt lat="42.429883418836816" lon="-8.060602689667185"><ele>395.0</ele><time>2026-03-30T12:59:03Z</time></trkpt><trkpt lat="42.42996078344904" lon="-8.060425717812548"><ele>395.0</ele><time>2026-03-30T12:59:04Z</time></trkpt><trkpt lat="42.43003657578527" lon="-8.06025171831266"><ele>395.0</ele><time>2026-03-30T12:59:05Z</time></trkpt><trkpt lat="42.430108303267204" lon="-8.060079425410516"><ele>395.0</ele><time>2026-03-30T12:59:06Z</time></trkpt><trkpt lat="42.430183857438436" lon="-8.05990635619432"><ele>395.0</ele><time>2026-03-30T12:59:07Z</time></trkpt><trkpt lat="42.43026098035828" lon="-8.059732637415612"><ele>395.0</ele><time>2026-03-30T12:59:08Z</time></trkpt><trkpt lat="42.43032127357973" lon="-8.059548961633647"><ele>395.0</ele><time>2026-03-30T12:59:09Z</time></trkpt><trkpt lat="42.43039323185512" lon="-8.05937757687225"><ele>395.0</ele><time>2026-03-30T12:59:10Z</time></trkpt><trkpt lat="42.43046649136385" lon="-8.059203092891368"><ele>395.0</ele><time>2026-03-30T12:59:11Z</time></trkpt><trkpt lat="42.43055042166609" lon="-8.059044486768801"><ele>395.0</ele><time>2026-03-30T12:59:12Z</time></trkpt><trkpt lat="42.43061001430135" lon="-8.058860966425389"><ele>395.0</ele><time>2026-03-30T12:59:13Z</time></trkpt><trkpt lat="42.43067910993162" lon="-8.058696273718569"><ele>395.0</ele><time>2026-03-30T12:59:14Z</time></trkpt><trkpt lat="42.430749393723886" lon="-8.058528748942116"><ele>395.0</ele><time>2026-03-30T12:59:15Z</time></trkpt><trkpt lat="42.430822135102794" lon="-8.058354670827358"><ele>395.0</ele><time>2026-03-30T12:59:16Z</time></trkpt><trkpt lat="42.430894743436646" lon="-8.058181014916748"><ele>395.0</ele><time>2026-03-30T12:59:17Z</time></trkpt><trkpt lat="42.43096982973196" lon="-8.058004225882154"><ele>395.0</ele><time>2026-03-30T12:59:18Z</time></trkpt><trkpt lat="42.431046374052414" lon="-8.05782560260369"><ele>394.66666666666663</ele><time>2026-03-30T12:59:19Z</time></trkpt><trkpt lat="42.43112409005554" lon="-8.057644245093542"><ele>394.33333333333337</ele><time>2026-03-30T12:59:20Z</time></trkpt><trkpt lat="42.431201299678946" lon="-8.057464069270633"><ele>394.0</ele><time>2026-03-30T12:59:21Z</time></trkpt><trkpt lat="42.43128095591789" lon="-8.057278184040698"><ele>395.0</ele><time>2026-03-30T12:59:22Z</time></trkpt><trkpt lat="42.43137259198579" lon="-8.057104922154098"><ele>396.0</ele><time>2026-03-30T12:59:23Z</time></trkpt><trkpt lat="42.43143926687592" lon="-8.056908475416039"><ele>397.0</ele><time>2026-03-30T12:59:24Z</time></trkpt><trkpt lat="42.43151498958809" lon="-8.05672619209803"><ele>397.0</ele><time>2026-03-30T12:59:25Z</time></trkpt><trkpt lat="42.43159104884938" lon="-8.056543207919452"><ele>397.0</ele><time>2026-03-30T12:59:26Z</time></trkpt><trkpt lat="42.43166816143245" lon="-8.056357791276344"><ele>397.0</ele><time>2026-03-30T12:59:27Z</time></trkpt><trkpt lat="42.43174237654131" lon="-8.056179341591262"><ele>397.0</ele><time>2026-03-30T12:59:28Z</time></trkpt><trkpt lat="42.43181640947588" lon="-8.056001329937782"><ele>397.0</ele><time>2026-03-30T12:59:29Z</time></trkpt><trkpt lat="42.43188927342444" lon="-8.055826129104194"><ele>397.0</ele><time>2026-03-30T12:59:30Z</time></trkpt><trkpt lat="42.43195503545103" lon="-8.055668004797312"><ele>397.0</ele><time>2026-03-30T12:59:31Z</time></trkpt><trkpt lat="42.43201861737261" lon="-8.055515122526403"><ele>397.33333333333337</ele><time>2026-03-30T12:59:32Z</time></trkpt><trkpt lat="42.432072126448745" lon="-8.055386460342707"><ele>397.6666666666667</ele><time>2026-03-30T12:59:33Z</time></trkpt><trkpt lat="42.43212575005783" lon="-8.055268711467377"><ele>398.0</ele><time>2026-03-30T12:59:34Z</time></trkpt><trkpt lat="42.43216684103381" lon="-8.05517070573671"><ele>398.33333333333337</ele><time>2026-03-30T12:59:35Z</time></trkpt><trkpt lat="42.43219395439885" lon="-8.055091975025748"><ele>398.6666666666667</ele><time>2026-03-30T12:59:36Z</time></trkpt><trkpt lat="42.432236380320816" lon="-8.055011542840948"><ele>399.0</ele><time>2026-03-30T12:59:38Z</time></trkpt><trkpt lat="42.432360121737105" lon="-8.055045255980492"><ele>399.0</ele><time>2026-03-30T12:59:40Z</time></trkpt><trkpt lat="42.43244799346276" lon="-8.055112954301423"><ele>399.0</ele><time>2026-03-30T12:59:41Z</time></trkpt><trkpt lat="42.43254399777135" lon="-8.055167379594401"><ele>399.0</ele><time>2026-03-30T12:59:42Z</time></trkpt><trkpt lat="42.432643917078494" lon="-8.055230080931853"><ele>399.0</ele><time>2026-03-30T12:59:43Z</time></trkpt><trkpt lat="42.43275786573151" lon="-8.055302647372919"><ele>399.0</ele><time>2026-03-30T12:59:44Z</time></trkpt><trkpt lat="42.43287708536371" lon="-8.055378570554387"><ele>400.25</ele><time>2026-03-30T12:59:45Z</time></trkpt><trkpt lat="42.432997573584444" lon="-8.055456068898584"><ele>401.5</ele><time>2026-03-30T12:59:46Z</time></trkpt><trkpt lat="42.433118375252484" lon="-8.05555779461214"><ele>402.75</ele><time>2026-03-30T12:59:47Z</time></trkpt><trkpt lat="42.433246597913" lon="-8.055639740783802"><ele>404.0</ele><time>2026-03-30T12:59:48Z</time></trkpt><trkpt lat="42.43336941382438" lon="-8.055723919618773"><ele>404.25</ele><time>2026-03-30T12:59:49Z</time></trkpt><trkpt lat="42.433496959539205" lon="-8.055808212237158"><ele>404.5</ele><time>2026-03-30T12:59:50Z</time></trkpt><trkpt lat="42.433633359514" lon="-8.055885252988132"><ele>404.75</ele><time>2026-03-30T12:59:51Z</time></trkpt><trkpt lat="42.43375771686105" lon="-8.05597840513794"><ele>405.0</ele><time>2026-03-30T12:59:52Z</time></trkpt><trkpt lat="42.43388584093798" lon="-8.056071319793386"><ele>407.5</ele><time>2026-03-30T12:59:53Z</time></trkpt><trkpt lat="42.43401075194739" lon="-8.056160366654513"><ele>410.0</ele><time>2026-03-30T12:59:54Z</time></trkpt><trkpt lat="42.43414396604396" lon="-8.056241090636028"><ele>412.5</ele><time>2026-03-30T12:59:55Z</time></trkpt><trkpt lat="42.43427047047538" lon="-8.056336242270573"><ele>415.0</ele><time>2026-03-30T12:59:56Z</time></trkpt><trkpt lat="42.43440164711388" lon="-8.05643198481674"><ele>415.0</ele><time>2026-03-30T12:59:57Z</time></trkpt><trkpt lat="42.43452198571526" lon="-8.05652859103755"><ele>415.0</ele><time>2026-03-30T12:59:58Z</time></trkpt><trkpt lat="42.43463857390865" lon="-8.056634758523677"><ele>415.0</ele><time>2026-03-30T12:59:59Z</time></trkpt><trkpt lat="42.434756408982345" lon="-8.05673461913824"><ele>415.0</ele><time>2026-03-30T13:00:00Z</time></trkpt><trkpt lat="42.43487729349237" lon="-8.056840210085312"><ele>418.25</ele><time>2026-03-30T13:00:01Z</time></trkpt><trkpt lat="42.43499939476866" lon="-8.056935839952706"><ele>421.5</ele><time>2026-03-30T13:00:02Z</time></trkpt><trkpt lat="42.43513098606944" lon="-8.057036270569727"><ele>424.75</ele><time>2026-03-30T13:00:03Z</time></trkpt><trkpt lat="42.43526084318024" lon="-8.057138292764453"><ele>428.0</ele><time>2026-03-30T13:00:04Z</time></trkpt><trkpt lat="42.43538247025964" lon="-8.057259521375338"><ele>429.75</ele><time>2026-03-30T13:00:05Z</time></trkpt><trkpt lat="42.43551233365094" lon="-8.057355548039778"><ele>431.5</ele><time>2026-03-30T13:00:06Z</time></trkpt><trkpt lat="42.43563636847912" lon="-8.057462457412244"><ele>433.25</ele><time>2026-03-30T13:00:06.999Z</time></trkpt><trkpt lat="42.43576727908817" lon="-8.057569767509712"><ele>435.0</ele><time>2026-03-30T13:00:07.999Z</time></trkpt><trkpt lat="42.435873848452935" lon="-8.057666411051402"><ele>435.0</ele><time>2026-03-30T13:00:08.999Z</time></trkpt><trkpt lat="42.435978453462575" lon="-8.057730032267035"><ele>435.0</ele><time>2026-03-30T13:00:09.999Z</time></trkpt><trkpt lat="42.43607042226434" lon="-8.057802818594926"><ele>435.0</ele><time>2026-03-30T13:00:10.999Z</time></trkpt><trkpt lat="42.43614857488854" lon="-8.057863676655654"><ele>435.0</ele><time>2026-03-30T13:00:11.999Z</time></trkpt><trkpt lat="42.43622310674939" lon="-8.057937980683036"><ele>435.0</ele><time>2026-03-30T13:00:12.999Z</time></trkpt><trkpt lat="42.43630888171281" lon="-8.057945981567773"><ele>436.0</ele><time>2026-03-30T13:00:13.999Z</time></trkpt><trkpt lat="42.43638353462198" lon="-8.057953259088205"><ele>437.0</ele><time>2026-03-30T13:00:14.999Z</time></trkpt><trkpt lat="42.43645569543225" lon="-8.057801847667585"><ele>438.0</ele><time>2026-03-30T13:00:15.999Z</time></trkpt><trkpt lat="42.436522060705016" lon="-8.057676181863492"><ele>439.0</ele><time>2026-03-30T13:00:16.999Z</time></trkpt><trkpt lat="42.43660418250394" lon="-8.057549780560256"><ele>440.0</ele><time>2026-03-30T13:00:17.999Z</time></trkpt><trkpt lat="42.43666662890964" lon="-8.057388431512328"><ele>440.0</ele><time>2026-03-30T13:00:18.999Z</time></trkpt><trkpt lat="42.436751273594076" lon="-8.057241086868228"><ele>440.0</ele><time>2026-03-30T13:00:19.999Z</time></trkpt><trkpt lat="42.43683961321648" lon="-8.057083322476357"><ele>440.0</ele><time>2026-03-30T13:00:20.999Z</time></trkpt><trkpt lat="42.43692329011413" lon="-8.056917778583653"><ele>440.0</ele><time>2026-03-30T13:00:21.999Z</time></trkpt><trkpt lat="42.437008154406676" lon="-8.056756793985574"><ele>440.5</ele><time>2026-03-30T13:00:22.999Z</time></trkpt><trkpt lat="42.43709291249722" lon="-8.056599744632507"><ele>441.0</ele><time>2026-03-30T13:00:23.999Z</time></trkpt><trkpt lat="42.43717624513568" lon="-8.056455153240503"><ele>441.5</ele><time>2026-03-30T13:00:24.999Z</time></trkpt><trkpt lat="42.437258049813884" lon="-8.056338141941168"><ele>442.0</ele><time>2026-03-30T13:00:25.999Z</time></trkpt><trkpt lat="42.437339169771136" lon="-8.056251777923876"><ele>442.00000000000006</ele><time>2026-03-30T13:00:26.999Z</time></trkpt><trkpt lat="42.43740568321675" lon="-8.056193969204104"><ele>442.0</ele><time>2026-03-30T13:00:27.999Z</time></trkpt><trkpt lat="42.43745637047233" lon="-8.056135578894727"><ele>442.0</ele><time>2026-03-30T13:00:28.999Z</time></trkpt><trkpt lat="42.437520288026" lon="-8.056123831861154"><ele>442.0</ele><time>2026-03-30T13:00:29.999Z</time></trkpt><trkpt lat="42.437536575875974" lon="-8.05594276333693"><ele>442.00000000000006</ele><time>2026-03-30T13:00:30.999Z</time></trkpt><trkpt lat="42.437563620163786" lon="-8.055821914493684"><ele>442.0</ele><time>2026-03-30T13:00:31.999Z</time></trkpt><trkpt lat="42.437594973248125" lon="-8.055686721115261"><ele>440.6</ele><time>2026-03-30T13:00:32.999Z</time></trkpt><trkpt lat="42.43762627213183" lon="-8.055547833012605"><ele>439.20000000000005</ele><time>2026-03-30T13:00:33.999Z</time></trkpt><trkpt lat="42.43765287506993" lon="-8.055412043580723"><ele>437.8</ele><time>2026-03-30T13:00:34.999Z</time></trkpt><trkpt lat="42.43768521569068" lon="-8.055277310921308"><ele>436.4</ele><time>2026-03-30T13:00:35.999Z</time></trkpt><trkpt lat="42.43771414553586" lon="-8.055135373276173"><ele>435.0</ele><time>2026-03-30T13:00:36.999Z</time></trkpt><trkpt lat="42.437733619373944" lon="-8.054996477911608"><ele>434.1666666666667</ele><time>2026-03-30T13:00:37.999Z</time></trkpt><trkpt lat="42.43772826472327" lon="-8.054885071310553"><ele>433.33333333333337</ele><time>2026-03-30T13:00:38.999Z</time></trkpt><trkpt lat="42.43774600471077" lon="-8.054769862227918"><ele>432.5</ele><time>2026-03-30T13:00:39.999Z</time></trkpt><trkpt lat="42.43771289527261" lon="-8.054652063728902"><ele>431.6666666666667</ele><time>2026-03-30T13:00:40.999Z</time></trkpt><trkpt lat="42.437672002163595" lon="-8.05456709012644"><ele>430.83333333333337</ele><time>2026-03-30T13:00:41.999Z</time></trkpt><trkpt lat="42.437645549259095" lon="-8.054488555662656"><ele>430.0</ele><time>2026-03-30T13:00:42.999Z</time></trkpt><trkpt lat="42.43768879040044" lon="-8.05434234101308"><ele>430.0</ele><time>2026-03-30T13:00:44.999Z</time></trkpt><trkpt lat="42.437744815870424" lon="-8.054287390901914"><ele>430.0</ele><time>2026-03-30T13:00:45.999Z</time></trkpt><trkpt lat="42.43780933588939" lon="-8.054240361467349"><ele>430.0</ele><time>2026-03-30T13:00:46.999Z</time></trkpt><trkpt lat="42.43787927012625" lon="-8.054223017102752"><ele>430.0</ele><time>2026-03-30T13:00:47.999Z</time></trkpt><trkpt lat="42.43794777995549" lon="-8.054245137605298"><ele>430.0</ele><time>2026-03-30T13:00:48.999Z</time></trkpt><trkpt lat="42.438011587269564" lon="-8.054299840169874"><ele>430.0</ele><time>2026-03-30T13:00:49.999Z</time></trkpt><trkpt lat="42.438063579287714" lon="-8.054390604078389"><ele>430.0</ele><time>2026-03-30T13:00:50.999Z</time></trkpt><trkpt lat="42.438077894579" lon="-8.054497838222648"><ele>430.8</ele><time>2026-03-30T13:00:51.999Z</time></trkpt><trkpt lat="42.43810799733326" lon="-8.054575751391102"><ele>431.6</ele><time>2026-03-30T13:00:52.999Z</time></trkpt><trkpt lat="42.43824277457506" lon="-8.054558951253101"><ele>432.4</ele><time>2026-03-30T13:00:53.999Z</time></trkpt><trkpt lat="42.43835012812111" lon="-8.05458378042879"><ele>433.2</ele><time>2026-03-30T13:00:54.999Z</time></trkpt><trkpt lat="42.43846734726863" lon="-8.054632987640016"><ele>434.0</ele><time>2026-03-30T13:00:55.999Z</time></trkpt><trkpt lat="42.43860026479283" lon="-8.054652542772754"><ele>434.0</ele><time>2026-03-30T13:00:56.999Z</time></trkpt><trkpt lat="42.43873156015772" lon="-8.054688433552617"><ele>434.0</ele><time>2026-03-30T13:00:57.999Z</time></trkpt><trkpt lat="42.43887034205747" lon="-8.054725275727362"><ele>434.0</ele><time>2026-03-30T13:00:58.999Z</time></trkpt><trkpt lat="42.43901025923324" lon="-8.054754370297832"><ele>434.0</ele><time>2026-03-30T13:01:00Z</time></trkpt><trkpt lat="42.43915178607148" lon="-8.0547792398446"><ele>435.25</ele><time>2026-03-30T13:01:01Z</time></trkpt><trkpt lat="42.43929228639579" lon="-8.054820156690393"><ele>436.5</ele><time>2026-03-30T13:01:02Z</time></trkpt><trkpt lat="42.43943816631557" lon="-8.054853669727015"><ele>437.75</ele><time>2026-03-30T13:01:03Z</time></trkpt><trkpt lat="42.43955239476973" lon="-8.054878799503332"><ele>439.0</ele><time>2026-03-30T13:01:04Z</time></trkpt><trkpt lat="42.4396247855229" lon="-8.054891597779267"><ele>439.85714285714283</ele><time>2026-03-30T13:01:05Z</time></trkpt><trkpt lat="42.43969469936783" lon="-8.054870216666231"><ele>440.71428571428567</ele><time>2026-03-30T13:01:08Z</time></trkpt><trkpt lat="42.43977612975981" lon="-8.054865633590461"><ele>441.57142857142856</ele><time>2026-03-30T13:01:12Z</time></trkpt><trkpt lat="42.43984948511757" lon="-8.054927973213873"><ele>442.42857142857144</ele><time>2026-03-30T13:01:25Z</time></trkpt><trkpt lat="42.43990588683597" lon="-8.054969756763667"><ele>443.2857142857143</ele><time>2026-03-30T13:01:27Z</time></trkpt><trkpt lat="42.439971759938786" lon="-8.054951855064656"><ele>444.14285714285717</ele><time>2026-03-30T13:01:28Z</time></trkpt><trkpt lat="42.44003897303538" lon="-8.054917547184743"><ele>445.0</ele><time>2026-03-30T13:01:29Z</time></trkpt><trkpt lat="42.4401105194177" lon="-8.054802444516532"><ele>445.5</ele><time>2026-03-30T13:01:31Z</time></trkpt><trkpt lat="42.440179376807315" lon="-8.054763977338705"><ele>446.0</ele><time>2026-03-30T13:01:33Z</time></trkpt><trkpt lat="42.44008896477267" lon="-8.054512284518614"><ele>446.5</ele><time>2026-03-30T13:01:34Z</time></trkpt><trkpt lat="42.44006019316351" lon="-8.054404269332679"><ele>447.0</ele><time>2026-03-30T13:01:35Z</time></trkpt><trkpt lat="42.44003520848027" lon="-8.054293719236247"><ele>447.0</ele><time>2026-03-30T13:01:36Z</time></trkpt><trkpt lat="42.44002067347348" lon="-8.05418327143219"><ele>447.0</ele><time>2026-03-30T13:01:37Z</time></trkpt><trkpt lat="42.44000242942394" lon="-8.054070412755465"><ele>447.0</ele><time>2026-03-30T13:01:38Z</time></trkpt><trkpt lat="42.43998821307454" lon="-8.053967143501783"><ele>447.0</ele><time>2026-03-30T13:01:39Z</time></trkpt><trkpt lat="42.43997267830012" lon="-8.053868615303948"><ele>447.0</ele><time>2026-03-30T13:01:40Z</time></trkpt><trkpt lat="42.43995695947723" lon="-8.053774137665638"><ele>447.0</ele><time>2026-03-30T13:01:41Z</time></trkpt><trkpt lat="42.4399400854798" lon="-8.05369060741264"><ele>446.99999999999994</ele><time>2026-03-30T13:01:42Z</time></trkpt><trkpt lat="42.43992533054591" lon="-8.05359764242148"><ele>447.0</ele><time>2026-03-30T13:01:43Z</time></trkpt><trkpt lat="42.43990170141959" lon="-8.053506406916831"><ele>447.0</ele><time>2026-03-30T13:01:44Z</time></trkpt><trkpt lat="42.439883674205305" lon="-8.05341496871946"><ele>447.0</ele><time>2026-03-30T13:01:45Z</time></trkpt><trkpt lat="42.43987276402091" lon="-8.053317181032444"><ele>447.0</ele><time>2026-03-30T13:01:46Z</time></trkpt><trkpt lat="42.43985506756846" lon="-8.053225042059994"><ele>446.99999999999994</ele><time>2026-03-30T13:01:47Z</time></trkpt><trkpt lat="42.43983406287083" lon="-8.053123871610739"><ele>447.0</ele><time>2026-03-30T13:01:48Z</time></trkpt><trkpt lat="42.439816216162875" lon="-8.053028891227447"><ele>446.99999999999994</ele><time>2026-03-30T13:01:49Z</time></trkpt><trkpt lat="42.43979882490243" lon="-8.052930114338732"><ele>447.0</ele><time>2026-03-30T13:01:50Z</time></trkpt><trkpt lat="42.43977991032166" lon="-8.052833227817"><ele>447.0</ele><time>2026-03-30T13:01:51Z</time></trkpt><trkpt lat="42.43975625783856" lon="-8.05273647002344"><ele>447.0</ele><time>2026-03-30T13:01:52Z</time></trkpt><trkpt lat="42.43973665985907" lon="-8.052640764206853"><ele>447.0</ele><time>2026-03-30T13:01:53Z</time></trkpt><trkpt lat="42.43972200502644" lon="-8.052544604010723"><ele>446.99999999999994</ele><time>2026-03-30T13:01:54Z</time></trkpt><trkpt lat="42.43970610117369" lon="-8.052450163512551"><ele>447.0</ele><time>2026-03-30T13:01:55Z</time></trkpt><trkpt lat="42.439677351455195" lon="-8.052371082630335"><ele>447.0</ele><time>2026-03-30T13:01:55.999Z</time></trkpt><trkpt lat="42.43964848676344" lon="-8.052224579639704"><ele>447.00000000000006</ele><time>2026-03-30T13:01:57.999Z</time></trkpt><trkpt lat="42.43961765252146" lon="-8.05208036262128"><ele>447.00000000000006</ele><time>2026-03-30T13:01:59.999Z</time></trkpt><trkpt lat="42.43953528159892" lon="-8.051980061630088"><ele>447.0</ele><time>2026-03-30T13:02:01.999Z</time></trkpt><trkpt lat="42.43946468181078" lon="-8.051914032843284"><ele>447.0</ele><time>2026-03-30T13:02:03.999Z</time></trkpt><trkpt lat="42.43936905725505" lon="-8.051790342095314"><ele>446.3333333333333</ele><time>2026-03-30T13:02:05.999Z</time></trkpt><trkpt lat="42.439309630540585" lon="-8.0517226528943"><ele>445.66666666666663</ele><time>2026-03-30T13:02:06.999Z</time></trkpt><trkpt lat="42.439245821345835" lon="-8.051643325553064"><ele>445.0</ele><time>2026-03-30T13:02:07.999Z</time></trkpt><trkpt lat="42.43918500473329" lon="-8.05157541525903"><ele>444.3333333333333</ele><time>2026-03-30T13:02:08.999Z</time></trkpt><trkpt lat="42.43912956320538" lon="-8.051514124388989"><ele>443.66666666666663</ele><time>2026-03-30T13:02:09.999Z</time></trkpt><trkpt lat="42.43908228759601" lon="-8.051442038851423"><ele>443.0</ele><time>2026-03-30T13:02:10.999Z</time></trkpt><trkpt lat="42.43903726834668" lon="-8.051377625330806"><ele>443.0</ele><time>2026-03-30T13:02:11.999Z</time></trkpt><trkpt lat="42.43904010521232" lon="-8.051230806807553"><ele>442.99999999999994</ele><time>2026-03-30T13:02:13.999Z</time></trkpt><trkpt lat="42.439106181102744" lon="-8.051269862733728"><ele>442.99999999999994</ele><time>2026-03-30T13:02:16.999Z</time></trkpt><trkpt lat="42.43907781233547" lon="-8.051453599721599"><ele>443.0</ele><time>2026-03-30T13:02:17.999Z</time></trkpt><trkpt lat="42.43913699956997" lon="-8.051528439757648"><ele>443.0</ele><time>2026-03-30T13:02:18.999Z</time></trkpt><trkpt lat="42.4392064780546" lon="-8.051616292718835"><ele>442.66666666666663</ele><time>2026-03-30T13:02:19.999Z</time></trkpt><trkpt lat="42.439277022443605" lon="-8.05170549347614"><ele>442.3333333333333</ele><time>2026-03-30T13:02:20.999Z</time></trkpt><trkpt lat="42.43934552655072" lon="-8.05178856200133"><ele>442.0</ele><time>2026-03-30T13:02:21.999Z</time></trkpt><trkpt lat="42.43940898596647" lon="-8.051864607302669"><ele>441.66666666666663</ele><time>2026-03-30T13:02:22.999Z</time></trkpt><trkpt lat="42.43946217826892" lon="-8.051928349221134"><ele>441.3333333333333</ele><time>2026-03-30T13:02:23.999Z</time></trkpt><trkpt lat="42.43951155670682" lon="-8.051987520888618"><ele>441.0</ele><time>2026-03-30T13:02:24.999Z</time></trkpt><trkpt lat="42.43963831366849" lon="-8.052020309422032"><ele>442.0</ele><time>2026-03-30T13:02:26.999Z</time></trkpt><trkpt lat="42.439682474145464" lon="-8.052157573218862"><ele>443.0</ele><time>2026-03-30T13:02:28.999Z</time></trkpt><trkpt lat="42.439694290722315" lon="-8.052242681925504"><ele>444.0</ele><time>2026-03-30T13:02:29.999Z</time></trkpt><trkpt lat="42.43973029396246" lon="-8.05240753693924"><ele>445.0</ele><time>2026-03-30T13:02:31.999Z</time></trkpt><trkpt lat="42.439748449393115" lon="-8.052496688407583"><ele>446.0</ele><time>2026-03-30T13:02:32.999Z</time></trkpt><trkpt lat="42.43976386056067" lon="-8.052588047031527"><ele>447.0</ele><time>2026-03-30T13:02:33.999Z</time></trkpt><trkpt lat="42.43977853660237" lon="-8.052675019618528"><ele>446.99999999999994</ele><time>2026-03-30T13:02:34.999Z</time></trkpt><trkpt lat="42.43979681808693" lon="-8.052769755887118"><ele>447.0</ele><time>2026-03-30T13:02:35.999Z</time></trkpt><trkpt lat="42.43981361351915" lon="-8.05285860058359"><ele>447.0</ele><time>2026-03-30T13:02:36.999Z</time></trkpt><trkpt lat="42.439832670657" lon="-8.052955591565961"><ele>447.0</ele><time>2026-03-30T13:02:37.999Z</time></trkpt><trkpt lat="42.43985412344954" lon="-8.053053783071684"><ele>447.0</ele><time>2026-03-30T13:02:38.999Z</time></trkpt><trkpt lat="42.43987375419873" lon="-8.05315406382708"><ele>446.99999999999994</ele><time>2026-03-30T13:02:39.999Z</time></trkpt><trkpt lat="42.43989237059737" lon="-8.053253649337341"><ele>447.0</ele><time>2026-03-30T13:02:40.999Z</time></trkpt><trkpt lat="42.439909410750225" lon="-8.053360041952"><ele>446.99999999999994</ele><time>2026-03-30T13:02:41.999Z</time></trkpt><trkpt lat="42.439926595803925" lon="-8.053458019351226"><ele>447.0</ele><time>2026-03-30T13:02:42.999Z</time></trkpt><trkpt lat="42.43994592338809" lon="-8.05355937615393"><ele>447.0</ele><time>2026-03-30T13:02:43.999Z</time></trkpt><trkpt lat="42.43996533861816" lon="-8.053653781773283"><ele>447.0</ele><time>2026-03-30T13:02:44.999Z</time></trkpt><trkpt lat="42.43998787674254" lon="-8.05374596395108"><ele>447.0</ele><time>2026-03-30T13:02:45.999Z</time></trkpt><trkpt lat="42.44000451544167" lon="-8.05383671100132"><ele>446.99999999999994</ele><time>2026-03-30T13:02:46.999Z</time></trkpt><trkpt lat="42.44002039542034" lon="-8.053929748737211"><ele>447.0</ele><time>2026-03-30T13:02:47.999Z</time></trkpt><trkpt lat="42.440040273219" lon="-8.054021856823795"><ele>447.0</ele><time>2026-03-30T13:02:48.999Z</time></trkpt><trkpt lat="42.440058429920626" lon="-8.054111084368504"><ele>447.0</ele><time>2026-03-30T13:02:49.999Z</time></trkpt><trkpt lat="42.44007787255337" lon="-8.054198750227087"><ele>447.0</ele><time>2026-03-30T13:02:50.999Z</time></trkpt><trkpt lat="42.44009973703313" lon="-8.05428624952999"><ele>447.0</ele><time>2026-03-30T13:02:51.999Z</time></trkpt><trkpt lat="42.44011767120182" lon="-8.054372731270051"><ele>447.0</ele><time>2026-03-30T13:02:52.999Z</time></trkpt><trkpt lat="42.44015364985423" lon="-8.054539112096412"><ele>447.0</ele><time>2026-03-30T13:02:54.999Z</time></trkpt><trkpt lat="42.440178557521335" lon="-8.054693362799823"><ele>447.0</ele><time>2026-03-30T13:02:56.999Z</time></trkpt><trkpt lat="42.44025704332006" lon="-8.054798406519057"><ele>447.00000000000006</ele><time>2026-03-30T13:02:58.999Z</time></trkpt><trkpt lat="42.440321749115725" lon="-8.054843520796982"><ele>447.00000000000006</ele><time>2026-03-30T13:02:59.999Z</time></trkpt><trkpt lat="42.44037689733974" lon="-8.054926131564272"><ele>447.0</ele><time>2026-03-30T13:03:00.999Z</time></trkpt><trkpt lat="42.44043199217514" lon="-8.055022281082051"><ele>447.0</ele><time>2026-03-30T13:03:01.999Z</time></trkpt><trkpt lat="42.4404329465639" lon="-8.055153122281745"><ele>446.6666666666667</ele><time>2026-03-30T13:03:02.999Z</time></trkpt><trkpt lat="42.44040818427757" lon="-8.055264377858036"><ele>446.33333333333337</ele><time>2026-03-30T13:03:03.999Z</time></trkpt><trkpt lat="42.44035453403984" lon="-8.05533333260573"><ele>446.0</ele><time>2026-03-30T13:03:04.999Z</time></trkpt><trkpt lat="42.44029290481628" lon="-8.055295418313348"><ele>445.6666666666667</ele><time>2026-03-30T13:03:05.999Z</time></trkpt><trkpt lat="42.4401773370232" lon="-8.055295284593766"><ele>445.33333333333337</ele><time>2026-03-30T13:03:07.999Z</time></trkpt><trkpt lat="42.440111850830014" lon="-8.055274843011196"><ele>445.0</ele><time>2026-03-30T13:03:08.999Z</time></trkpt><trkpt lat="42.44005939622343" lon="-8.055196264625126"><ele>445.0</ele><time>2026-03-30T13:03:09.999Z</time></trkpt><trkpt lat="42.44001460317094" lon="-8.055108983888058"><ele>445.0</ele><time>2026-03-30T13:03:10.999Z</time></trkpt><trkpt lat="42.4399653730917" lon="-8.055032481434948"><ele>445.0</ele><time>2026-03-30T13:03:11.999Z</time></trkpt><trkpt lat="42.44000488278397" lon="-8.054940655752562"><ele>445.0</ele><time>2026-03-30T13:03:13.999Z</time></trkpt><trkpt lat="42.43978830585271" lon="-8.054965573526369"><ele>445.0</ele><time>2026-03-30T13:03:14.999Z</time></trkpt><trkpt lat="42.43971102585634" lon="-8.054940081348322"><ele>446.0</ele><time>2026-03-30T13:03:16.999Z</time></trkpt><trkpt lat="42.440097997935894" lon="-8.054912555970303"><ele>447.0</ele><time>2026-03-30T13:11:46.001Z</time></trkpt><trkpt lat="42.44016154507462" lon="-8.054804448478254"><ele>447.0</ele><time>2026-03-30T13:11:48.001Z</time></trkpt><trkpt lat="42.44024118599818" lon="-8.054801802509587"><ele>447.00000000000006</ele><time>2026-03-30T13:11:49.001Z</time></trkpt><trkpt lat="42.44030996796681" lon="-8.05483311656239"><ele>447.00000000000006</ele><time>2026-03-30T13:11:50.001Z</time></trkpt><trkpt lat="42.4403615473228" lon="-8.054916062059712"><ele>447.0</ele><time>2026-03-30T13:11:51.001Z</time></trkpt><trkpt lat="42.440389013157926" lon="-8.055082154340626"><ele>447.0</ele><time>2026-03-30T13:11:53.001Z</time></trkpt><trkpt lat="42.44036138501579" lon="-8.055245160068024"><ele>446.6666666666667</ele><time>2026-03-30T13:11:54.001Z</time></trkpt><trkpt lat="42.44029161429024" lon="-8.055373924011693"><ele>446.33333333333337</ele><time>2026-03-30T13:11:55.001Z</time></trkpt><trkpt lat="42.4402531666036" lon="-8.055491303857988"><ele>446.0</ele><time>2026-03-30T13:11:56.001Z</time></trkpt><trkpt lat="42.440247237309805" lon="-8.055613405568563"><ele>445.6666666666667</ele><time>2026-03-30T13:11:57.001Z</time></trkpt><trkpt lat="42.44023767037466" lon="-8.055710311986914"><ele>445.33333333333337</ele><time>2026-03-30T13:11:58Z</time></trkpt><trkpt lat="42.44029179088867" lon="-8.055764405107919"><ele>445.0</ele><time>2026-03-30T13:11:59Z</time></trkpt><trkpt lat="42.4404250773921" lon="-8.055783191777644"><ele>447.0</ele><time>2026-03-30T13:12:00Z</time></trkpt><trkpt lat="42.440484841377014" lon="-8.05584505744053"><ele>449.0</ele><time>2026-03-30T13:12:01Z</time></trkpt><trkpt lat="42.440580417138605" lon="-8.055852211900683"><ele>451.0</ele><time>2026-03-30T13:12:02Z</time></trkpt><trkpt lat="42.440645026526965" lon="-8.05586633212249"><ele>453.0</ele><time>2026-03-30T13:12:03Z</time></trkpt><trkpt lat="42.44070486935334" lon="-8.055936906785314"><ele>455.0</ele><time>2026-03-30T13:12:19Z</time></trkpt><trkpt lat="42.44081160535806" lon="-8.05605919287668"><ele>455.0</ele><time>2026-03-30T13:12:21Z</time></trkpt><trkpt lat="42.440882237984304" lon="-8.056147125047119"><ele>455.0</ele><time>2026-03-30T13:12:22Z</time></trkpt><trkpt lat="42.44094509768451" lon="-8.056243236981517"><ele>455.0</ele><time>2026-03-30T13:12:23Z</time></trkpt><trkpt lat="42.441019071228894" lon="-8.056323414317061"><ele>455.0</ele><time>2026-03-30T13:12:24Z</time></trkpt><trkpt lat="42.44109023896947" lon="-8.056407705293589"><ele>455.0</ele><time>2026-03-30T13:12:25Z</time></trkpt><trkpt lat="42.4411759121339" lon="-8.056481946207747"><ele>455.0</ele><time>2026-03-30T13:12:26Z</time></trkpt><trkpt lat="42.44128101351678" lon="-8.0565372933256"><ele>455.0</ele><time>2026-03-30T13:12:27Z</time></trkpt><trkpt lat="42.44136346221866" lon="-8.05662704510256"><ele>455.0</ele><time>2026-03-30T13:12:28Z</time></trkpt><trkpt lat="42.44145313862566" lon="-8.056671233684929"><ele>455.0</ele><time>2026-03-30T13:12:29Z</time></trkpt><trkpt lat="42.441534942955656" lon="-8.056758100421387"><ele>455.0</ele><time>2026-03-30T13:12:30Z</time></trkpt><trkpt lat="42.44160863279143" lon="-8.05680474361258"><ele>454.8</ele><time>2026-03-30T13:12:31Z</time></trkpt><trkpt lat="42.44167142340344" lon="-8.056865908510943"><ele>454.6</ele><time>2026-03-30T13:12:32Z</time></trkpt><trkpt lat="42.4417502780771" lon="-8.056915257762482"><ele>454.4</ele><time>2026-03-30T13:12:34Z</time></trkpt><trkpt lat="42.441811739671486" lon="-8.056967377605119"><ele>454.2</ele><time>2026-03-30T13:12:40Z</time></trkpt><trkpt lat="42.44180227794842" lon="-8.057170017362326"><ele>454.0</ele><time>2026-03-30T13:12:43Z</time></trkpt><trkpt lat="42.44173048888224" lon="-8.057265130175669"><ele>454.0</ele><time>2026-03-30T13:12:44Z</time></trkpt><trkpt lat="42.44167074058523" lon="-8.057373088280352"><ele>454.0</ele><time>2026-03-30T13:12:45Z</time></trkpt><trkpt lat="42.44161862336996" lon="-8.057474509970845"><ele>454.0</ele><time>2026-03-30T13:12:46Z</time></trkpt><trkpt lat="42.44156397022146" lon="-8.057583979679238"><ele>454.0</ele><time>2026-03-30T13:12:47Z</time></trkpt><trkpt lat="42.44151132386506" lon="-8.057685254367165"><ele>454.0</ele><time>2026-03-30T13:12:48Z</time></trkpt><trkpt lat="42.441455653387465" lon="-8.0577886037675"><ele>453.50000000000006</ele><time>2026-03-30T13:12:49Z</time></trkpt><trkpt lat="42.44140312319332" lon="-8.057892883603898"><ele>453.0</ele><time>2026-03-30T13:12:50Z</time></trkpt><trkpt lat="42.44135240099154" lon="-8.057993864419236"><ele>452.5</ele><time>2026-03-30T13:12:51Z</time></trkpt><trkpt lat="42.44129735926196" lon="-8.058087886256638"><ele>452.0</ele><time>2026-03-30T13:12:52Z</time></trkpt><trkpt lat="42.4412567302964" lon="-8.058183827935899"><ele>451.50000000000006</ele><time>2026-03-30T13:12:53Z</time></trkpt><trkpt lat="42.441212290969865" lon="-8.05826844164479"><ele>451.0</ele><time>2026-03-30T13:12:54Z</time></trkpt><trkpt lat="42.44116994340518" lon="-8.058350277941718"><ele>450.0</ele><time>2026-03-30T13:12:55Z</time></trkpt><trkpt lat="42.44110011306999" lon="-8.058485701231913"><ele>449.0</ele><time>2026-03-30T13:12:57Z</time></trkpt><trkpt lat="42.44105328739879" lon="-8.05857806862899"><ele>448.0</ele><time>2026-03-30T13:12:58Z</time></trkpt><trkpt lat="42.44099244828885" lon="-8.058694776029235"><ele>447.0</ele><time>2026-03-30T13:12:58.999Z</time></trkpt><trkpt lat="42.44092604693382" lon="-8.058823265525527"><ele>446.0</ele><time>2026-03-30T13:12:59.999Z</time></trkpt><trkpt lat="42.440857363160795" lon="-8.0589522960406"><ele>446.0</ele><time>2026-03-30T13:13:00.999Z</time></trkpt><trkpt lat="42.440809191818005" lon="-8.059088790099166"><ele>446.0</ele><time>2026-03-30T13:13:01.999Z</time></trkpt><trkpt lat="42.44074096799934" lon="-8.05920343479824"><ele>446.0</ele><time>2026-03-30T13:13:02.999Z</time></trkpt><trkpt lat="42.44068244132407" lon="-8.059318211470742"><ele>446.0</ele><time>2026-03-30T13:13:03.999Z</time></trkpt><trkpt lat="42.440627910776215" lon="-8.059426995982879"><ele>446.0</ele><time>2026-03-30T13:13:04.999Z</time></trkpt><trkpt lat="42.44058380571224" lon="-8.05953472501253"><ele>446.0</ele><time>2026-03-30T13:13:05.999Z</time></trkpt><trkpt lat="42.4405350114982" lon="-8.059640157072371"><ele>446.0</ele><time>2026-03-30T13:13:06.999Z</time></trkpt><trkpt lat="42.44048494210141" lon="-8.059731860467876"><ele>446.0</ele><time>2026-03-30T13:13:07.999Z</time></trkpt><trkpt lat="42.44043180945031" lon="-8.059835157964853"><ele>446.0</ele><time>2026-03-30T13:13:08.999Z</time></trkpt><trkpt lat="42.44037968611298" lon="-8.059938910530898"><ele>446.0</ele><time>2026-03-30T13:13:09.999Z</time></trkpt><trkpt lat="42.44031812716884" lon="-8.060062892051855"><ele>444.5</ele><time>2026-03-30T13:13:10.999Z</time></trkpt><trkpt lat="42.440253732708435" lon="-8.060191243601102"><ele>443.0</ele><time>2026-03-30T13:13:11.999Z</time></trkpt><trkpt lat="42.44018718309617" lon="-8.060327887113287"><ele>441.5</ele><time>2026-03-30T13:13:12.999Z</time></trkpt><trkpt lat="42.440120907264635" lon="-8.060470825230897"><ele>440.0</ele><time>2026-03-30T13:13:13.999Z</time></trkpt><trkpt lat="42.44004948842661" lon="-8.060618867789573"><ele>440.0</ele><time>2026-03-30T13:13:14.999Z</time></trkpt><trkpt lat="42.43997696665718" lon="-8.060761763816206"><ele>440.0</ele><time>2026-03-30T13:13:15.999Z</time></trkpt><trkpt lat="42.43990940799686" lon="-8.060905026341167"><ele>440.0</ele><time>2026-03-30T13:13:16.999Z</time></trkpt><trkpt lat="42.439843415398386" lon="-8.061032297696359"><ele>440.0</ele><time>2026-03-30T13:13:17.999Z</time></trkpt><trkpt lat="42.439777903436315" lon="-8.06116144118527"><ele>439.5</ele><time>2026-03-30T13:13:18.999Z</time></trkpt><trkpt lat="42.4397150752758" lon="-8.061284300052927"><ele>439.0</ele><time>2026-03-30T13:13:19.999Z</time></trkpt><trkpt lat="42.439670508420214" lon="-8.061417865785302"><ele>438.5</ele><time>2026-03-30T13:13:20.999Z</time></trkpt><trkpt lat="42.43960534986077" lon="-8.061539125998683"><ele>438.0</ele><time>2026-03-30T13:13:21.999Z</time></trkpt><trkpt lat="42.439531910289816" lon="-8.06167613652665"><ele>437.25</ele><time>2026-03-30T13:13:22.999Z</time></trkpt><trkpt lat="42.43945906513332" lon="-8.06181691879603"><ele>436.5</ele><time>2026-03-30T13:13:23.999Z</time></trkpt><trkpt lat="42.43939298329324" lon="-8.06195133082101"><ele>435.75</ele><time>2026-03-30T13:13:24.999Z</time></trkpt><trkpt lat="42.43933099340035" lon="-8.062078146195237"><ele>435.0</ele><time>2026-03-30T13:13:25.999Z</time></trkpt><trkpt lat="42.439266769709135" lon="-8.062194991671348"><ele>435.0</ele><time>2026-03-30T13:13:26.999Z</time></trkpt><trkpt lat="42.43920382352963" lon="-8.062320374922392"><ele>435.0</ele><time>2026-03-30T13:13:27.999Z</time></trkpt><trkpt lat="42.439144505791624" lon="-8.062435051217815"><ele>435.0</ele><time>2026-03-30T13:13:28.999Z</time></trkpt><trkpt lat="42.439070928846526" lon="-8.062582187466804"><ele>435.0</ele><time>2026-03-30T13:13:29.999Z</time></trkpt><trkpt lat="42.43899051089646" lon="-8.062741996250402"><ele>435.0</ele><time>2026-03-30T13:13:30.999Z</time></trkpt><trkpt lat="42.43890884861143" lon="-8.062908913635711"><ele>435.0</ele><time>2026-03-30T13:13:31.999Z</time></trkpt><trkpt lat="42.438827734096776" lon="-8.06307378565014"><ele>435.0</ele><time>2026-03-30T13:13:32.999Z</time></trkpt><trkpt lat="42.438749223301535" lon="-8.063235103562532"><ele>435.0</ele><time>2026-03-30T13:13:33.999Z</time></trkpt><trkpt lat="42.43867293203632" lon="-8.063395864615167"><ele>433.75</ele><time>2026-03-30T13:13:34.999Z</time></trkpt><trkpt lat="42.43859802115327" lon="-8.063545702074995"><ele>432.5</ele><time>2026-03-30T13:13:35.999Z</time></trkpt><trkpt lat="42.43851972707622" lon="-8.063711955647163"><ele>431.25</ele><time>2026-03-30T13:13:36.999Z</time></trkpt><trkpt lat="42.4384373375016" lon="-8.063876384832243"><ele>430.0</ele><time>2026-03-30T13:13:37.999Z</time></trkpt><trkpt lat="42.4383527815443" lon="-8.064042993587892"><ele>429.5</ele><time>2026-03-30T13:13:38.999Z</time></trkpt><trkpt lat="42.43827248870669" lon="-8.064201228278263"><ele>429.0</ele><time>2026-03-30T13:13:39.999Z</time></trkpt><trkpt lat="42.43819538840904" lon="-8.064350901467428"><ele>428.5</ele><time>2026-03-30T13:13:40.999Z</time></trkpt><trkpt lat="42.43812115898167" lon="-8.064501349654478"><ele>428.0</ele><time>2026-03-30T13:13:41.999Z</time></trkpt><trkpt lat="42.43805488744753" lon="-8.064643086791817"><ele>428.0</ele><time>2026-03-30T13:13:42.999Z</time></trkpt><trkpt lat="42.437982570814626" lon="-8.064773512919498"><ele>428.0</ele><time>2026-03-30T13:13:43.999Z</time></trkpt><trkpt lat="42.4379184519828" lon="-8.064913652402694"><ele>428.0</ele><time>2026-03-30T13:13:44.999Z</time></trkpt><trkpt lat="42.43785570850115" lon="-8.065042883928855"><ele>428.0</ele><time>2026-03-30T13:13:45.999Z</time></trkpt><trkpt lat="42.43779122032574" lon="-8.065170296784263"><ele>426.79999999999995</ele><time>2026-03-30T13:13:46.999Z</time></trkpt><trkpt lat="42.437727657298794" lon="-8.065288318705232"><ele>425.59999999999997</ele><time>2026-03-30T13:13:47.999Z</time></trkpt><trkpt lat="42.43766824381109" lon="-8.065412214516371"><ele>424.4</ele><time>2026-03-30T13:13:48.999Z</time></trkpt><trkpt lat="42.4375917194603" lon="-8.065511947336558"><ele>423.20000000000005</ele><time>2026-03-30T13:13:49.999Z</time></trkpt><trkpt lat="42.437546124116466" lon="-8.065635323136403"><ele>422.0</ele><time>2026-03-30T13:13:50.999Z</time></trkpt><trkpt lat="42.437493729720416" lon="-8.065729615104841"><ele>421.8</ele><time>2026-03-30T13:13:51.999Z</time></trkpt><trkpt lat="42.437438229257474" lon="-8.065846580927298"><ele>421.6</ele><time>2026-03-30T13:13:52.999Z</time></trkpt><trkpt lat="42.437379634088046" lon="-8.065960239114219"><ele>421.40000000000003</ele><time>2026-03-30T13:13:53.999Z</time></trkpt><trkpt lat="42.43731946176838" lon="-8.066079721451382"><ele>421.20000000000005</ele><time>2026-03-30T13:13:54.999Z</time></trkpt><trkpt lat="42.4372531770349" lon="-8.06621598604123"><ele>421.0</ele><time>2026-03-30T13:13:55.999Z</time></trkpt><trkpt lat="42.437195510050486" lon="-8.066381724134612"><ele>421.0</ele><time>2026-03-30T13:13:56.999Z</time></trkpt><trkpt lat="42.43715090887963" lon="-8.066541607252168"><ele>421.0</ele><time>2026-03-30T13:13:57.999Z</time></trkpt><trkpt lat="42.437108312525574" lon="-8.066725585050017"><ele>421.0</ele><time>2026-03-30T13:13:58.999Z</time></trkpt><trkpt lat="42.43706986534619" lon="-8.066909709918146"><ele>421.0</ele><time>2026-03-30T13:13:59.999Z</time></trkpt><trkpt lat="42.43702728907059" lon="-8.06710472049296"><ele>419.33333333333337</ele><time>2026-03-30T13:14:00.999Z</time></trkpt><trkpt lat="42.43699074240961" lon="-8.067324640993476"><ele>417.66666666666663</ele><time>2026-03-30T13:14:01.999Z</time></trkpt><trkpt lat="42.4369696036029" lon="-8.067570714609417"><ele>416.0</ele><time>2026-03-30T13:14:03Z</time></trkpt><trkpt lat="42.4369166792205" lon="-8.067784833303962"><ele>415.0</ele><time>2026-03-30T13:14:04Z</time></trkpt><trkpt lat="42.43686446185814" lon="-8.068015756687293"><ele>414.0</ele><time>2026-03-30T13:14:05Z</time></trkpt><trkpt lat="42.43681646000973" lon="-8.068251441876363"><ele>413.0</ele><time>2026-03-30T13:14:06Z</time></trkpt><trkpt lat="42.43677468083403" lon="-8.068489193726254"><ele>413.0</ele><time>2026-03-30T13:14:07Z</time></trkpt><trkpt lat="42.43672803491623" lon="-8.06873129691024"><ele>413.0</ele><time>2026-03-30T13:14:08Z</time></trkpt><trkpt lat="42.436673255922244" lon="-8.06897912446755"><ele>413.0</ele><time>2026-03-30T13:14:09Z</time></trkpt><trkpt lat="42.436621547808016" lon="-8.069237103318375"><ele>413.3333333333333</ele><time>2026-03-30T13:14:10Z</time></trkpt><trkpt lat="42.43655086600081" lon="-8.069493036338201"><ele>413.66666666666663</ele><time>2026-03-30T13:14:11Z</time></trkpt><trkpt lat="42.436463569473005" lon="-8.069749663489294"><ele>414.0</ele><time>2026-03-30T13:14:12Z</time></trkpt><trkpt lat="42.436349108428495" lon="-8.069995922877258"><ele>413.33333333333337</ele><time>2026-03-30T13:14:13Z</time></trkpt><trkpt lat="42.43623207053647" lon="-8.070247740329199"><ele>412.6666666666667</ele><time>2026-03-30T13:14:14Z</time></trkpt><trkpt lat="42.43612670880932" lon="-8.070517685478498"><ele>412.0</ele><time>2026-03-30T13:14:15Z</time></trkpt><trkpt lat="42.43602144648299" lon="-8.070788884286266"><ele>412.0</ele><time>2026-03-30T13:14:16Z</time></trkpt><trkpt lat="42.4359075581979" lon="-8.071060283090643"><ele>412.0</ele><time>2026-03-30T13:14:17Z</time></trkpt><trkpt lat="42.435796799993646" lon="-8.07132110488125"><ele>412.0</ele><time>2026-03-30T13:14:18Z</time></trkpt><trkpt lat="42.435691106971625" lon="-8.071557061630594"><ele>412.0</ele><time>2026-03-30T13:14:19Z</time></trkpt><trkpt lat="42.435594255986594" lon="-8.071778114284166"><ele>412.0</ele><time>2026-03-30T13:14:20Z</time></trkpt><trkpt lat="42.43550274665266" lon="-8.071985108900414"><ele>412.0</ele><time>2026-03-30T13:14:21Z</time></trkpt><trkpt lat="42.43542925680712" lon="-8.07216821457568"><ele>412.0</ele><time>2026-03-30T13:14:22Z</time></trkpt><trkpt lat="42.43537413709501" lon="-8.072332110026736"><ele>412.0</ele><time>2026-03-30T13:14:22.999Z</time></trkpt><trkpt lat="42.43530834671557" lon="-8.07249067446181"><ele>412.0</ele><time>2026-03-30T13:14:23.999Z</time></trkpt><trkpt lat="42.43524859764226" lon="-8.072634678427585"><ele>412.0</ele><time>2026-03-30T13:14:24.999Z</time></trkpt><trkpt lat="42.43518948461434" lon="-8.072776283610965"><ele>412.0</ele><time>2026-03-30T13:14:25.999Z</time></trkpt><trkpt lat="42.43513478093451" lon="-8.072907346288913"><ele>412.0</ele><time>2026-03-30T13:14:26.999Z</time></trkpt><trkpt lat="42.43506844994758" lon="-8.073022513861716"><ele>412.0</ele><time>2026-03-30T13:14:27.999Z</time></trkpt><trkpt lat="42.43502258256355" lon="-8.0731493530081"><ele>412.0</ele><time>2026-03-30T13:14:28.999Z</time></trkpt><trkpt lat="42.4349768881711" lon="-8.073275319797876"><ele>412.6</ele><time>2026-03-30T13:14:29.999Z</time></trkpt><trkpt lat="42.434928272204445" lon="-8.07339429888958"><ele>413.20000000000005</ele><time>2026-03-30T13:14:30.999Z</time></trkpt><trkpt lat="42.4348770625788" lon="-8.073517441192603"><ele>413.8</ele><time>2026-03-30T13:14:31.999Z</time></trkpt><trkpt lat="42.43483901206658" lon="-8.073648030873121"><ele>414.4</ele><time>2026-03-30T13:14:32.999Z</time></trkpt><trkpt lat="42.43477284304928" lon="-8.073750163577795"><ele>415.0</ele><time>2026-03-30T13:14:33.999Z</time></trkpt><trkpt lat="42.43472648265819" lon="-8.073854727633224"><ele>415.0</ele><time>2026-03-30T13:14:34.999Z</time></trkpt><trkpt lat="42.43469786170893" lon="-8.073961470897181"><ele>415.0</ele><time>2026-03-30T13:14:35.999Z</time></trkpt><trkpt lat="42.43465529179038" lon="-8.074075078941496"><ele>415.0</ele><time>2026-03-30T13:14:36.999Z</time></trkpt><trkpt lat="42.434588203982685" lon="-8.074196247677898"><ele>415.0</ele><time>2026-03-30T13:14:37.999Z</time></trkpt><trkpt lat="42.43452549983808" lon="-8.074321851396686"><ele>415.0</ele><time>2026-03-30T13:14:38.999Z</time></trkpt><trkpt lat="42.43445732968505" lon="-8.07438970869721"><ele>414.0</ele><time>2026-03-30T13:14:39.999Z</time></trkpt><trkpt lat="42.434390559766484" lon="-8.07451094612498"><ele>413.0</ele><time>2026-03-30T13:14:40.999Z</time></trkpt><trkpt lat="42.43430170671983" lon="-8.07457844798936"><ele>412.0</ele><time>2026-03-30T13:14:41.999Z</time></trkpt><trkpt lat="42.434219169007044" lon="-8.07466018646275"><ele>411.0</ele><time>2026-03-30T13:14:42.999Z</time></trkpt><trkpt lat="42.43414223104744" lon="-8.074739237404096"><ele>410.0</ele><time>2026-03-30T13:14:43.999Z</time></trkpt><trkpt lat="42.43406501471053" lon="-8.07479915828114"><ele>409.99999999999994</ele><time>2026-03-30T13:14:44.999Z</time></trkpt><trkpt lat="42.43399929419753" lon="-8.07484912299108"><ele>410.0</ele><time>2026-03-30T13:14:45.999Z</time></trkpt><trkpt lat="42.43393413924563" lon="-8.074898657698412"><ele>410.0</ele><time>2026-03-30T13:14:46.999Z</time></trkpt><trkpt lat="42.43384791981917" lon="-8.074958848436863"><ele>410.0</ele><time>2026-03-30T13:14:48.999Z</time></trkpt><trkpt lat="42.433776876373784" lon="-8.07501847010939"><ele>409.99999999999994</ele><time>2026-03-30T13:15:47.999Z</time></trkpt><trkpt lat="42.43370649523004" lon="-8.075059389042599"><ele>410.0</ele><time>2026-03-30T13:15:49.999Z</time></trkpt><trkpt lat="42.4335808045296" lon="-8.074884148355132"><ele>409.66666666666663</ele><time>2026-03-30T13:15:50.999Z</time></trkpt><trkpt lat="42.43354350980903" lon="-8.074799930779532"><ele>409.3333333333333</ele><time>2026-03-30T13:15:51.999Z</time></trkpt><trkpt lat="42.433508302662204" lon="-8.074720427295228"><ele>409.0</ele><time>2026-03-30T13:15:53Z</time></trkpt><trkpt lat="42.4334641817617" lon="-8.074620795102522"><ele>408.66666666666663</ele><time>2026-03-30T13:15:54Z</time></trkpt><trkpt lat="42.433417968761354" lon="-8.074516461877957"><ele>408.3333333333333</ele><time>2026-03-30T13:15:55Z</time></trkpt><trkpt lat="42.43336494241966" lon="-8.074397467557914"><ele>408.0</ele><time>2026-03-30T13:15:56Z</time></trkpt><trkpt lat="42.433315007377125" lon="-8.074285410305292"><ele>408.0</ele><time>2026-03-30T13:15:57Z</time></trkpt><trkpt lat="42.43326549722065" lon="-8.074174306524553"><ele>408.0</ele><time>2026-03-30T13:15:58Z</time></trkpt><trkpt lat="42.43321710918362" lon="-8.074065720847244"><ele>408.0</ele><time>2026-03-30T13:15:59Z</time></trkpt><trkpt lat="42.433169521368285" lon="-8.073958930916202"><ele>408.0</ele><time>2026-03-30T13:16:00Z</time></trkpt><trkpt lat="42.43312509597157" lon="-8.073859237643516"><ele>408.0</ele><time>2026-03-30T13:16:01Z</time></trkpt><trkpt lat="42.43307742954903" lon="-8.07375227130929"><ele>407.1666666666667</ele><time>2026-03-30T13:16:02Z</time></trkpt><trkpt lat="42.43303298520659" lon="-8.073652535522376"><ele>406.33333333333337</ele><time>2026-03-30T13:16:03Z</time></trkpt><trkpt lat="42.43299122313469" lon="-8.073537002178101"><ele>405.5</ele><time>2026-03-30T13:16:04Z</time></trkpt><trkpt lat="42.43294741785483" lon="-8.073445292161008"><ele>404.6666666666667</ele><time>2026-03-30T13:16:05Z</time></trkpt><trkpt lat="42.432908711736545" lon="-8.07337546769022"><ele>403.83333333333337</ele><time>2026-03-30T13:16:06Z</time></trkpt><trkpt lat="42.43283617535187" lon="-8.073256467450967"><ele>403.0</ele><time>2026-03-30T13:16:08Z</time></trkpt><trkpt lat="42.432772299771926" lon="-8.07323627029594"><ele>402.79999999999995</ele><time>2026-03-30T13:16:09Z</time></trkpt><trkpt lat="42.43266435951212" lon="-8.073316972164267"><ele>402.6</ele><time>2026-03-30T13:16:11Z</time></trkpt><trkpt lat="42.43254412025455" lon="-8.073392014605595"><ele>402.4</ele><time>2026-03-30T13:16:13Z</time></trkpt><trkpt lat="42.43248671651547" lon="-8.073439989546305"><ele>402.20000000000005</ele><time>2026-03-30T13:16:14Z</time></trkpt><trkpt lat="42.432403142342665" lon="-8.073500475160653"><ele>402.0</ele><time>2026-03-30T13:16:16Z</time></trkpt><trkpt lat="42.432307141751735" lon="-8.073577070252023"><ele>402.0</ele><time>2026-03-30T13:16:18Z</time></trkpt><trkpt lat="42.43225587746352" lon="-8.073631399970473"><ele>402.0</ele><time>2026-03-30T13:16:19Z</time></trkpt><trkpt lat="42.43220194439575" lon="-8.073676120956177"><ele>402.0</ele><time>2026-03-30T13:16:20Z</time></trkpt><trkpt lat="42.432137381668205" lon="-8.073712038229761"><ele>402.0</ele><time>2026-03-30T13:16:21Z</time></trkpt><trkpt lat="42.43205557343379" lon="-8.073773972979659"><ele>402.0</ele><time>2026-03-30T13:16:22Z</time></trkpt><trkpt lat="42.431981216527156" lon="-8.07385669819456"><ele>402.0</ele><time>2026-03-30T13:16:23Z</time></trkpt><trkpt lat="42.43188194279109" lon="-8.07393763597901"><ele>402.0</ele><time>2026-03-30T13:16:24Z</time></trkpt><trkpt lat="42.4317981284821" lon="-8.074009151699668"><ele>402.0</ele><time>2026-03-30T13:16:25Z</time></trkpt><trkpt lat="42.43172333803536" lon="-8.0740745887561"><ele>402.0</ele><time>2026-03-30T13:16:26Z</time></trkpt><trkpt lat="42.431659269254354" lon="-8.074130645012813"><ele>402.0</ele><time>2026-03-30T13:16:27Z</time></trkpt><trkpt lat="42.431570113554265" lon="-8.074204843818405"><ele>402.0</ele><time>2026-03-30T13:16:29Z</time></trkpt><trkpt lat="42.4314933839854" lon="-8.07423978334182"><ele>402.0</ele><time>2026-03-30T13:16:31Z</time></trkpt><trkpt lat="42.43139156306816" lon="-8.074330233616257"><ele>402.0</ele><time>2026-03-30T13:16:33Z</time></trkpt><trkpt lat="42.43131908832532" lon="-8.074377354205623"><ele>402.0</ele><time>2026-03-30T13:16:34Z</time></trkpt><trkpt lat="42.43124575812677" lon="-8.074428926733916"><ele>402.0</ele><time>2026-03-30T13:16:35Z</time></trkpt><trkpt lat="42.43117122026474" lon="-8.074497281004854"><ele>402.0</ele><time>2026-03-30T13:16:36Z</time></trkpt><trkpt lat="42.43110014011266" lon="-8.074520542208976"><ele>402.0</ele><time>2026-03-30T13:16:37Z</time></trkpt><trkpt lat="42.431029725310665" lon="-8.074562295289857"><ele>401.8333333333333</ele><time>2026-03-30T13:16:38Z</time></trkpt><trkpt lat="42.43095314495511" lon="-8.074593842815146"><ele>401.66666666666663</ele><time>2026-03-30T13:16:39Z</time></trkpt><trkpt lat="42.430885613632206" lon="-8.074630688891354"><ele>401.5</ele><time>2026-03-30T13:16:40Z</time></trkpt><trkpt lat="42.43081884114123" lon="-8.074657024173087"><ele>401.3333333333333</ele><time>2026-03-30T13:16:41Z</time></trkpt><trkpt lat="42.43070885502535" lon="-8.074701645828867"><ele>401.16666666666663</ele><time>2026-03-30T13:16:43Z</time></trkpt><trkpt lat="42.43064481506515" lon="-8.07474384259962"><ele>401.0</ele><time>2026-03-30T13:16:44Z</time></trkpt><trkpt lat="42.43054222051642" lon="-8.074765607556776"><ele>401.6</ele><time>2026-03-30T13:16:46Z</time></trkpt><trkpt lat="42.430570279460106" lon="-8.074975064123104"><ele>402.20000000000005</ele><time>2026-03-30T13:16:49Z</time></trkpt><trkpt lat="42.43059058655667" lon="-8.075073041988798"><ele>402.79999999999995</ele><time>2026-03-30T13:16:50Z</time></trkpt><trkpt lat="42.4306172210692" lon="-8.075157120475579"><ele>403.4</ele><time>2026-03-30T13:16:51Z</time></trkpt><trkpt lat="42.430640768649006" lon="-8.07528461931616"><ele>404.0</ele><time>2026-03-30T13:16:53Z</time></trkpt><trkpt lat="42.43053259255192" lon="-8.075345452392476"><ele>403.3333333333333</ele><time>2026-03-30T13:16:55.999Z</time></trkpt><trkpt lat="42.43046249813167" lon="-8.075360639514"><ele>402.66666666666663</ele><time>2026-03-30T13:16:56.999Z</time></trkpt><trkpt lat="42.430372487815994" lon="-8.075378597021944"><ele>402.0</ele><time>2026-03-30T13:16:57.999Z</time></trkpt><trkpt lat="42.43029264479354" lon="-8.07539415429814"><ele>401.33333333333337</ele><time>2026-03-30T13:16:59.999Z</time></trkpt><trkpt lat="42.43022896118995" lon="-8.075411944077896"><ele>400.6666666666667</ele><time>2026-03-30T13:17:01.999Z</time></trkpt><trkpt lat="42.430184305350835" lon="-8.07533959442051"><ele>400.0</ele><time>2026-03-30T13:17:02.999Z</time></trkpt><trkpt lat="42.43015782978204" lon="-8.075188825394081"><ele>400.0</ele><time>2026-03-30T13:17:04.999Z</time></trkpt><trkpt lat="42.43014299312608" lon="-8.07510433587717"><ele>400.0</ele><time>2026-03-30T13:17:05.999Z</time></trkpt><trkpt lat="42.43011858073558" lon="-8.074965315924791"><ele>400.0</ele><time>2026-03-30T13:17:07.999Z</time></trkpt><trkpt lat="42.430219985861335" lon="-8.07488915650088"><ele>397.0</ele><time>2026-03-30T13:17:09.999Z</time></trkpt><trkpt lat="42.430284119621454" lon="-8.074886889142757"><ele>397.0</ele><time>2026-03-30T13:17:11.999Z</time></trkpt><trkpt lat="42.43036517075267" lon="-8.074845237279737"><ele>397.0</ele><time>2026-03-30T13:17:14.999Z</time></trkpt></trkseg><trkseg><trkpt lat="42.43021169297977" lon="-8.074979460594935"><ele>400.00000000000006</ele><time>2026-03-30T13:27:55.999Z</time></trkpt><trkpt lat="42.430299840696016" lon="-8.074970476043173"><ele>400.0</ele><time>2026-03-30T13:28:02.999Z</time></trkpt><trkpt lat="42.430390170446884" lon="-8.07497930075762"><ele>400.0</ele><time>2026-03-30T13:28:03.999Z</time></trkpt><trkpt lat="42.430447953992726" lon="-8.074939352371732"><ele>400.0</ele><time>2026-03-30T13:28:04.999Z</time></trkpt><trkpt lat="42.430473938792744" lon="-8.074828704400586"><ele>400.00000000000006</ele><time>2026-03-30T13:28:06.999Z</time></trkpt><trkpt lat="42.430412387755524" lon="-8.074728924606868"><ele>400.0</ele><time>2026-03-30T13:28:07.999Z</time></trkpt><trkpt lat="42.43031506023066" lon="-8.074612564101468"><ele>399.25</ele><time>2026-03-30T13:28:08.999Z</time></trkpt><trkpt lat="42.43023724839659" lon="-8.074459173561005"><ele>398.5</ele><time>2026-03-30T13:28:09.999Z</time></trkpt><trkpt lat="42.430157998205914" lon="-8.074356383081826"><ele>397.75</ele><time>2026-03-30T13:28:10.999Z</time></trkpt><trkpt lat="42.430048886216916" lon="-8.074226686144517"><ele>397.0</ele><time>2026-03-30T13:28:11.999Z</time></trkpt><trkpt lat="42.430336272339794" lon="-8.074234204685625"><ele>397.0</ele><time>2026-03-30T13:28:12.999Z</time></trkpt><trkpt lat="42.43032848434956" lon="-8.074121816864352"><ele>397.0</ele><time>2026-03-30T13:28:13.999Z</time></trkpt><trkpt lat="42.43031048727222" lon="-8.074007944479462"><ele>397.0</ele><time>2026-03-30T13:28:14.999Z</time></trkpt><trkpt lat="42.430292260973395" lon="-8.073913429680251"><ele>397.0</ele><time>2026-03-30T13:28:15.999Z</time></trkpt><trkpt lat="42.430287806855" lon="-8.073811472931423"><ele>397.0</ele><time>2026-03-30T13:28:16.999Z</time></trkpt><trkpt lat="42.43043084057936" lon="-8.073624106113312"><ele>397.0</ele><time>2026-03-30T13:28:18.999Z</time></trkpt><trkpt lat="42.43048031588957" lon="-8.073512645571515"><ele>397.0</ele><time>2026-03-30T13:28:19.999Z</time></trkpt><trkpt lat="42.43055152372565" lon="-8.073428623332191"><ele>397.0</ele><time>2026-03-30T13:28:20.999Z</time></trkpt><trkpt lat="42.430612013852546" lon="-8.073319946442494"><ele>397.0</ele><time>2026-03-30T13:28:21.999Z</time></trkpt><trkpt lat="42.43068497011135" lon="-8.07320699343226"><ele>397.0</ele><time>2026-03-30T13:28:22.999Z</time></trkpt><trkpt lat="42.43075198764034" lon="-8.07309562461825"><ele>396.20000000000005</ele><time>2026-03-30T13:28:23.999Z</time></trkpt><trkpt lat="42.4308101758646" lon="-8.072989078156924"><ele>395.4</ele><time>2026-03-30T13:28:24.999Z</time></trkpt><trkpt lat="42.43087482154924" lon="-8.072891017505706"><ele>394.6</ele><time>2026-03-30T13:28:25.999Z</time></trkpt><trkpt lat="42.43094297530611" lon="-8.072783378856933"><ele>393.79999999999995</ele><time>2026-03-30T13:28:26.999Z</time></trkpt><trkpt lat="42.431012560067245" lon="-8.072686641362226"><ele>393.0</ele><time>2026-03-30T13:28:27.999Z</time></trkpt><trkpt lat="42.43108046754628" lon="-8.072579719500707"><ele>393.0</ele><time>2026-03-30T13:28:29Z</time></trkpt><trkpt lat="42.43114906151593" lon="-8.072482005220644"><ele>393.0</ele><time>2026-03-30T13:28:30Z</time></trkpt><trkpt lat="42.43121496584093" lon="-8.072365737120059"><ele>393.0</ele><time>2026-03-30T13:28:31Z</time></trkpt><trkpt lat="42.431286664623784" lon="-8.072250443559252"><ele>393.0</ele><time>2026-03-30T13:28:32Z</time></trkpt><trkpt lat="42.431346664961595" lon="-8.072160848605968"><ele>393.0</ele><time>2026-03-30T13:28:33Z</time></trkpt><trkpt lat="42.43140732871459" lon="-8.072061532560726"><ele>393.3333333333333</ele><time>2026-03-30T13:28:34Z</time></trkpt><trkpt lat="42.431462625936376" lon="-8.071980387279421"><ele>393.66666666666663</ele><time>2026-03-30T13:28:35Z</time></trkpt><trkpt lat="42.431517526151346" lon="-8.071877121398035"><ele>394.0</ele><time>2026-03-30T13:28:36Z</time></trkpt><trkpt lat="42.43156743496878" lon="-8.071780609501353"><ele>394.3333333333333</ele><time>2026-03-30T13:28:37Z</time></trkpt><trkpt lat="42.43162546966386" lon="-8.071692219521397"><ele>394.66666666666663</ele><time>2026-03-30T13:28:38Z</time></trkpt><trkpt lat="42.43168098739932" lon="-8.07160315642469"><ele>395.0</ele><time>2026-03-30T13:28:39Z</time></trkpt><trkpt lat="42.43174108871374" lon="-8.071516069747275"><ele>396.0</ele><time>2026-03-30T13:28:40Z</time></trkpt><trkpt lat="42.43178582227447" lon="-8.071436807212429"><ele>396.0</ele><time>2026-03-30T13:28:41Z</time></trkpt><trkpt lat="42.43185225261246" lon="-8.071335808081159"><ele>396.0</ele><time>2026-03-30T13:28:43Z</time></trkpt></trkseg><trkseg><trkpt lat="42.43195072579176" lon="-8.071341622636721"><ele>396.0</ele><time>2026-03-30T14:00:17.995Z</time></trkpt><trkpt lat="42.43201550283072" lon="-8.071383015278771"><ele>396.0</ele><time>2026-03-30T14:00:19.996Z</time></trkpt><trkpt lat="42.43206401742885" lon="-8.071497104755744"><ele>396.0</ele><time>2026-03-30T14:00:21.996Z</time></trkpt><trkpt lat="42.4321421609017" lon="-8.07161933348152"><ele>396.0</ele><time>2026-03-30T14:00:23.997Z</time></trkpt><trkpt lat="42.43222543945946" lon="-8.071762213659685"><ele>396.0</ele><time>2026-03-30T14:00:25.997Z</time></trkpt><trkpt lat="42.43229333040023" lon="-8.071913974875006"><ele>396.3333333333333</ele><time>2026-03-30T14:00:26.997Z</time></trkpt><trkpt lat="42.432345263761995" lon="-8.072011753509848"><ele>396.66666666666663</ele><time>2026-03-30T14:00:27.998Z</time></trkpt><trkpt lat="42.43239603096798" lon="-8.07210878173805"><ele>397.0</ele><time>2026-03-30T14:00:28.998Z</time></trkpt><trkpt lat="42.43244678965034" lon="-8.072211442011868"><ele>397.3333333333333</ele><time>2026-03-30T14:00:29.998Z</time></trkpt><trkpt lat="42.43249094027478" lon="-8.072322762151947"><ele>397.66666666666663</ele><time>2026-03-30T14:00:30.998Z</time></trkpt><trkpt lat="42.432535826110026" lon="-8.07242464877608"><ele>398.0</ele><time>2026-03-30T14:00:31.998Z</time></trkpt><trkpt lat="42.432581254233575" lon="-8.072522876354705"><ele>398.3333333333333</ele><time>2026-03-30T14:00:32.998Z</time></trkpt><trkpt lat="42.43262449755876" lon="-8.072628364450898"><ele>398.66666666666663</ele><time>2026-03-30T14:00:33.998Z</time></trkpt><trkpt lat="42.43266291133724" lon="-8.072728750192107"><ele>399.0</ele><time>2026-03-30T14:00:34.998Z</time></trkpt><trkpt lat="42.43270418351615" lon="-8.072822979820309"><ele>399.33333333333337</ele><time>2026-03-30T14:00:35.999Z</time></trkpt><trkpt lat="42.43275672777048" lon="-8.072939587266063"><ele>399.6666666666667</ele><time>2026-03-30T14:00:37.999Z</time></trkpt><trkpt lat="42.43279891408849" lon="-8.073026143435797"><ele>400.0</ele><time>2026-03-30T14:00:40.999Z</time></trkpt><trkpt lat="42.43283248390536" lon="-8.073115610786184"><ele>400.00000000000006</ele><time>2026-03-30T14:00:46.999Z</time></trkpt><trkpt lat="42.43283474385223" lon="-8.073215916089461"><ele>400.0</ele><time>2026-03-30T14:00:55Z</time></trkpt><trkpt lat="42.43275306991965" lon="-8.073268635877527"><ele>400.0</ele><time>2026-03-30T14:00:57Z</time></trkpt><trkpt lat="42.432688143651994" lon="-8.073308048157427"><ele>400.0</ele><time>2026-03-30T14:00:58Z</time></trkpt><trkpt lat="42.43262173685668" lon="-8.073340640780199"><ele>400.00000000000006</ele><time>2026-03-30T14:00:59Z</time></trkpt><trkpt lat="42.43255336108295" lon="-8.07337652778676"><ele>400.0</ele><time>2026-03-30T14:01:00Z</time></trkpt><trkpt lat="42.43245871022198" lon="-8.073463212211315"><ele>400.33333333333337</ele><time>2026-03-30T14:01:02Z</time></trkpt><trkpt lat="42.43240291694654" lon="-8.073509475680723"><ele>400.6666666666667</ele><time>2026-03-30T14:01:04Z</time></trkpt><trkpt lat="42.43233988661238" lon="-8.073561740071824"><ele>401.0</ele><time>2026-03-30T14:01:11Z</time></trkpt><trkpt lat="42.4322839120323" lon="-8.073608153870564"><ele>401.33333333333337</ele><time>2026-03-30T14:01:14Z</time></trkpt><trkpt lat="42.432228893970546" lon="-8.073653774534252"><ele>401.6666666666667</ele><time>2026-03-30T14:01:19Z</time></trkpt><trkpt lat="42.432270736892875" lon="-8.073872314958527"><ele>402.0</ele><time>2026-03-30T14:01:22Z</time></trkpt><trkpt lat="42.43234370085002" lon="-8.073977612691358"><ele>402.0</ele><time>2026-03-30T14:01:23Z</time></trkpt><trkpt lat="42.43241547278711" lon="-8.0740748095139"><ele>402.0</ele><time>2026-03-30T14:01:24Z</time></trkpt><trkpt lat="42.432474409618706" lon="-8.074152603120325"><ele>402.0</ele><time>2026-03-30T14:01:25Z</time></trkpt><trkpt lat="42.432548896952916" lon="-8.074251984885889"><ele>402.0</ele><time>2026-03-30T14:01:26Z</time></trkpt><trkpt lat="42.43260951376447" lon="-8.07433275123051"><ele>402.0</ele><time>2026-03-30T14:01:27Z</time></trkpt><trkpt lat="42.432666961962006" lon="-8.07441111433618"><ele>402.8</ele><time>2026-03-30T14:01:28Z</time></trkpt><trkpt lat="42.432718779103645" lon="-8.074470833701724"><ele>403.6</ele><time>2026-03-30T14:01:29Z</time></trkpt><trkpt lat="42.43261937239216" lon="-8.074638680462247"><ele>404.40000000000003</ele><time>2026-03-30T14:01:33Z</time></trkpt><trkpt lat="42.43254804665464" lon="-8.07472881499151"><ele>405.20000000000005</ele><time>2026-03-30T14:01:34Z</time></trkpt><trkpt lat="42.43248167516335" lon="-8.074835772331694"><ele>406.0</ele><time>2026-03-30T14:01:35Z</time></trkpt><trkpt lat="42.43240870996377" lon="-8.074944138755868"><ele>406.00000000000006</ele><time>2026-03-30T14:01:36Z</time></trkpt><trkpt lat="42.432332112956885" lon="-8.075040444409701"><ele>406.0</ele><time>2026-03-30T14:01:37Z</time></trkpt><trkpt lat="42.43226992081827" lon="-8.07511308981463"><ele>406.0</ele><time>2026-03-30T14:01:38Z</time></trkpt><trkpt lat="42.43221387200658" lon="-8.075178559322831"><ele>406.0</ele><time>2026-03-30T14:01:39Z</time></trkpt><trkpt lat="42.43215371545645" lon="-8.07521694249093"><ele>406.00000000000006</ele><time>2026-03-30T14:01:40Z</time></trkpt><trkpt lat="42.43210185945002" lon="-8.075292323700106"><ele>406.0</ele><time>2026-03-30T14:01:41Z</time></trkpt><trkpt lat="42.432058356673004" lon="-8.075377452457678"><ele>406.0</ele><time>2026-03-30T14:01:47Z</time></trkpt><trkpt lat="42.43213328660281" lon="-8.075538997675606"><ele>406.0</ele><time>2026-03-30T14:01:50Z</time></trkpt><trkpt lat="42.43217726912758" lon="-8.075604547053588"><ele>406.0</ele><time>2026-03-30T14:01:51Z</time></trkpt><trkpt lat="42.432219262836526" lon="-8.075720830102835"><ele>406.0</ele><time>2026-03-30T14:01:53Z</time></trkpt><trkpt lat="42.432279784410916" lon="-8.075850247415877"><ele>406.0</ele><time>2026-03-30T14:01:55Z</time></trkpt><trkpt lat="42.432320350454674" lon="-8.075982434999698"><ele>407.00000000000006</ele><time>2026-03-30T14:01:57Z</time></trkpt><trkpt lat="42.4323701396786" lon="-8.076048167550743"><ele>408.0</ele><time>2026-03-30T14:01:59Z</time></trkpt><trkpt lat="42.43240469789812" lon="-8.076168535195137"><ele>409.0</ele><time>2026-03-30T14:02:07Z</time></trkpt><trkpt lat="42.43243873220782" lon="-8.076251991999786"><ele>410.0</ele><time>2026-03-30T14:02:09Z</time></trkpt><trkpt lat="42.43239982806432" lon="-8.076351565581815"><ele>411.00000000000006</ele><time>2026-03-30T14:02:10Z</time></trkpt><trkpt lat="42.43246819647507" lon="-8.076449993151957"><ele>412.0</ele><time>2026-03-30T14:02:11Z</time></trkpt><trkpt lat="42.43253687122743" lon="-8.076577211314676"><ele>412.00000000000006</ele><time>2026-03-30T14:02:13Z</time></trkpt><trkpt lat="42.43254823835773" lon="-8.076669107412775"><ele>412.0</ele><time>2026-03-30T14:02:14Z</time></trkpt><trkpt lat="42.43256526157127" lon="-8.076751244186612"><ele>412.0</ele><time>2026-03-30T14:02:15Z</time></trkpt><trkpt lat="42.43258834787572" lon="-8.076887016862427"><ele>412.0</ele><time>2026-03-30T14:02:17Z</time></trkpt><trkpt lat="42.43259990051213" lon="-8.077022547753664"><ele>412.00000000000006</ele><time>2026-03-30T14:02:19Z</time></trkpt><trkpt lat="42.4326309481959" lon="-8.07714773871351"><ele>412.0</ele><time>2026-03-30T14:02:21Z</time></trkpt><trkpt lat="42.432653187063934" lon="-8.077262320187785"><ele>412.00000000000006</ele><time>2026-03-30T14:02:23Z</time></trkpt><trkpt lat="42.432662164403375" lon="-8.077347494976857"><ele>412.0</ele><time>2026-03-30T14:02:25Z</time></trkpt><trkpt lat="42.432680704745465" lon="-8.077463996327948"><ele>412.0</ele><time>2026-03-30T14:02:27Z</time></trkpt><trkpt lat="42.43269127211034" lon="-8.077550832389724"><ele>412.0</ele><time>2026-03-30T14:02:31Z</time></trkpt><trkpt lat="42.43270401650397" lon="-8.077637769813794"><ele>412.00000000000006</ele><time>2026-03-30T14:02:34Z</time></trkpt><trkpt lat="42.43268853576646" lon="-8.077722211388044"><ele>412.0</ele><time>2026-03-30T14:02:44Z</time></trkpt><trkpt lat="42.432536671523316" lon="-8.077771273366096"><ele>412.0</ele><time>2026-03-30T14:02:47Z</time></trkpt><trkpt lat="42.43246811366336" lon="-8.07776177610093"><ele>412.0</ele><time>2026-03-30T14:02:48Z</time></trkpt><trkpt lat="42.432372887215685" lon="-8.077748293489"><ele>412.0</ele><time>2026-03-30T14:02:49Z</time></trkpt><trkpt lat="42.43227027317684" lon="-8.077744522857257"><ele>412.0</ele><time>2026-03-30T14:02:50Z</time></trkpt><trkpt lat="42.43217095127987" lon="-8.077742362650882"><ele>412.0</ele><time>2026-03-30T14:02:51Z</time></trkpt><trkpt lat="42.43207606277533" lon="-8.07775461710365"><ele>412.00000000000006</ele><time>2026-03-30T14:02:52Z</time></trkpt><trkpt lat="42.43199408800267" lon="-8.07775412239859"><ele>412.0</ele><time>2026-03-30T14:02:53Z</time></trkpt><trkpt lat="42.431902266812024" lon="-8.07775356827238"><ele>412.0</ele><time>2026-03-30T14:02:54Z</time></trkpt><trkpt lat="42.43181755294234" lon="-8.077753057033911"><ele>412.0</ele><time>2026-03-30T14:02:55Z</time></trkpt><trkpt lat="42.431750156526554" lon="-8.077752780696555"><ele>412.00000000000006</ele><time>2026-03-30T14:02:56Z</time></trkpt><trkpt lat="42.431661839219345" lon="-8.07774328108273"><ele>412.0</ele><time>2026-03-30T14:02:57Z</time></trkpt><trkpt lat="42.431533008398" lon="-8.077704072443128"><ele>412.0</ele><time>2026-03-30T14:02:59Z</time></trkpt><trkpt lat="42.43140403626686" lon="-8.077703397233972"><ele>412.0</ele><time>2026-03-30T14:03:01Z</time></trkpt><trkpt lat="42.43135613104497" lon="-8.07784596553397"><ele>412.0</ele><time>2026-03-30T14:03:03Z</time></trkpt><trkpt lat="42.431403383952876" lon="-8.077985356628627"><ele>412.0</ele><time>2026-03-30T14:03:05Z</time></trkpt><trkpt lat="42.43144180990153" lon="-8.078073778264995"><ele>412.0</ele><time>2026-03-30T14:03:06Z</time></trkpt><trkpt lat="42.43146050979156" lon="-8.07817905420116"><ele>412.00000000000006</ele><time>2026-03-30T14:03:07Z</time></trkpt><trkpt lat="42.431503637033366" lon="-8.078258449668839"><ele>412.0</ele><time>2026-03-30T14:03:08Z</time></trkpt><trkpt lat="42.4314688848052" lon="-8.078360557627795"><ele>412.0</ele><time>2026-03-30T14:03:10Z</time></trkpt><trkpt lat="42.43143360967631" lon="-8.078445830834415"><ele>412.0</ele><time>2026-03-30T14:03:16Z</time></trkpt><trkpt lat="42.431393179741704" lon="-8.07857242744599"><ele>412.00000000000006</ele><time>2026-03-30T14:03:18Z</time></trkpt><trkpt lat="42.43133506908301" lon="-8.07868875544683"><ele>412.0</ele><time>2026-03-30T14:03:20Z</time></trkpt><trkpt lat="42.43124851381061" lon="-8.078767810662773"><ele>411.20000000000005</ele><time>2026-03-30T14:03:22Z</time></trkpt><trkpt lat="42.43114235918657" lon="-8.078859209217077"><ele>410.4</ele><time>2026-03-30T14:03:24Z</time></trkpt><trkpt lat="42.43103234789683" lon="-8.078955935787967"><ele>409.6</ele><time>2026-03-30T14:03:26Z</time></trkpt><trkpt lat="42.43097119746404" lon="-8.079018765711263"><ele>408.79999999999995</ele><time>2026-03-30T14:03:27Z</time></trkpt><trkpt lat="42.43091406076838" lon="-8.07907708865948"><ele>408.0</ele><time>2026-03-30T14:03:28Z</time></trkpt><trkpt lat="42.43081567563383" lon="-8.079163372684686"><ele>407.2</ele><time>2026-03-30T14:03:30Z</time></trkpt><trkpt lat="42.43071958070266" lon="-8.079243149303162"><ele>406.4</ele><time>2026-03-30T14:03:32Z</time></trkpt><trkpt lat="42.43064633737456" lon="-8.079302868735356"><ele>405.59999999999997</ele><time>2026-03-30T14:03:34Z</time></trkpt><trkpt lat="42.43058169514169" lon="-8.079355575199612"><ele>404.79999999999995</ele><time>2026-03-30T14:03:36Z</time></trkpt><trkpt lat="42.43050794686849" lon="-8.079415706378066"><ele>404.0</ele><time>2026-03-30T14:03:38Z</time></trkpt><trkpt lat="42.43040366075049" lon="-8.079499143164563"><ele>403.8333333333333</ele><time>2026-03-30T14:03:40Z</time></trkpt><trkpt lat="42.43034136817014" lon="-8.079549102458506"><ele>403.66666666666663</ele><time>2026-03-30T14:03:41Z</time></trkpt><trkpt lat="42.43027492982737" lon="-8.079602386668117"><ele>403.5</ele><time>2026-03-30T14:03:42Z</time></trkpt><trkpt lat="42.430212445320464" lon="-8.079652499871534"><ele>403.33333333333337</ele><time>2026-03-30T14:03:43Z</time></trkpt><trkpt lat="42.430136834666854" lon="-8.079713140369874"><ele>403.1666666666667</ele><time>2026-03-30T14:03:44Z</time></trkpt><trkpt lat="42.43006726733689" lon="-8.079772534549095"><ele>403.0</ele><time>2026-03-30T14:03:45Z</time></trkpt><trkpt lat="42.42999452687202" lon="-8.079836272279781"><ele>403.0</ele><time>2026-03-30T14:03:46Z</time></trkpt><trkpt lat="42.42992623936842" lon="-8.07989896422961"><ele>403.0</ele><time>2026-03-30T14:03:47Z</time></trkpt></trkseg><trkseg><trkpt lat="42.42738661162275" lon="-8.08209296809713"><ele>393.0</ele><time>2026-03-30T14:06:54.001Z</time></trkpt><trkpt lat="42.42729142689872" lon="-8.082164941359935"><ele>393.0</ele><time>2026-03-30T14:06:55.001Z</time></trkpt><trkpt lat="42.42720195247464" lon="-8.082253736046477"><ele>393.0</ele><time>2026-03-30T14:06:56Z</time></trkpt><trkpt lat="42.427113594725" lon="-8.08232465303148"><ele>393.0</ele><time>2026-03-30T14:06:57Z</time></trkpt><trkpt lat="42.42701817542931" lon="-8.082413877833515"><ele>393.0</ele><time>2026-03-30T14:06:58Z</time></trkpt><trkpt lat="42.426921403715255" lon="-8.082486929915675"><ele>393.4</ele><time>2026-03-30T14:07:00Z</time></trkpt><trkpt lat="42.42686547876103" lon="-8.08252825463217"><ele>393.79999999999995</ele><time>2026-03-30T14:07:01Z</time></trkpt><trkpt lat="42.426809075133015" lon="-8.082572844486311"><ele>394.2</ele><time>2026-03-30T14:07:03Z</time></trkpt><trkpt lat="42.426700599665686" lon="-8.082426496223635"><ele>394.6</ele><time>2026-03-30T14:07:07Z</time></trkpt><trkpt lat="42.42666688972792" lon="-8.08230010610473"><ele>395.0</ele><time>2026-03-30T14:07:09Z</time></trkpt><trkpt lat="42.426682215783146" lon="-8.082073320639967"><ele>394.99999999999994</ele><time>2026-03-30T14:07:10Z</time></trkpt><trkpt lat="42.42673554815234" lon="-8.08193876772237"><ele>395.0</ele><time>2026-03-30T14:07:11Z</time></trkpt><trkpt lat="42.4267406830915" lon="-8.081833425693628"><ele>395.0</ele><time>2026-03-30T14:07:12Z</time></trkpt><trkpt lat="42.42679251278547" lon="-8.081746211897418"><ele>395.0</ele><time>2026-03-30T14:07:13Z</time></trkpt><trkpt lat="42.42683653404771" lon="-8.08166871408813"><ele>394.99999999999994</ele><time>2026-03-30T14:07:14Z</time></trkpt><trkpt lat="42.42688431467314" lon="-8.081563100664766"><ele>395.0</ele><time>2026-03-30T14:07:15Z</time></trkpt><trkpt lat="42.426923495058055" lon="-8.081481428501675"><ele>394.66666666666663</ele><time>2026-03-30T14:07:16Z</time></trkpt><trkpt lat="42.42696320328124" lon="-8.081405070612691"><ele>394.3333333333333</ele><time>2026-03-30T14:07:17Z</time></trkpt><trkpt lat="42.42704169402088" lon="-8.081258666675764"><ele>394.0</ele><time>2026-03-30T14:07:19Z</time></trkpt><trkpt lat="42.42708239882304" lon="-8.081184464047746"><ele>393.66666666666663</ele><time>2026-03-30T14:07:20Z</time></trkpt><trkpt lat="42.427135610370435" lon="-8.081093338434137"><ele>393.3333333333333</ele><time>2026-03-30T14:07:21Z</time></trkpt><trkpt lat="42.427184518421534" lon="-8.081009071970968"><ele>393.0</ele><time>2026-03-30T14:07:22Z</time></trkpt><trkpt lat="42.42723998440292" lon="-8.08092409474933"><ele>393.0</ele><time>2026-03-30T14:07:23Z</time></trkpt><trkpt lat="42.42730365401902" lon="-8.080835229500542"><ele>393.0</ele><time>2026-03-30T14:07:24Z</time></trkpt><trkpt lat="42.42735809856523" lon="-8.080767283886555"><ele>393.0</ele><time>2026-03-30T14:07:25Z</time></trkpt><trkpt lat="42.427422389109225" lon="-8.080693197049069"><ele>393.0</ele><time>2026-03-30T14:07:26Z</time></trkpt><trkpt lat="42.42751971336224" lon="-8.080589212912393"><ele>393.0</ele><time>2026-03-30T14:07:28Z</time></trkpt><trkpt lat="42.42757275875489" lon="-8.08053380364144"><ele>393.0</ele><time>2026-03-30T14:07:29Z</time></trkpt><trkpt lat="42.42762979408933" lon="-8.080474226626198"><ele>393.5</ele><time>2026-03-30T14:07:30Z</time></trkpt><trkpt lat="42.42769117779699" lon="-8.08041212953904"><ele>394.0</ele><time>2026-03-30T14:07:31Z</time></trkpt><trkpt lat="42.42776182552322" lon="-8.080340942536083"><ele>394.5</ele><time>2026-03-30T14:07:32Z</time></trkpt><trkpt lat="42.427843918113446" lon="-8.080260705378532"><ele>395.0</ele><time>2026-03-30T14:07:33Z</time></trkpt><trkpt lat="42.427910863982994" lon="-8.080198093020844"><ele>395.5</ele><time>2026-03-30T14:07:34Z</time></trkpt><trkpt lat="42.42799347638599" lon="-8.080122107816708"><ele>396.0</ele><time>2026-03-30T14:07:36Z</time></trkpt><trkpt lat="42.428055390696244" lon="-8.080065160309129"><ele>396.5</ele><time>2026-03-30T14:07:38Z</time></trkpt><trkpt lat="42.428109007406434" lon="-8.080014769862492"><ele>397.0</ele><time>2026-03-30T14:07:40Z</time></trkpt><trkpt lat="42.42817844539722" lon="-8.079949446120555"><ele>397.5</ele><time>2026-03-30T14:07:42Z</time></trkpt><trkpt lat="42.428236339981346" lon="-8.079894981665742"><ele>398.0</ele><time>2026-03-30T14:07:44Z</time></trkpt><trkpt lat="42.42816967583571" lon="-8.079840233893385"><ele>398.5</ele><time>2026-03-30T14:07:47Z</time></trkpt><trkpt lat="42.42811591445789" lon="-8.079766152947117"><ele>399.0</ele><time>2026-03-30T14:07:49Z</time></trkpt><trkpt lat="42.428012223147334" lon="-8.07969393191285"><ele>398.4</ele><time>2026-03-30T14:07:51Z</time></trkpt><trkpt lat="42.42790443231985" lon="-8.079700822495615"><ele>397.79999999999995</ele><time>2026-03-30T14:07:53Z</time></trkpt><trkpt lat="42.427816051445916" lon="-8.079780336553265"><ele>397.20000000000005</ele><time>2026-03-30T14:07:55Z</time></trkpt><trkpt lat="42.42776149657691" lon="-8.079853487702707"><ele>396.6</ele><time>2026-03-30T14:07:57Z</time></trkpt><trkpt lat="42.427701408977846" lon="-8.079925313613488"><ele>396.0</ele><time>2026-03-30T14:07:59Z</time></trkpt><trkpt lat="42.42760673483267" lon="-8.080034404050625"><ele>396.0</ele><time>2026-03-30T14:08:01Z</time></trkpt><trkpt lat="42.427559983688866" lon="-8.080103790914691"><ele>396.0</ele><time>2026-03-30T14:08:02Z</time></trkpt><trkpt lat="42.42749902141283" lon="-8.080166628997373"><ele>396.0</ele><time>2026-03-30T14:08:03Z</time></trkpt><trkpt lat="42.42742456502058" lon="-8.08026286054008"><ele>396.0</ele><time>2026-03-30T14:08:05Z</time></trkpt><trkpt lat="42.42733881091898" lon="-8.080371658005284"><ele>396.0</ele><time>2026-03-30T14:08:07Z</time></trkpt><trkpt lat="42.42724900875586" lon="-8.080464006129633"><ele>396.0</ele><time>2026-03-30T14:08:09Z</time></trkpt><trkpt lat="42.427204793566005" lon="-8.080538620137569"><ele>396.0</ele><time>2026-03-30T14:08:11Z</time></trkpt><trkpt lat="42.42714796700315" lon="-8.080596105556001"><ele>396.0</ele><time>2026-03-30T14:08:13Z</time></trkpt><trkpt lat="42.427088551447724" lon="-8.080632475023151"><ele>396.0</ele><time>2026-03-30T14:08:15Z</time></trkpt><trkpt lat="42.42703103677123" lon="-8.08068435037741"><ele>396.0</ele><time>2026-03-30T14:08:17Z</time></trkpt><trkpt lat="42.42697048886497" lon="-8.080778893380973"><ele>396.0</ele><time>2026-03-30T14:08:20Z</time></trkpt><trkpt lat="42.42699104844954" lon="-8.080913302411863"><ele>395.4</ele><time>2026-03-30T14:08:25Z</time></trkpt><trkpt lat="42.42706435408518" lon="-8.080965351109198"><ele>394.8</ele><time>2026-03-30T14:08:27Z</time></trkpt><trkpt lat="42.427115666125516" lon="-8.081033965679135"><ele>394.2</ele><time>2026-03-30T14:08:31Z</time></trkpt><trkpt lat="42.42708902007894" lon="-8.081236131453164"><ele>393.59999999999997</ele><time>2026-03-30T14:08:35Z</time></trkpt><trkpt lat="42.42702692616634" lon="-8.081361136952124"><ele>393.0</ele><time>2026-03-30T14:08:36Z</time></trkpt><trkpt lat="42.4269874783689" lon="-8.081436642225368"><ele>393.0</ele><time>2026-03-30T14:08:37Z</time></trkpt><trkpt lat="42.426933673458755" lon="-8.081542667739889"><ele>393.0</ele><time>2026-03-30T14:08:38Z</time></trkpt><trkpt lat="42.42688347848527" lon="-8.08166390059616"><ele>393.0</ele><time>2026-03-30T14:08:38.999Z</time></trkpt><trkpt lat="42.42682793908087" lon="-8.08175685835331"><ele>393.0</ele><time>2026-03-30T14:08:40Z</time></trkpt><trkpt lat="42.42678101492682" lon="-8.081867626161955"><ele>393.0</ele><time>2026-03-30T14:08:41Z</time></trkpt><trkpt lat="42.42676181956914" lon="-8.081980156568484"><ele>393.4</ele><time>2026-03-30T14:08:42Z</time></trkpt><trkpt lat="42.42674090654969" lon="-8.082113321487618"><ele>393.79999999999995</ele><time>2026-03-30T14:08:43Z</time></trkpt><trkpt lat="42.426736305719004" lon="-8.082252629011416"><ele>394.2</ele><time>2026-03-30T14:08:44Z</time></trkpt><trkpt lat="42.426736712005024" lon="-8.08238731702831"><ele>394.6</ele><time>2026-03-30T14:08:45Z</time></trkpt><trkpt lat="42.42675370892737" lon="-8.082556025605909"><ele>395.0</ele><time>2026-03-30T14:08:46Z</time></trkpt><trkpt lat="42.42677639353006" lon="-8.082716175527494"><ele>395.0</ele><time>2026-03-30T14:08:47Z</time></trkpt><trkpt lat="42.42678974263223" lon="-8.082913768016528"><ele>395.0</ele><time>2026-03-30T14:08:48Z</time></trkpt><trkpt lat="42.426811396722904" lon="-8.08306027476726"><ele>395.0</ele><time>2026-03-30T14:08:49Z</time></trkpt><trkpt lat="42.42681899596987" lon="-8.083231455780146"><ele>395.0</ele><time>2026-03-30T14:08:50Z</time></trkpt><trkpt lat="42.42682115532121" lon="-8.083403161481838"><ele>396.0</ele><time>2026-03-30T14:08:51Z</time></trkpt><trkpt lat="42.42681214279147" lon="-8.083573610431493"><ele>397.0</ele><time>2026-03-30T14:08:52Z</time></trkpt><trkpt lat="42.426794388033386" lon="-8.083742923230815"><ele>398.0</ele><time>2026-03-30T14:08:53Z</time></trkpt><trkpt lat="42.42675555242112" lon="-8.083913312814593"><ele>399.0</ele><time>2026-03-30T14:08:54Z</time></trkpt><trkpt lat="42.42674709495139" lon="-8.084082685687253"><ele>399.4</ele><time>2026-03-30T14:08:55Z</time></trkpt><trkpt lat="42.4267239983279" lon="-8.08423846312114"><ele>399.79999999999995</ele><time>2026-03-30T14:08:56Z</time></trkpt><trkpt lat="42.42670620204911" lon="-8.084378189910428"><ele>400.20000000000005</ele><time>2026-03-30T14:08:57Z</time></trkpt><trkpt lat="42.426676546014" lon="-8.084501728709721"><ele>400.6</ele><time>2026-03-30T14:08:58Z</time></trkpt><trkpt lat="42.42665708866337" lon="-8.08461945603797"><ele>401.0</ele><time>2026-03-30T14:08:59Z</time></trkpt><trkpt lat="42.426650989989255" lon="-8.084710719744931"><ele>401.0</ele><time>2026-03-30T14:09:00Z</time></trkpt><trkpt lat="42.42662281967023" lon="-8.0848202677319"><ele>401.0</ele><time>2026-03-30T14:09:02Z</time></trkpt><trkpt lat="42.42663831404473" lon="-8.084925023709461"><ele>401.0</ele><time>2026-03-30T14:09:04Z</time></trkpt><trkpt lat="42.42680410848957" lon="-8.084988790541447"><ele>401.0</ele><time>2026-03-30T14:09:08Z</time></trkpt><trkpt lat="42.42689057632699" lon="-8.085026745149676"><ele>401.0</ele><time>2026-03-30T14:09:10Z</time></trkpt><trkpt lat="42.42696866487642" lon="-8.085069177823973"><ele>401.0</ele><time>2026-03-30T14:09:13Z</time></trkpt><trkpt lat="42.426900502921434" lon="-8.08505039988645"><ele>401.0</ele><time>2026-03-30T14:09:49Z</time></trkpt><trkpt lat="42.426970350453196" lon="-8.085033344154207"><ele>401.0</ele><time>2026-03-30T14:11:30Z</time></trkpt><trkpt lat="42.426905741076304" lon="-8.085066555489083"><ele>401.0</ele><time>2026-03-30T14:12:30.999Z</time></trkpt><trkpt lat="42.426831807540054" lon="-8.08500382989015"><ele>401.0</ele><time>2026-03-30T14:12:37.999Z</time></trkpt><trkpt lat="42.42676144440274" lon="-8.08495946285062"><ele>401.0</ele><time>2026-03-30T14:12:39.999Z</time></trkpt><trkpt lat="42.42669954985697" lon="-8.084925097293835"><ele>401.0</ele><time>2026-03-30T14:12:41.999Z</time></trkpt><trkpt lat="42.42664077695822" lon="-8.084880673759095"><ele>401.0</ele><time>2026-03-30T14:12:47.999Z</time></trkpt><trkpt lat="42.426419878953" lon="-8.084755753708318"><ele>401.0</ele><time>2026-03-30T14:13:24Z</time></trkpt><trkpt lat="42.42634777960339" lon="-8.08472808764592"><ele>401.0</ele><time>2026-03-30T14:13:25Z</time></trkpt><trkpt lat="42.42626245192537" lon="-8.084702835489207"><ele>401.0</ele><time>2026-03-30T14:13:26Z</time></trkpt><trkpt lat="42.42616999811621" lon="-8.084644218831471"><ele>401.0</ele><time>2026-03-30T14:13:27Z</time></trkpt><trkpt lat="42.42610770984333" lon="-8.084613132508679"><ele>401.0</ele><time>2026-03-30T14:13:28Z</time></trkpt><trkpt lat="42.426022307041265" lon="-8.084570144809595"><ele>401.0</ele><time>2026-03-30T14:13:29Z</time></trkpt><trkpt lat="42.425952813830456" lon="-8.084542950655546"><ele>401.0</ele><time>2026-03-30T14:13:30Z</time></trkpt><trkpt lat="42.425857220333214" lon="-8.084508985156155"><ele>401.0</ele><time>2026-03-30T14:13:32Z</time></trkpt><trkpt lat="42.425752485323564" lon="-8.08468485987866"><ele>401.0</ele><time>2026-03-30T14:13:34Z</time></trkpt><trkpt lat="42.42571779843829" lon="-8.084821091745672"><ele>401.0</ele><time>2026-03-30T14:13:35Z</time></trkpt><trkpt lat="42.42568301529744" lon="-8.084984668620038"><ele>401.0</ele><time>2026-03-30T14:13:36Z</time></trkpt><trkpt lat="42.42564450763205" lon="-8.085101942108219"><ele>401.0</ele><time>2026-03-30T14:13:37Z</time></trkpt><trkpt lat="42.42559458007796" lon="-8.085229725779413"><ele>401.0</ele><time>2026-03-30T14:13:38Z</time></trkpt><trkpt lat="42.42553943477066" lon="-8.085372919955235"><ele>401.0</ele><time>2026-03-30T14:13:39Z</time></trkpt><trkpt lat="42.42548117347889" lon="-8.08550682850907"><ele>401.0</ele><time>2026-03-30T14:13:40Z</time></trkpt><trkpt lat="42.425436509819626" lon="-8.085658815719242"><ele>401.0</ele><time>2026-03-30T14:13:41Z</time></trkpt><trkpt lat="42.4253747420225" lon="-8.085796223521136"><ele>401.0</ele><time>2026-03-30T14:13:42Z</time></trkpt><trkpt lat="42.42531654331311" lon="-8.085941641323137"><ele>401.5</ele><time>2026-03-30T14:13:43Z</time></trkpt><trkpt lat="42.425241718089744" lon="-8.086073618949706"><ele>402.0</ele><time>2026-03-30T14:13:44Z</time></trkpt><trkpt lat="42.42514836699984" lon="-8.086173687326792"><ele>402.5</ele><time>2026-03-30T14:13:45Z</time></trkpt><trkpt lat="42.425072410532515" lon="-8.086287815828602"><ele>403.0</ele><time>2026-03-30T14:13:46Z</time></trkpt><trkpt lat="42.42497985724511" lon="-8.0863955254165"><ele>403.0</ele><time>2026-03-30T14:13:47Z</time></trkpt><trkpt lat="42.42490167060449" lon="-8.08649720224357"><ele>403.0</ele><time>2026-03-30T14:13:48Z</time></trkpt><trkpt lat="42.424820326865735" lon="-8.086602385326024"><ele>403.0</ele><time>2026-03-30T14:13:49Z</time></trkpt><trkpt lat="42.42474339419475" lon="-8.086701865136732"><ele>403.0</ele><time>2026-03-30T14:13:50Z</time></trkpt><trkpt lat="42.42466675447234" lon="-8.086797459393642"><ele>403.0</ele><time>2026-03-30T14:13:51Z</time></trkpt><trkpt lat="42.42457952732159" lon="-8.086879974045985"><ele>403.83333333333337</ele><time>2026-03-30T14:13:52Z</time></trkpt><trkpt lat="42.42450819317605" lon="-8.086983704082034"><ele>404.6666666666667</ele><time>2026-03-30T14:13:53Z</time></trkpt><trkpt lat="42.424427429373296" lon="-8.087056062024024"><ele>405.5</ele><time>2026-03-30T14:13:54Z</time></trkpt><trkpt lat="42.424368831360965" lon="-8.087132710532261"><ele>406.33333333333337</ele><time>2026-03-30T14:13:55Z</time></trkpt><trkpt lat="42.42431052738989" lon="-8.087201331506353"><ele>407.1666666666667</ele><time>2026-03-30T14:13:56Z</time></trkpt><trkpt lat="42.42426476257941" lon="-8.08726093329362"><ele>408.0</ele><time>2026-03-30T14:13:57Z</time></trkpt><trkpt lat="42.42420709597076" lon="-8.087349838337273"><ele>408.0</ele><time>2026-03-30T14:13:58.999Z</time></trkpt></trkseg><trkseg><trkpt lat="42.42416438624878" lon="-8.087260759281062"><ele>408.0</ele><time>2026-03-30T14:25:16.999Z</time></trkpt><trkpt lat="42.42419729416794" lon="-8.08736276564606"><ele>408.0</ele><time>2026-03-30T14:25:43Z</time></trkpt><trkpt lat="42.424307013167045" lon="-8.087171759803637"><ele>408.0</ele><time>2026-03-30T14:25:46Z</time></trkpt><trkpt lat="42.424399596896215" lon="-8.087083331589572"><ele>408.0</ele><time>2026-03-30T14:25:47Z</time></trkpt><trkpt lat="42.424493193195794" lon="-8.086971766610452"><ele>408.0</ele><time>2026-03-30T14:25:48Z</time></trkpt><trkpt lat="42.424601375420224" lon="-8.086832512142314"><ele>408.0</ele><time>2026-03-30T14:25:49Z</time></trkpt><trkpt lat="42.42471261279955" lon="-8.08670755585946"><ele>408.0</ele><time>2026-03-30T14:25:50Z</time></trkpt><trkpt lat="42.424817133455456" lon="-8.086544256685915"><ele>406.33333333333337</ele><time>2026-03-30T14:25:51Z</time></trkpt><trkpt lat="42.42493721219961" lon="-8.086389585151482"><ele>404.6666666666667</ele><time>2026-03-30T14:25:52Z</time></trkpt><trkpt lat="42.42506690867337" lon="-8.086234858537473"><ele>403.0</ele><time>2026-03-30T14:25:53Z</time></trkpt><trkpt lat="42.42519450115436" lon="-8.086080919903939"><ele>403.0</ele><time>2026-03-30T14:25:54Z</time></trkpt><trkpt lat="42.425305566675824" lon="-8.085895378863084"><ele>403.0</ele><time>2026-03-30T14:25:55Z</time></trkpt><trkpt lat="42.42539313059389" lon="-8.085694636102849"><ele>403.0</ele><time>2026-03-30T14:25:56Z</time></trkpt><trkpt lat="42.42547479866646" lon="-8.085466645207983"><ele>402.33333333333337</ele><time>2026-03-30T14:25:57Z</time></trkpt><trkpt lat="42.42555474201329" lon="-8.085232800587944"><ele>401.66666666666663</ele><time>2026-03-30T14:25:58Z</time></trkpt><trkpt lat="42.425632548417276" lon="-8.084996386827797"><ele>401.0</ele><time>2026-03-30T14:25:59Z</time></trkpt><trkpt lat="42.425704593468666" lon="-8.084770430625017"><ele>401.0</ele><time>2026-03-30T14:26:00Z</time></trkpt><trkpt lat="42.42577028151746" lon="-8.084564411967005"><ele>401.0</ele><time>2026-03-30T14:26:01Z</time></trkpt><trkpt lat="42.42585681786981" lon="-8.084401210338935"><ele>401.0</ele><time>2026-03-30T14:26:02Z</time></trkpt><trkpt lat="42.4259088560705" lon="-8.084211776191019"><ele>401.0</ele><time>2026-03-30T14:26:03Z</time></trkpt><trkpt lat="42.42596111585064" lon="-8.084047078504732"><ele>401.0</ele><time>2026-03-30T14:26:04Z</time></trkpt><trkpt lat="42.42601679717075" lon="-8.083866444315285"><ele>401.0</ele><time>2026-03-30T14:26:05Z</time></trkpt><trkpt lat="42.426070255038795" lon="-8.083683587886485"><ele>401.0</ele><time>2026-03-30T14:26:06Z</time></trkpt><trkpt lat="42.42613503031162" lon="-8.083517501864373"><ele>401.0</ele><time>2026-03-30T14:26:07Z</time></trkpt><trkpt lat="42.426204182322294" lon="-8.083317760420528"><ele>401.0</ele><time>2026-03-30T14:26:08Z</time></trkpt><trkpt lat="42.426259021733195" lon="-8.0831136957772"><ele>401.0</ele><time>2026-03-30T14:26:09Z</time></trkpt><trkpt lat="42.426320743840634" lon="-8.08290836090048"><ele>399.5</ele><time>2026-03-30T14:26:10Z</time></trkpt><trkpt lat="42.42639654436316" lon="-8.082726799687455"><ele>398.0</ele><time>2026-03-30T14:26:11Z</time></trkpt><trkpt lat="42.42645062947872" lon="-8.082547491757689"><ele>396.5</ele><time>2026-03-30T14:26:12Z</time></trkpt><trkpt lat="42.42650509742217" lon="-8.082396417152541"><ele>395.0</ele><time>2026-03-30T14:26:13Z</time></trkpt><trkpt lat="42.42656133396492" lon="-8.082275167037997"><ele>395.0</ele><time>2026-03-30T14:26:14Z</time></trkpt><trkpt lat="42.426602967027016" lon="-8.082152786528978"><ele>395.0</ele><time>2026-03-30T14:26:15Z</time></trkpt><trkpt lat="42.42668217021456" lon="-8.082023754211066"><ele>395.0</ele><time>2026-03-30T14:26:17Z</time></trkpt><trkpt lat="42.42673664318852" lon="-8.081884431490067"><ele>395.0</ele><time>2026-03-30T14:26:19Z</time></trkpt><trkpt lat="42.42684342947712" lon="-8.08168248109911"><ele>394.66666666666663</ele><time>2026-03-30T14:26:21Z</time></trkpt><trkpt lat="42.42688948287358" lon="-8.081552265200044"><ele>394.3333333333333</ele><time>2026-03-30T14:26:22Z</time></trkpt><trkpt lat="42.42695174488874" lon="-8.081427104775255"><ele>394.0</ele><time>2026-03-30T14:26:23Z</time></trkpt><trkpt lat="42.42700221807767" lon="-8.081364597057673"><ele>393.66666666666663</ele><time>2026-03-30T14:26:24Z</time></trkpt><trkpt lat="42.427035611791744" lon="-8.081269754205787"><ele>393.3333333333333</ele><time>2026-03-30T14:26:25Z</time></trkpt><trkpt lat="42.427076623782405" lon="-8.081194991684482"><ele>393.0</ele><time>2026-03-30T14:26:26Z</time></trkpt><trkpt lat="42.427135770401" lon="-8.081093062677914"><ele>393.0</ele><time>2026-03-30T14:26:27Z</time></trkpt><trkpt lat="42.42719821635029" lon="-8.080985470979465"><ele>393.0</ele><time>2026-03-30T14:26:28Z</time></trkpt><trkpt lat="42.42725851066993" lon="-8.080884078243976"><ele>393.0</ele><time>2026-03-30T14:26:28.999Z</time></trkpt><trkpt lat="42.4273635229285" lon="-8.080760514344501"><ele>393.0</ele><time>2026-03-30T14:26:30.999Z</time></trkpt><trkpt lat="42.42742728865812" lon="-8.080687828833483"><ele>393.0</ele><time>2026-03-30T14:26:31.999Z</time></trkpt><trkpt lat="42.42749194560482" lon="-8.080618218101522"><ele>393.59999999999997</ele><time>2026-03-30T14:26:34.999Z</time></trkpt><trkpt lat="42.427589019855915" lon="-8.080602056025391"><ele>394.2</ele><time>2026-03-30T14:34:01.999Z</time></trkpt><trkpt lat="42.427647584196905" lon="-8.080570273352492"><ele>394.8</ele><time>2026-03-30T14:34:06.999Z</time></trkpt><trkpt lat="42.427715386968266" lon="-8.080498607090465"><ele>395.4</ele><time>2026-03-30T14:34:07.999Z</time></trkpt><trkpt lat="42.42779861251113" lon="-8.080410000430419"><ele>396.0</ele><time>2026-03-30T14:34:08.999Z</time></trkpt><trkpt lat="42.427884003472954" lon="-8.080312764108237"><ele>396.0</ele><time>2026-03-30T14:34:09.999Z</time></trkpt><trkpt lat="42.4279649231374" lon="-8.080228923399826"><ele>396.0</ele><time>2026-03-30T14:34:10.999Z</time></trkpt><trkpt lat="42.42802772667276" lon="-8.080146051801249"><ele>396.0</ele><time>2026-03-30T14:34:11.999Z</time></trkpt><trkpt lat="42.42809081924447" lon="-8.0800519094541"><ele>396.0</ele><time>2026-03-30T14:34:13.999Z</time></trkpt><trkpt lat="42.42815531602241" lon="-8.080020321108693"><ele>396.0</ele><time>2026-03-30T14:34:14.999Z</time></trkpt><trkpt lat="42.428245161060445" lon="-8.07992863995946"><ele>396.8</ele><time>2026-03-30T14:34:17.999Z</time></trkpt><trkpt lat="42.42833207497541" lon="-8.079993547608277"><ele>397.6</ele><time>2026-03-30T14:34:23.999Z</time></trkpt><trkpt lat="42.42837774456126" lon="-8.080077197828222"><ele>398.4</ele><time>2026-03-30T14:34:24.999Z</time></trkpt><trkpt lat="42.42844769821184" lon="-8.080156098111562"><ele>399.2</ele><time>2026-03-30T14:34:25.999Z</time></trkpt><trkpt lat="42.428509928927795" lon="-8.080269894321075"><ele>400.0</ele><time>2026-03-30T14:34:26.999Z</time></trkpt><trkpt lat="42.42850391739522" lon="-8.080420078102373"><ele>400.00000000000006</ele><time>2026-03-30T14:34:27.999Z</time></trkpt><trkpt lat="42.42854749949352" lon="-8.080504606806283"><ele>400.0</ele><time>2026-03-30T14:34:28.999Z</time></trkpt><trkpt lat="42.428592432712115" lon="-8.080595595288461"><ele>400.0</ele><time>2026-03-30T14:34:29.999Z</time></trkpt><trkpt lat="42.428634637301364" lon="-8.080682329678678"><ele>400.0</ele><time>2026-03-30T14:34:30.999Z</time></trkpt><trkpt lat="42.42869296563701" lon="-8.080795721851784"><ele>400.00000000000006</ele><time>2026-03-30T14:34:32.999Z</time></trkpt><trkpt lat="42.42870457038433" lon="-8.080886428108634"><ele>400.0</ele><time>2026-03-30T14:34:35.999Z</time></trkpt><trkpt lat="42.42857164514184" lon="-8.081140962286598"><ele>398.4</ele><time>2026-03-30T14:34:39.999Z</time></trkpt><trkpt lat="42.42847302687954" lon="-8.081164515257079"><ele>396.8</ele><time>2026-03-30T14:34:40.999Z</time></trkpt><trkpt lat="42.42837302510755" lon="-8.081220988398155"><ele>395.20000000000005</ele><time>2026-03-30T14:34:41.999Z</time></trkpt><trkpt lat="42.42827963800888" lon="-8.08130388744029"><ele>393.6</ele><time>2026-03-30T14:34:42.999Z</time></trkpt><trkpt lat="42.42818456517114" lon="-8.081393097267869"><ele>392.0</ele><time>2026-03-30T14:34:43.999Z</time></trkpt><trkpt lat="42.4280911446789" lon="-8.081494836370702"><ele>392.0</ele><time>2026-03-30T14:34:44.999Z</time></trkpt><trkpt lat="42.4279993745514" lon="-8.08157774936135"><ele>392.0</ele><time>2026-03-30T14:34:45.999Z</time></trkpt><trkpt lat="42.427952398825404" lon="-8.081638560990877"><ele>392.0</ele><time>2026-03-30T14:34:46.999Z</time></trkpt><trkpt lat="42.42784890419551" lon="-8.081707830017045"><ele>392.0</ele><time>2026-03-30T14:34:47.999Z</time></trkpt><trkpt lat="42.42776623378631" lon="-8.081764932940729"><ele>392.0</ele><time>2026-03-30T14:34:48.999Z</time></trkpt><trkpt lat="42.42766212968154" lon="-8.08185400099466"><ele>392.25</ele><time>2026-03-30T14:34:49.999Z</time></trkpt><trkpt lat="42.42755136527367" lon="-8.08195863680959"><ele>392.5</ele><time>2026-03-30T14:34:50.999Z</time></trkpt><trkpt lat="42.42742463958403" lon="-8.082077120100715"><ele>392.75</ele><time>2026-03-30T14:34:51.999Z</time></trkpt><trkpt lat="42.42732032780307" lon="-8.082163706569297"><ele>393.0</ele><time>2026-03-30T14:34:52.999Z</time></trkpt><trkpt lat="42.427212277313934" lon="-8.082264648815178"><ele>393.4</ele><time>2026-03-30T14:34:53.999Z</time></trkpt><trkpt lat="42.427114831147826" lon="-8.082338704159444"><ele>393.79999999999995</ele><time>2026-03-30T14:34:54.999Z</time></trkpt><trkpt lat="42.427027101903825" lon="-8.082401917078338"><ele>394.2</ele><time>2026-03-30T14:34:55.999Z</time></trkpt><trkpt lat="42.426952691739395" lon="-8.08245798158325"><ele>394.6</ele><time>2026-03-30T14:34:56.999Z</time></trkpt><trkpt lat="42.426894565188576" lon="-8.082501610492912"><ele>395.0</ele><time>2026-03-30T14:34:57.999Z</time></trkpt><trkpt lat="42.42679138860289" lon="-8.082589031392027"><ele>395.0</ele><time>2026-03-30T14:34:59.999Z</time></trkpt><trkpt lat="42.42677521132963" lon="-8.082750445551335"><ele>395.0</ele><time>2026-03-30T14:35:01.999Z</time></trkpt><trkpt lat="42.426783722287624" lon="-8.082901719606701"><ele>395.0</ele><time>2026-03-30T14:35:02.999Z</time></trkpt><trkpt lat="42.42681388474775" lon="-8.083051233963293"><ele>395.0</ele><time>2026-03-30T14:35:03.999Z</time></trkpt><trkpt lat="42.426824087105985" lon="-8.08320933062015"><ele>396.0</ele><time>2026-03-30T14:35:04.999Z</time></trkpt><trkpt lat="42.42681875484345" lon="-8.08339059930147"><ele>397.0</ele><time>2026-03-30T14:35:05.999Z</time></trkpt><trkpt lat="42.426804228418554" lon="-8.083601177947607"><ele>398.0</ele><time>2026-03-30T14:35:06.999Z</time></trkpt><trkpt lat="42.42678199435311" lon="-8.083795373491048"><ele>399.0</ele><time>2026-03-30T14:35:07.999Z</time></trkpt><trkpt lat="42.42674525956757" lon="-8.083985964127217"><ele>399.66666666666663</ele><time>2026-03-30T14:35:08.999Z</time></trkpt><trkpt lat="42.42671824102348" lon="-8.08419095518172"><ele>400.3333333333333</ele><time>2026-03-30T14:35:09.999Z</time></trkpt><trkpt lat="42.426680184780025" lon="-8.084401478797446"><ele>401.0</ele><time>2026-03-30T14:35:10.999Z</time></trkpt><trkpt lat="42.4266524672982" lon="-8.084615790402651"><ele>401.0</ele><time>2026-03-30T14:35:11.999Z</time></trkpt><trkpt lat="42.4266270372845" lon="-8.084838856497178"><ele>401.0</ele><time>2026-03-30T14:35:12.999Z</time></trkpt><trkpt lat="42.426575938674034" lon="-8.085063995478864"><ele>401.0</ele><time>2026-03-30T14:35:13.999Z</time></trkpt><trkpt lat="42.42654159368351" lon="-8.085292400447146"><ele>401.0</ele><time>2026-03-30T14:35:14.999Z</time></trkpt><trkpt lat="42.42652201768404" lon="-8.085527488126093"><ele>401.0</ele><time>2026-03-30T14:35:15.999Z</time></trkpt><trkpt lat="42.4264889612999" lon="-8.085766234787185"><ele>401.0</ele><time>2026-03-30T14:35:16.999Z</time></trkpt><trkpt lat="42.42652291812617" lon="-8.085951963564868"><ele>400.75</ele><time>2026-03-30T14:35:17.999Z</time></trkpt><trkpt lat="42.42655555344289" lon="-8.086161519906799"><ele>400.5</ele><time>2026-03-30T14:35:18.999Z</time></trkpt><trkpt lat="42.42657453113878" lon="-8.086339741398783"><ele>400.25</ele><time>2026-03-30T14:35:19.999Z</time></trkpt><trkpt lat="42.42661987380699" lon="-8.086469992636577"><ele>400.0</ele><time>2026-03-30T14:35:20.999Z</time></trkpt><trkpt lat="42.42665018686946" lon="-8.086574669550044"><ele>399.8</ele><time>2026-03-30T14:35:21.999Z</time></trkpt><trkpt lat="42.426673255231854" lon="-8.086657479166549"><ele>399.6</ele><time>2026-03-30T14:35:22.999Z</time></trkpt><trkpt lat="42.42669291514607" lon="-8.086755746289205"><ele>399.4</ele><time>2026-03-30T14:35:24.999Z</time></trkpt><trkpt lat="42.4267260488903" lon="-8.086869793718904"><ele>399.2</ele><time>2026-03-30T14:35:26.999Z</time></trkpt><trkpt lat="42.42674797278848" lon="-8.086951418669948"><ele>399.0</ele><time>2026-03-30T14:35:27.999Z</time></trkpt><trkpt lat="42.42664750741937" lon="-8.087121670874433"><ele>399.0</ele><time>2026-03-30T14:35:30.999Z</time></trkpt><trkpt lat="42.42654709956352" lon="-8.08716747695855"><ele>399.0</ele><time>2026-03-30T14:35:31.999Z</time></trkpt><trkpt lat="42.426447220003425" lon="-8.087208644568866"><ele>399.0</ele><time>2026-03-30T14:35:32.999Z</time></trkpt><trkpt lat="42.426333510522525" lon="-8.087284598759311"><ele>399.0</ele><time>2026-03-30T14:35:33.999Z</time></trkpt><trkpt lat="42.42623005560158" lon="-8.087361422389877"><ele>399.2</ele><time>2026-03-30T14:35:34.999Z</time></trkpt><trkpt lat="42.42610414079418" lon="-8.087370100763973"><ele>399.4</ele><time>2026-03-30T14:35:35.999Z</time></trkpt><trkpt lat="42.42600788249794" lon="-8.087373706928355"><ele>399.6</ele><time>2026-03-30T14:35:36.999Z</time></trkpt><trkpt lat="42.425934099228535" lon="-8.087407488707095"><ele>399.8</ele><time>2026-03-30T14:35:37.999Z</time></trkpt><trkpt lat="42.42586924505857" lon="-8.087422445582858"><ele>400.0</ele><time>2026-03-30T14:35:38.999Z</time></trkpt><trkpt lat="42.42575032611275" lon="-8.087449871236089"><ele>400.0</ele><time>2026-03-30T14:35:40.999Z</time></trkpt><trkpt lat="42.425680880605086" lon="-8.087465887084365"><ele>400.0</ele><time>2026-03-30T14:35:41.999Z</time></trkpt><trkpt lat="42.42555206957515" lon="-8.087368411910992"><ele>400.0</ele><time>2026-03-30T14:35:42.999Z</time></trkpt><trkpt lat="42.4254370845854" lon="-8.087427750802366"><ele>400.0</ele><time>2026-03-30T14:35:43.999Z</time></trkpt><trkpt lat="42.42534085465428" lon="-8.087477441733256"><ele>400.0</ele><time>2026-03-30T14:35:44.999Z</time></trkpt><trkpt lat="42.42522806053184" lon="-8.087527681540188"><ele>401.5</ele><time>2026-03-30T14:35:45.999Z</time></trkpt><trkpt lat="42.42510525435787" lon="-8.087591503902114"><ele>403.0</ele><time>2026-03-30T14:35:46.999Z</time></trkpt><trkpt lat="42.425009116057524" lon="-8.087605115973767"><ele>404.5</ele><time>2026-03-30T14:35:47.999Z</time></trkpt><trkpt lat="42.42490263315192" lon="-8.087516527393891"><ele>406.0</ele><time>2026-03-30T14:35:48.999Z</time></trkpt><trkpt lat="42.42480145760767" lon="-8.087450470182683"><ele>405.6666666666667</ele><time>2026-03-30T14:35:49.999Z</time></trkpt><trkpt lat="42.424717526022256" lon="-8.087415088481713"><ele>405.33333333333337</ele><time>2026-03-30T14:35:50.999Z</time></trkpt><trkpt lat="42.42464139646626" lon="-8.08736097415125"><ele>405.0</ele><time>2026-03-30T14:35:51.999Z</time></trkpt><trkpt lat="42.42457643417759" lon="-8.087299352142118"><ele>404.66666666666663</ele><time>2026-03-30T14:35:52.999Z</time></trkpt><trkpt lat="42.42452522058944" lon="-8.087247481388694"><ele>404.3333333333333</ele><time>2026-03-30T14:35:53.999Z</time></trkpt><trkpt lat="42.424449359322345" lon="-8.087168610302289"><ele>404.0</ele><time>2026-03-30T14:35:55.999Z</time></trkpt><trkpt lat="42.42439524951072" lon="-8.087118566891883"><ele>408.0</ele><time>2026-03-30T14:35:59.999Z</time></trkpt><trkpt lat="42.42430784926618" lon="-8.087234591346132"><ele>408.0</ele><time>2026-03-30T14:36:01.999Z</time></trkpt><trkpt lat="42.42426249106546" lon="-8.087298855529566"><ele>408.0</ele><time>2026-03-30T14:36:02.999Z</time></trkpt><trkpt lat="42.42422525011917" lon="-8.08738484889124"><ele>408.0</ele><time>2026-03-30T14:36:04.999Z</time></trkpt></trkseg><trkseg><trkpt lat="42.42409836469097" lon="-8.087415124762519"><ele>408.5</ele><time>2026-03-30T14:48:01Z</time></trkpt><trkpt lat="42.424029154249524" lon="-8.087498705977254"><ele>409.0</ele><time>2026-03-30T14:48:02Z</time></trkpt><trkpt lat="42.42394780587278" lon="-8.08760705509767"><ele>409.5</ele><time>2026-03-30T14:48:03Z</time></trkpt><trkpt lat="42.423879172299166" lon="-8.087727316655913"><ele>410.0</ele><time>2026-03-30T14:48:04Z</time></trkpt><trkpt lat="42.423747419310395" lon="-8.087816370360363"><ele>411.0</ele><time>2026-03-30T14:48:05Z</time></trkpt><trkpt lat="42.42361196394893" lon="-8.087888948113276"><ele>412.0</ele><time>2026-03-30T14:48:06Z</time></trkpt><trkpt lat="42.42346800444921" lon="-8.087923006649284"><ele>413.0</ele><time>2026-03-30T14:48:07Z</time></trkpt><trkpt lat="42.42329745880463" lon="-8.088007215775727"><ele>413.0</ele><time>2026-03-30T14:48:08Z</time></trkpt><trkpt lat="42.423166734799615" lon="-8.088072369566769"><ele>413.0</ele><time>2026-03-30T14:48:09Z</time></trkpt><trkpt lat="42.423020011021464" lon="-8.088135551941006"><ele>413.0</ele><time>2026-03-30T14:48:10Z</time></trkpt><trkpt lat="42.42288220241884" lon="-8.088216142852936"><ele>413.0</ele><time>2026-03-30T14:48:11Z</time></trkpt><trkpt lat="42.422735676259094" lon="-8.088309106004044"><ele>415.0</ele><time>2026-03-30T14:48:12Z</time></trkpt><trkpt lat="42.42259227205577" lon="-8.088398844825749"><ele>417.0</ele><time>2026-03-30T14:48:13Z</time></trkpt><trkpt lat="42.42244841975515" lon="-8.088527398702354"><ele>419.0</ele><time>2026-03-30T14:48:14Z</time></trkpt><trkpt lat="42.42229222949812" lon="-8.088667358037632"><ele>418.0</ele><time>2026-03-30T14:48:15Z</time></trkpt><trkpt lat="42.422136654466755" lon="-8.088774649570057"><ele>417.0</ele><time>2026-03-30T14:48:16Z</time></trkpt><trkpt lat="42.42200164919538" lon="-8.088885132584927"><ele>416.0</ele><time>2026-03-30T14:48:17Z</time></trkpt><trkpt lat="42.42182301514225" lon="-8.089036360704247"><ele>414.3333333333333</ele><time>2026-03-30T14:48:18Z</time></trkpt><trkpt lat="42.42165747081605" lon="-8.089217868857801"><ele>412.66666666666663</ele><time>2026-03-30T14:48:19Z</time></trkpt><trkpt lat="42.42147400557635" lon="-8.089405925515194"><ele>411.0</ele><time>2026-03-30T14:48:20Z</time></trkpt><trkpt lat="42.42130140381087" lon="-8.08959293801709"><ele>410.0</ele><time>2026-03-30T14:48:21Z</time></trkpt><trkpt lat="42.42112176272134" lon="-8.089790340618082"><ele>409.0</ele><time>2026-03-30T14:48:22Z</time></trkpt><trkpt lat="42.42093089301689" lon="-8.089976815814913"><ele>408.0</ele><time>2026-03-30T14:48:23Z</time></trkpt><trkpt lat="42.42077732132638" lon="-8.090187376678223"><ele>407.0</ele><time>2026-03-30T14:48:24Z</time></trkpt><trkpt lat="42.42065547786277" lon="-8.090393892889875"><ele>406.0</ele><time>2026-03-30T14:48:25Z</time></trkpt><trkpt lat="42.42050485108465" lon="-8.090573701189445"><ele>405.33333333333337</ele><time>2026-03-30T14:48:26Z</time></trkpt><trkpt lat="42.42037240765147" lon="-8.090758585760847"><ele>404.66666666666663</ele><time>2026-03-30T14:48:27Z</time></trkpt><trkpt lat="42.420230176945495" lon="-8.090945143855754"><ele>404.0</ele><time>2026-03-30T14:48:28Z</time></trkpt><trkpt lat="42.4200785576088" lon="-8.09112519616003"><ele>404.0</ele><time>2026-03-30T14:48:29Z</time></trkpt><trkpt lat="42.41993346732977" lon="-8.09128807136818"><ele>404.0</ele><time>2026-03-30T14:48:30Z</time></trkpt><trkpt lat="42.41980261341113" lon="-8.091444920096766"><ele>404.0</ele><time>2026-03-30T14:48:31Z</time></trkpt><trkpt lat="42.419681019962226" lon="-8.091600227891456"><ele>405.0</ele><time>2026-03-30T14:48:32Z</time></trkpt><trkpt lat="42.41957016923715" lon="-8.091749097702605"><ele>406.0</ele><time>2026-03-30T14:48:33Z</time></trkpt><trkpt lat="42.419475791756504" lon="-8.091917601902823"><ele>407.0</ele><time>2026-03-30T14:48:34Z</time></trkpt><trkpt lat="42.41938310006922" lon="-8.092062235600043"><ele>407.0</ele><time>2026-03-30T14:48:35Z</time></trkpt><trkpt lat="42.41927665390942" lon="-8.092204950984655"><ele>407.0</ele><time>2026-03-30T14:48:36Z</time></trkpt><trkpt lat="42.419202575704695" lon="-8.092364991457561"><ele>407.0</ele><time>2026-03-30T14:48:37Z</time></trkpt><trkpt lat="42.419145739777434" lon="-8.092522225822865"><ele>407.0</ele><time>2026-03-30T14:48:38Z</time></trkpt><trkpt lat="42.41909276352625" lon="-8.092661735982746"><ele>407.3333333333333</ele><time>2026-03-30T14:48:39Z</time></trkpt><trkpt lat="42.41905195109757" lon="-8.092791067931046"><ele>407.66666666666663</ele><time>2026-03-30T14:48:40Z</time></trkpt><trkpt lat="42.41901110442635" lon="-8.092905352800667"><ele>408.0</ele><time>2026-03-30T14:48:41Z</time></trkpt><trkpt lat="42.41896879603188" lon="-8.093004846983746"><ele>408.33333333333337</ele><time>2026-03-30T14:48:42Z</time></trkpt><trkpt lat="42.41891641253988" lon="-8.093102191880211"><ele>408.6666666666667</ele><time>2026-03-30T14:48:43Z</time></trkpt><trkpt lat="42.41886446261847" lon="-8.093178914596319"><ele>409.0</ele><time>2026-03-30T14:48:44Z</time></trkpt><trkpt lat="42.41880032201303" lon="-8.09327960935996"><ele>409.0</ele><time>2026-03-30T14:48:45Z</time></trkpt><trkpt lat="42.418724926189576" lon="-8.093371243112468"><ele>409.0</ele><time>2026-03-30T14:48:46Z</time></trkpt><trkpt lat="42.41865855152804" lon="-8.093458477392037"><ele>409.0</ele><time>2026-03-30T14:48:47Z</time></trkpt><trkpt lat="42.418553570851174" lon="-8.093559200680824"><ele>409.0</ele><time>2026-03-30T14:48:48Z</time></trkpt><trkpt lat="42.41844959635022" lon="-8.093682051980286"><ele>409.0</ele><time>2026-03-30T14:48:49Z</time></trkpt><trkpt lat="42.4183733221688" lon="-8.093778431516855"><ele>409.0</ele><time>2026-03-30T14:48:50Z</time></trkpt><trkpt lat="42.41828713669432" lon="-8.093886798910777"><ele>409.0</ele><time>2026-03-30T14:48:51Z</time></trkpt><trkpt lat="42.41820835538945" lon="-8.094002080173064"><ele>409.0</ele><time>2026-03-30T14:48:52Z</time></trkpt><trkpt lat="42.4181149502938" lon="-8.094136274170232"><ele>407.75</ele><time>2026-03-30T14:48:53Z</time></trkpt><trkpt lat="42.418052290609275" lon="-8.094256492052802"><ele>406.5</ele><time>2026-03-30T14:48:54Z</time></trkpt><trkpt lat="42.41792115319153" lon="-8.094369363505903"><ele>405.25</ele><time>2026-03-30T14:48:55Z</time></trkpt><trkpt lat="42.4179011827129" lon="-8.094532215236425"><ele>404.0</ele><time>2026-03-30T14:48:56Z</time></trkpt><trkpt lat="42.417844497950725" lon="-8.094691639335695"><ele>404.0</ele><time>2026-03-30T14:48:56.999Z</time></trkpt><trkpt lat="42.41776243237757" lon="-8.094826588647333"><ele>404.0</ele><time>2026-03-30T14:48:57.999Z</time></trkpt><trkpt lat="42.41766916885537" lon="-8.094963800440292"><ele>404.0</ele><time>2026-03-30T14:48:58.999Z</time></trkpt><trkpt lat="42.41763136125646" lon="-8.095137775300795"><ele>404.0</ele><time>2026-03-30T14:48:59.999Z</time></trkpt><trkpt lat="42.41758273919158" lon="-8.095290973231974"><ele>403.5</ele><time>2026-03-30T14:49:00.999Z</time></trkpt><trkpt lat="42.417526111988494" lon="-8.095441120504166"><ele>403.0</ele><time>2026-03-30T14:49:01.999Z</time></trkpt><trkpt lat="42.41748300009586" lon="-8.095582583010144"><ele>402.5</ele><time>2026-03-30T14:49:02.999Z</time></trkpt><trkpt lat="42.41743776925602" lon="-8.095716513550293"><ele>402.0</ele><time>2026-03-30T14:49:03.999Z</time></trkpt><trkpt lat="42.417357516181276" lon="-8.09585123276319"><ele>402.25</ele><time>2026-03-30T14:49:04.999Z</time></trkpt><trkpt lat="42.417272411109444" lon="-8.095972128221183"><ele>402.5</ele><time>2026-03-30T14:49:05.999Z</time></trkpt><trkpt lat="42.41719145976259" lon="-8.096097301934591"><ele>402.75</ele><time>2026-03-30T14:49:06.999Z</time></trkpt><trkpt lat="42.41710556526671" lon="-8.09621150577226"><ele>403.0</ele><time>2026-03-30T14:49:07.999Z</time></trkpt><trkpt lat="42.417038795256246" lon="-8.096333504529811"><ele>403.0</ele><time>2026-03-30T14:49:08.999Z</time></trkpt><trkpt lat="42.416982555087486" lon="-8.096505166172498"><ele>403.0</ele><time>2026-03-30T14:49:09.999Z</time></trkpt><trkpt lat="42.41693748703754" lon="-8.09666916992577"><ele>403.0</ele><time>2026-03-30T14:49:10.999Z</time></trkpt><trkpt lat="42.41688996194231" lon="-8.096829820624478"><ele>403.0</ele><time>2026-03-30T14:49:11.999Z</time></trkpt><trkpt lat="42.41683383561562" lon="-8.097005034750833"><ele>403.75</ele><time>2026-03-30T14:49:12.999Z</time></trkpt><trkpt lat="42.4167755300345" lon="-8.097160152001802"><ele>404.5</ele><time>2026-03-30T14:49:13.999Z</time></trkpt><trkpt lat="42.41671345759082" lon="-8.097344263452241"><ele>405.25</ele><time>2026-03-30T14:49:14.999Z</time></trkpt><trkpt lat="42.416637344221215" lon="-8.097519135161356"><ele>406.0</ele><time>2026-03-30T14:49:15.999Z</time></trkpt><trkpt lat="42.41655056790565" lon="-8.097702554570885"><ele>406.0</ele><time>2026-03-30T14:49:16.999Z</time></trkpt><trkpt lat="42.41647376121678" lon="-8.097902988784773"><ele>406.0</ele><time>2026-03-30T14:49:17.999Z</time></trkpt><trkpt lat="42.41637194824581" lon="-8.098101617964883"><ele>406.0</ele><time>2026-03-30T14:49:18.999Z</time></trkpt><trkpt lat="42.4162857312503" lon="-8.098299188160432"><ele>404.6666666666667</ele><time>2026-03-30T14:49:19.999Z</time></trkpt><trkpt lat="42.41621311294144" lon="-8.098503248543208"><ele>403.33333333333337</ele><time>2026-03-30T14:49:20.999Z</time></trkpt><trkpt lat="42.41614915147193" lon="-8.098674481526249"><ele>402.0</ele><time>2026-03-30T14:49:21.999Z</time></trkpt><trkpt lat="42.41609917599181" lon="-8.098864553687793"><ele>402.0</ele><time>2026-03-30T14:49:22.999Z</time></trkpt><trkpt lat="42.41607022052189" lon="-8.099046751133846"><ele>402.0</ele><time>2026-03-30T14:49:23.999Z</time></trkpt><trkpt lat="42.4160364966039" lon="-8.099262339957429"><ele>402.0</ele><time>2026-03-30T14:49:24.999Z</time></trkpt><trkpt lat="42.415987151622446" lon="-8.099472044456274"><ele>403.0</ele><time>2026-03-30T14:49:25.999Z</time></trkpt><trkpt lat="42.41594460339985" lon="-8.09967647762338"><ele>404.0</ele><time>2026-03-30T14:49:26.999Z</time></trkpt><trkpt lat="42.415912255710964" lon="-8.099866253567832"><ele>405.0</ele><time>2026-03-30T14:49:27.999Z</time></trkpt><trkpt lat="42.41588305429142" lon="-8.100050020802374"><ele>406.0</ele><time>2026-03-30T14:49:28.999Z</time></trkpt><trkpt lat="42.415843146835364" lon="-8.100217564396596"><ele>406.0</ele><time>2026-03-30T14:49:29.999Z</time></trkpt><trkpt lat="42.415820905822706" lon="-8.10037099736581"><ele>406.0</ele><time>2026-03-30T14:49:30.999Z</time></trkpt><trkpt lat="42.415776318998894" lon="-8.100508232115727"><ele>406.0</ele><time>2026-03-30T14:49:31.999Z</time></trkpt><trkpt lat="42.41572367837884" lon="-8.100645771147708"><ele>406.0</ele><time>2026-03-30T14:49:32.999Z</time></trkpt><trkpt lat="42.415680544289636" lon="-8.10074582560302"><ele>406.0</ele><time>2026-03-30T14:49:33.999Z</time></trkpt><trkpt lat="42.415653173495954" lon="-8.100852243371445"><ele>407.25</ele><time>2026-03-30T14:49:34.999Z</time></trkpt><trkpt lat="42.41573234824896" lon="-8.101018039267514"><ele>408.5</ele><time>2026-03-30T14:49:35.999Z</time></trkpt><trkpt lat="42.415765770952696" lon="-8.101169680903654"><ele>409.75</ele><time>2026-03-30T14:49:36.999Z</time></trkpt><trkpt lat="42.41579765547131" lon="-8.101314042799073"><ele>411.0</ele><time>2026-03-30T14:49:37.999Z</time></trkpt><trkpt lat="42.41584569340848" lon="-8.101452031793533"><ele>411.0</ele><time>2026-03-30T14:49:38.999Z</time></trkpt><trkpt lat="42.4159028339274" lon="-8.101578326611271"><ele>411.0</ele><time>2026-03-30T14:49:39.999Z</time></trkpt><trkpt lat="42.41593322247413" lon="-8.101661509160662"><ele>411.0</ele><time>2026-03-30T14:49:40.999Z</time></trkpt><trkpt lat="42.41597725523781" lon="-8.101758783096994"><ele>411.0</ele><time>2026-03-30T14:49:42.999Z</time></trkpt><trkpt lat="42.41591448758601" lon="-8.101921893545262"><ele>411.0</ele><time>2026-03-30T14:49:44.999Z</time></trkpt><trkpt lat="42.41586714547823" lon="-8.102108574795983"><ele>411.5</ele><time>2026-03-30T14:49:46.999Z</time></trkpt><trkpt lat="42.415797211605586" lon="-8.102194098620203"><ele>412.0</ele><time>2026-03-30T14:49:47.999Z</time></trkpt><trkpt lat="42.41573246493975" lon="-8.102270489987509"><ele>412.5</ele><time>2026-03-30T14:49:48.999Z</time></trkpt><trkpt lat="42.415676216642396" lon="-8.102355708902412"><ele>413.0</ele><time>2026-03-30T14:49:50Z</time></trkpt><trkpt lat="42.41564422259887" lon="-8.102448041087552"><ele>413.5</ele><time>2026-03-30T14:49:51Z</time></trkpt><trkpt lat="42.4155983551726" lon="-8.102518340285672"><ele>414.0</ele><time>2026-03-30T14:49:52Z</time></trkpt><trkpt lat="42.41557534749965" lon="-8.102674001623985"><ele>414.4</ele><time>2026-03-30T14:49:54Z</time></trkpt><trkpt lat="42.415561069926234" lon="-8.102786039225043"><ele>414.79999999999995</ele><time>2026-03-30T14:49:57Z</time></trkpt><trkpt lat="42.41571646798321" lon="-8.102804889628043"><ele>415.20000000000005</ele><time>2026-03-30T14:49:59Z</time></trkpt><trkpt lat="42.41580655263728" lon="-8.102771534454128"><ele>415.6</ele><time>2026-03-30T14:50:01Z</time></trkpt><trkpt lat="42.41587520099562" lon="-8.102773172855883"><ele>416.0</ele><time>2026-03-30T14:50:03Z</time></trkpt><trkpt lat="42.41595214446144" lon="-8.10273785739023"><ele>416.0</ele><time>2026-03-30T14:50:07Z</time></trkpt><trkpt lat="42.41601247480848" lon="-8.10277948828464"><ele>416.0</ele><time>2026-03-30T14:50:24Z</time></trkpt><trkpt lat="42.4159491807208" lon="-8.102814844099695"><ele>416.0</ele><time>2026-03-30T14:51:58.999Z</time></trkpt><trkpt lat="42.41584671507426" lon="-8.102821273882212"><ele>416.0</ele><time>2026-03-30T14:52:01.999Z</time></trkpt><trkpt lat="42.41568591263509" lon="-8.102804944587726"><ele>416.0</ele><time>2026-03-30T14:52:05Z</time></trkpt><trkpt lat="42.415618724106054" lon="-8.102764833549056"><ele>415.99999999999994</ele><time>2026-03-30T14:52:06Z</time></trkpt><trkpt lat="42.41562024348101" lon="-8.102644205320912"><ele>416.0</ele><time>2026-03-30T14:52:08Z</time></trkpt><trkpt lat="42.41556527834758" lon="-8.102534395470688"><ele>416.0</ele><time>2026-03-30T14:52:09Z</time></trkpt><trkpt lat="42.41560718932565" lon="-8.102427217357553"><ele>416.0</ele><time>2026-03-30T14:52:10Z</time></trkpt><trkpt lat="42.415659520645" lon="-8.10234523267143"><ele>415.99999999999994</ele><time>2026-03-30T14:52:11Z</time></trkpt><trkpt lat="42.41570925675697" lon="-8.102263120008375"><ele>416.0</ele><time>2026-03-30T14:52:12Z</time></trkpt><trkpt lat="42.41575694796361" lon="-8.102188615395024"><ele>415.6</ele><time>2026-03-30T14:52:13Z</time></trkpt><trkpt lat="42.4158286703772" lon="-8.102065040619221"><ele>415.20000000000005</ele><time>2026-03-30T14:52:15Z</time></trkpt><trkpt lat="42.41587563090818" lon="-8.101968211139498"><ele>414.79999999999995</ele><time>2026-03-30T14:52:17Z</time></trkpt><trkpt lat="42.41591020913869" lon="-8.101855343358418"><ele>414.4</ele><time>2026-03-30T14:52:19Z</time></trkpt><trkpt lat="42.4159576893299" lon="-8.10176661330029"><ele>414.0</ele><time>2026-03-30T14:52:23Z</time></trkpt><trkpt lat="42.4160557899713" lon="-8.101842786110037"><ele>414.00000000000006</ele><time>2026-03-30T14:52:24Z</time></trkpt><trkpt lat="42.4161075428828" lon="-8.101950747696984"><ele>414.0</ele><time>2026-03-30T14:52:26Z</time></trkpt><trkpt lat="42.416147381020174" lon="-8.102021951636457"><ele>414.0</ele><time>2026-03-30T14:52:28Z</time></trkpt><trkpt lat="42.41619098569081" lon="-8.102084123532897"><ele>414.0</ele><time>2026-03-30T14:52:30Z</time></trkpt><trkpt lat="42.41623667093957" lon="-8.1021505530462"><ele>414.0</ele><time>2026-03-30T14:52:32Z</time></trkpt><trkpt lat="42.41628100226997" lon="-8.102221984451981"><ele>414.00000000000006</ele><time>2026-03-30T14:52:34Z</time></trkpt><trkpt lat="42.41633847883407" lon="-8.102283510826165"><ele>414.0</ele><time>2026-03-30T14:52:35.999Z</time></trkpt><trkpt lat="42.416385170262345" lon="-8.102344480953878"><ele>414.4</ele><time>2026-03-30T14:52:37.999Z</time></trkpt><trkpt lat="42.416249559416755" lon="-8.102534827058399"><ele>414.79999999999995</ele><time>2026-03-30T14:52:50.999Z</time></trkpt><trkpt lat="42.41621696576807" lon="-8.102617549964108"><ele>415.20000000000005</ele><time>2026-03-30T14:52:53.999Z</time></trkpt><trkpt lat="42.41628717668916" lon="-8.102685784808154"><ele>415.6</ele><time>2026-03-30T15:04:59Z</time></trkpt><trkpt lat="42.41623204838855" lon="-8.10263511372364"><ele>416.0</ele><time>2026-03-30T15:05:06Z</time></trkpt><trkpt lat="42.41624044186176" lon="-8.102531810118128"><ele>415.99999999999994</ele><time>2026-03-30T15:07:18Z</time></trkpt><trkpt lat="42.416298162270046" lon="-8.102464163283642"><ele>416.0</ele><time>2026-03-30T15:07:21Z</time></trkpt><trkpt lat="42.41635718511278" lon="-8.102432348669675"><ele>416.0</ele><time>2026-03-30T15:07:23Z</time></trkpt><trkpt lat="42.416371949456526" lon="-8.102342234875234"><ele>416.0</ele><time>2026-03-30T15:07:32Z</time></trkpt><trkpt lat="42.416396621951606" lon="-8.102429126839054"><ele>415.99999999999994</ele><time>2026-03-30T15:07:47.999Z</time></trkpt><trkpt lat="42.416393170680024" lon="-8.102322854331977"><ele>416.0</ele><time>2026-03-30T15:08:04.999Z</time></trkpt><trkpt lat="42.416316757967806" lon="-8.102210154561648"><ele>415.66666666666663</ele><time>2026-03-30T15:08:06.999Z</time></trkpt><trkpt lat="42.41621802457021" lon="-8.102129613796937"><ele>415.3333333333333</ele><time>2026-03-30T15:08:08.999Z</time></trkpt><trkpt lat="42.416148448001756" lon="-8.102093583284462"><ele>415.0</ele><time>2026-03-30T15:08:09.999Z</time></trkpt><trkpt lat="42.41609045315865" lon="-8.102012784004572"><ele>414.66666666666663</ele><time>2026-03-30T15:08:10.999Z</time></trkpt><trkpt lat="42.41603938614154" lon="-8.10193653301523"><ele>414.3333333333333</ele><time>2026-03-30T15:08:11.999Z</time></trkpt><trkpt lat="42.41598657872703" lon="-8.10184919544737"><ele>414.0</ele><time>2026-03-30T15:08:12.999Z</time></trkpt><trkpt lat="42.415937758623855" lon="-8.101758307395954"><ele>414.0</ele><time>2026-03-30T15:08:13.999Z</time></trkpt><trkpt lat="42.415884832865714" lon="-8.101659887866392"><ele>414.0</ele><time>2026-03-30T15:08:14.999Z</time></trkpt><trkpt lat="42.41583613415733" lon="-8.101539000850162"><ele>414.0</ele><time>2026-03-30T15:08:15.999Z</time></trkpt><trkpt lat="42.41579557607897" lon="-8.101415745144852"><ele>414.0</ele><time>2026-03-30T15:08:16.999Z</time></trkpt><trkpt lat="42.41577804618901" lon="-8.101296122259438"><ele>414.0</ele><time>2026-03-30T15:08:17.999Z</time></trkpt><trkpt lat="42.415734946738674" lon="-8.101187273921111"><ele>413.5</ele><time>2026-03-30T15:08:18.999Z</time></trkpt><trkpt lat="42.41571037782299" lon="-8.101078033322166"><ele>413.0</ele><time>2026-03-30T15:08:19.999Z</time></trkpt><trkpt lat="42.415690003183855" lon="-8.100981487458117"><ele>412.5</ele><time>2026-03-30T15:08:20.999Z</time></trkpt><trkpt lat="42.415675891806664" lon="-8.100890993129156"><ele>412.0</ele><time>2026-03-30T15:08:21.999Z</time></trkpt><trkpt lat="42.415626362344504" lon="-8.100823660085627"><ele>411.5</ele><time>2026-03-30T15:08:22.999Z</time></trkpt><trkpt lat="42.41563989263121" lon="-8.10067390262196"><ele>411.0</ele><time>2026-03-30T15:08:24.999Z</time></trkpt><trkpt lat="42.41567458241108" lon="-8.10057888537048"><ele>410.0</ele><time>2026-03-30T15:08:25.999Z</time></trkpt><trkpt lat="42.41573229074988" lon="-8.100478332846535"><ele>409.0</ele><time>2026-03-30T15:08:26.999Z</time></trkpt><trkpt lat="42.41577241210989" lon="-8.100364991423023"><ele>408.0</ele><time>2026-03-30T15:08:27.999Z</time></trkpt><trkpt lat="42.41579927458866" lon="-8.100238051317573"><ele>407.0</ele><time>2026-03-30T15:08:28.999Z</time></trkpt><trkpt lat="42.41582480785424" lon="-8.100107451574337"><ele>406.0</ele><time>2026-03-30T15:08:29.999Z</time></trkpt><trkpt lat="42.41584756057003" lon="-8.099958569314513"><ele>406.0</ele><time>2026-03-30T15:08:30.999Z</time></trkpt><trkpt lat="42.41588313791623" lon="-8.099822261805798"><ele>406.0</ele><time>2026-03-30T15:08:31.999Z</time></trkpt><trkpt lat="42.41591024376228" lon="-8.09967780875821"><ele>406.0</ele><time>2026-03-30T15:08:32.999Z</time></trkpt><trkpt lat="42.415939158176045" lon="-8.099531058610713"><ele>406.0</ele><time>2026-03-30T15:08:33.999Z</time></trkpt><trkpt lat="42.41596623117288" lon="-8.09938982314206"><ele>406.0</ele><time>2026-03-30T15:08:34.999Z</time></trkpt><trkpt lat="42.41598686739645" lon="-8.099253366634779"><ele>406.0</ele><time>2026-03-30T15:08:35.999Z</time></trkpt><trkpt lat="42.41602660399252" lon="-8.099100556949514"><ele>406.0</ele><time>2026-03-30T15:08:36.999Z</time></trkpt><trkpt lat="42.41602761153009" lon="-8.09895676313296"><ele>406.0</ele><time>2026-03-30T15:08:37.999Z</time></trkpt><trkpt lat="42.41606624757756" lon="-8.098795862666451"><ele>406.0</ele><time>2026-03-30T15:08:38.999Z</time></trkpt><trkpt lat="42.416108947288585" lon="-8.098642157019182"><ele>406.0</ele><time>2026-03-30T15:08:39.999Z</time></trkpt><trkpt lat="42.41617159614519" lon="-8.098494710060269"><ele>406.0</ele><time>2026-03-30T15:08:40.999Z</time></trkpt><trkpt lat="42.41622813875641" lon="-8.098345102515095"><ele>406.0</ele><time>2026-03-30T15:08:41.999Z</time></trkpt><trkpt lat="42.416319002622686" lon="-8.098185773917367"><ele>406.0</ele><time>2026-03-30T15:08:42.999Z</time></trkpt><trkpt lat="42.416373774035506" lon="-8.09804360582659"><ele>406.0</ele><time>2026-03-30T15:08:44Z</time></trkpt><trkpt lat="42.416440718887834" lon="-8.097891318487957"><ele>406.0</ele><time>2026-03-30T15:08:45Z</time></trkpt><trkpt lat="42.416508237165004" lon="-8.097727780578527"><ele>406.0</ele><time>2026-03-30T15:08:46Z</time></trkpt><trkpt lat="42.416576864671256" lon="-8.09756848884977"><ele>406.0</ele><time>2026-03-30T15:08:47Z</time></trkpt><trkpt lat="42.416653707219986" lon="-8.097414886253915"><ele>406.0</ele><time>2026-03-30T15:08:48Z</time></trkpt><trkpt lat="42.41671793918334" lon="-8.097260412268565"><ele>406.0</ele><time>2026-03-30T15:08:49Z</time></trkpt><trkpt lat="42.41676905612124" lon="-8.097099194341896"><ele>406.0</ele><time>2026-03-30T15:08:50Z</time></trkpt><trkpt lat="42.41681560486256" lon="-8.09694765323848"><ele>406.0</ele><time>2026-03-30T15:08:51Z</time></trkpt><trkpt lat="42.416860014572514" lon="-8.096808150668442"><ele>406.0</ele><time>2026-03-30T15:08:52Z</time></trkpt><trkpt lat="42.416900077607956" lon="-8.09666075523623"><ele>406.0</ele><time>2026-03-30T15:08:53Z</time></trkpt><trkpt lat="42.416957691681425" lon="-8.096513526638816"><ele>406.0</ele><time>2026-03-30T15:08:54Z</time></trkpt><trkpt lat="42.4170110568494" lon="-8.096370463831871"><ele>406.0</ele><time>2026-03-30T15:08:55Z</time></trkpt><trkpt lat="42.41706254444161" lon="-8.096242270231725"><ele>406.0</ele><time>2026-03-30T15:08:56Z</time></trkpt><trkpt lat="42.41713016249545" lon="-8.096122026200511"><ele>406.0</ele><time>2026-03-30T15:08:57Z</time></trkpt><trkpt lat="42.41719960637056" lon="-8.09600784777867"><ele>406.0</ele><time>2026-03-30T15:08:58Z</time></trkpt><trkpt lat="42.41728369761769" lon="-8.09590066300223"><ele>406.0</ele><time>2026-03-30T15:08:59Z</time></trkpt><trkpt lat="42.417351753351724" lon="-8.095789494070614"><ele>406.0</ele><time>2026-03-30T15:09:00Z</time></trkpt><trkpt lat="42.417421273556336" lon="-8.095690117443464"><ele>405.20000000000005</ele><time>2026-03-30T15:09:01Z</time></trkpt><trkpt lat="42.417481301028005" lon="-8.095561901323215"><ele>404.40000000000003</ele><time>2026-03-30T15:09:02Z</time></trkpt><trkpt lat="42.41751985096139" lon="-8.09544014499886"><ele>403.6</ele><time>2026-03-30T15:09:03Z</time></trkpt><trkpt lat="42.41754544329735" lon="-8.095324341826515"><ele>402.8</ele><time>2026-03-30T15:09:04Z</time></trkpt><trkpt lat="42.41757412851942" lon="-8.095208900086474"><ele>402.0</ele><time>2026-03-30T15:09:05Z</time></trkpt><trkpt lat="42.41761232538956" lon="-8.095091017616257"><ele>402.0</ele><time>2026-03-30T15:09:06Z</time></trkpt><trkpt lat="42.41764975458401" lon="-8.094993189939176"><ele>402.0</ele><time>2026-03-30T15:09:07Z</time></trkpt><trkpt lat="42.41770324689197" lon="-8.09489552273208"><ele>402.0</ele><time>2026-03-30T15:09:08Z</time></trkpt><trkpt lat="42.41776756953897" lon="-8.09480194444778"><ele>402.0</ele><time>2026-03-30T15:09:09Z</time></trkpt><trkpt lat="42.41783853379015" lon="-8.09469467298039"><ele>402.0</ele><time>2026-03-30T15:09:10Z</time></trkpt><trkpt lat="42.417899592825115" lon="-8.094575418398037"><ele>402.0</ele><time>2026-03-30T15:09:11Z</time></trkpt><trkpt lat="42.41793930934645" lon="-8.094437000998283"><ele>402.0</ele><time>2026-03-30T15:09:12Z</time></trkpt><trkpt lat="42.41800270970264" lon="-8.09430482161775"><ele>402.0</ele><time>2026-03-30T15:09:13Z</time></trkpt><trkpt lat="42.41805232969891" lon="-8.094168916778516"><ele>402.0</ele><time>2026-03-30T15:09:14Z</time></trkpt><trkpt lat="42.41811411235062" lon="-8.094053756951658"><ele>402.0</ele><time>2026-03-30T15:09:15Z</time></trkpt><trkpt lat="42.41819872760846" lon="-8.093925974177731"><ele>403.75</ele><time>2026-03-30T15:09:16Z</time></trkpt><trkpt lat="42.418284233827826" lon="-8.093820001349295"><ele>405.5</ele><time>2026-03-30T15:09:17Z</time></trkpt><trkpt lat="42.418379524544534" lon="-8.093715379856413"><ele>407.25</ele><time>2026-03-30T15:09:18Z</time></trkpt><trkpt lat="42.418471878067066" lon="-8.093607706872119"><ele>409.0</ele><time>2026-03-30T15:09:19Z</time></trkpt><trkpt lat="42.418559006657844" lon="-8.093513808693647"><ele>409.0</ele><time>2026-03-30T15:09:20Z</time></trkpt><trkpt lat="42.418647332437196" lon="-8.093421410495568"><ele>409.0</ele><time>2026-03-30T15:09:21Z</time></trkpt><trkpt lat="42.418723523436356" lon="-8.093323555089665"><ele>409.0</ele><time>2026-03-30T15:09:22Z</time></trkpt><trkpt lat="42.41879628540858" lon="-8.093214845991708"><ele>409.0</ele><time>2026-03-30T15:09:22.999Z</time></trkpt><trkpt lat="42.41886925175455" lon="-8.093124405573668"><ele>409.0</ele><time>2026-03-30T15:09:23.999Z</time></trkpt><trkpt lat="42.41892943803385" lon="-8.093037960624654"><ele>409.0</ele><time>2026-03-30T15:09:24.999Z</time></trkpt><trkpt lat="42.4189712699859" lon="-8.092922879415163"><ele>409.0</ele><time>2026-03-30T15:09:25.999Z</time></trkpt><trkpt lat="42.41901673637264" lon="-8.092831468551628"><ele>409.0</ele><time>2026-03-30T15:09:26.999Z</time></trkpt><trkpt lat="42.41905206556308" lon="-8.092706518394468"><ele>409.0</ele><time>2026-03-30T15:09:27.999Z</time></trkpt><trkpt lat="42.419083659824985" lon="-8.092596407161649"><ele>409.0</ele><time>2026-03-30T15:09:28.999Z</time></trkpt><trkpt lat="42.41912515007253" lon="-8.092491204661526"><ele>408.6666666666667</ele><time>2026-03-30T15:09:29.999Z</time></trkpt><trkpt lat="42.41916278825841" lon="-8.092399178553924"><ele>408.33333333333337</ele><time>2026-03-30T15:09:30.999Z</time></trkpt><trkpt lat="42.41920202707759" lon="-8.092300340983702"><ele>408.0</ele><time>2026-03-30T15:09:31.999Z</time></trkpt><trkpt lat="42.41923446266957" lon="-8.092214546613212"><ele>407.66666666666663</ele><time>2026-03-30T15:09:32.999Z</time></trkpt><trkpt lat="42.419274357278695" lon="-8.092144538978134"><ele>407.3333333333333</ele><time>2026-03-30T15:09:33.999Z</time></trkpt><trkpt lat="42.41932816453123" lon="-8.092097074320993"><ele>407.0</ele><time>2026-03-30T15:09:39.999Z</time></trkpt><trkpt lat="42.41946443184572" lon="-8.092162074163952"><ele>407.0</ele><time>2026-03-30T15:09:40.999Z</time></trkpt><trkpt lat="42.41954758320769" lon="-8.092137893344324"><ele>407.0</ele><time>2026-03-30T15:09:41.999Z</time></trkpt><trkpt lat="42.41964269233604" lon="-8.092125841488231"><ele>407.0</ele><time>2026-03-30T15:09:42.999Z</time></trkpt><trkpt lat="42.4197393739328" lon="-8.092137607384815"><ele>407.0</ele><time>2026-03-30T15:09:43.999Z</time></trkpt><trkpt lat="42.419820522580864" lon="-8.09213418689191"><ele>407.0</ele><time>2026-03-30T15:09:44.999Z</time></trkpt><trkpt lat="42.419914796831456" lon="-8.092171606505328"><ele>405.99999999999994</ele><time>2026-03-30T15:09:48.999Z</time></trkpt><trkpt lat="42.419987808327996" lon="-8.092179319811622"><ele>405.0</ele><time>2026-03-30T15:09:49.999Z</time></trkpt><trkpt lat="42.42007968246397" lon="-8.092200446304531"><ele>404.0</ele><time>2026-03-30T15:09:50.999Z</time></trkpt><trkpt lat="42.42016652982225" lon="-8.092230323078873"><ele>403.0</ele><time>2026-03-30T15:09:51.999Z</time></trkpt><trkpt lat="42.42025604952994" lon="-8.092232392662721"><ele>401.99999999999994</ele><time>2026-03-30T15:09:52.999Z</time></trkpt><trkpt lat="42.4203313450103" lon="-8.09226283774911"><ele>401.0</ele><time>2026-03-30T15:09:53.999Z</time></trkpt><trkpt lat="42.420400371698655" lon="-8.092246641881633"><ele>400.0</ele><time>2026-03-30T15:09:54.999Z</time></trkpt><trkpt lat="42.42051629372074" lon="-8.09224681020961"><ele>399.0</ele><time>2026-03-30T15:09:56.999Z</time></trkpt><trkpt lat="42.42061519558748" lon="-8.092349739122376"><ele>398.0</ele><time>2026-03-30T15:09:58.999Z</time></trkpt><trkpt lat="42.42069860877446" lon="-8.092407766638777"><ele>397.0</ele><time>2026-03-30T15:10:00.999Z</time></trkpt><trkpt lat="42.420744538322936" lon="-8.092234704301617"><ele>397.0</ele><time>2026-03-30T15:10:02.999Z</time></trkpt><trkpt lat="42.4208104819413" lon="-8.092175754123765"><ele>397.0</ele><time>2026-03-30T15:11:03.999Z</time></trkpt><trkpt lat="42.420836461373966" lon="-8.0920402896329"><ele>397.0</ele><time>2026-03-30T15:11:04.999Z</time></trkpt><trkpt lat="42.42085211868116" lon="-8.091873810201323"><ele>397.0</ele><time>2026-03-30T15:11:05.999Z</time></trkpt><trkpt lat="42.42087965218434" lon="-8.091725606978697"><ele>397.0</ele><time>2026-03-30T15:11:06.999Z</time></trkpt><trkpt lat="42.420895853954555" lon="-8.091564192418403"><ele>398.0</ele><time>2026-03-30T15:11:07.999Z</time></trkpt><trkpt lat="42.4208784358952" lon="-8.091402058131969"><ele>399.0</ele><time>2026-03-30T15:11:08.999Z</time></trkpt><trkpt lat="42.420860100242194" lon="-8.091242108696699"><ele>400.0</ele><time>2026-03-30T15:11:09.999Z</time></trkpt><trkpt lat="42.42084090193418" lon="-8.091084342742052"><ele>401.0</ele><time>2026-03-30T15:11:10.999Z</time></trkpt><trkpt lat="42.42081659857525" lon="-8.090932189563945"><ele>400.99999999999994</ele><time>2026-03-30T15:11:11.999Z</time></trkpt><trkpt lat="42.42078024305002" lon="-8.090806840781585"><ele>401.0</ele><time>2026-03-30T15:11:12.999Z</time></trkpt><trkpt lat="42.42073941250224" lon="-8.0907408435751"><ele>401.0</ele><time>2026-03-30T15:11:13.999Z</time></trkpt><trkpt lat="42.42066134192075" lon="-8.090708592219944"><ele>401.0</ele><time>2026-03-30T15:11:14.999Z</time></trkpt><trkpt lat="42.42058969196941" lon="-8.090673092865831"><ele>400.99999999999994</ele><time>2026-03-30T15:11:15.999Z</time></trkpt><trkpt lat="42.42051000191202" lon="-8.090619879681936"><ele>401.0</ele><time>2026-03-30T15:11:17.999Z</time></trkpt><trkpt lat="42.42052772129422" lon="-8.090397348387778"><ele>402.25</ele><time>2026-03-30T15:11:21.999Z</time></trkpt><trkpt lat="42.4206099024229" lon="-8.090303179831501"><ele>403.5</ele><time>2026-03-30T15:11:22.999Z</time></trkpt><trkpt lat="42.42070161197997" lon="-8.090200330350863"><ele>404.75</ele><time>2026-03-30T15:11:23.999Z</time></trkpt><trkpt lat="42.420793536178564" lon="-8.090090495505573"><ele>406.0</ele><time>2026-03-30T15:11:24.999Z</time></trkpt><trkpt lat="42.42089841754796" lon="-8.089968769453987"><ele>407.0</ele><time>2026-03-30T15:11:25.999Z</time></trkpt><trkpt lat="42.421049118991995" lon="-8.089837362249094"><ele>408.0</ele><time>2026-03-30T15:11:26.999Z</time></trkpt><trkpt lat="42.42115905388808" lon="-8.08970751711366"><ele>409.0</ele><time>2026-03-30T15:11:27.999Z</time></trkpt><trkpt lat="42.421280450977896" lon="-8.089580994540816"><ele>409.6666666666667</ele><time>2026-03-30T15:11:28.999Z</time></trkpt><trkpt lat="42.42139853854935" lon="-8.08944898374626"><ele>410.33333333333337</ele><time>2026-03-30T15:11:29.999Z</time></trkpt><trkpt lat="42.42152380590778" lon="-8.08931380214282"><ele>411.0</ele><time>2026-03-30T15:11:30.999Z</time></trkpt><trkpt lat="42.421653030551404" lon="-8.089178548399136"><ele>412.66666666666663</ele><time>2026-03-30T15:11:31.999Z</time></trkpt><trkpt lat="42.42178074477511" lon="-8.08904492271998"><ele>414.3333333333333</ele><time>2026-03-30T15:11:32.999Z</time></trkpt><trkpt lat="42.421907977518636" lon="-8.088910154670833"><ele>416.0</ele><time>2026-03-30T15:11:33.999Z</time></trkpt><trkpt lat="42.42204109093014" lon="-8.088792584129303"><ele>417.0</ele><time>2026-03-30T15:11:34.999Z</time></trkpt><trkpt lat="42.42217858931704" lon="-8.088684980245102"><ele>418.0</ele><time>2026-03-30T15:11:35.999Z</time></trkpt><trkpt lat="42.422321975898775" lon="-8.088573941997975"><ele>419.0</ele><time>2026-03-30T15:11:36.999Z</time></trkpt><trkpt lat="42.42245735743769" lon="-8.08847156631479"><ele>419.0</ele><time>2026-03-30T15:11:37.999Z</time></trkpt><trkpt lat="42.42259140776449" lon="-8.088370197247052"><ele>419.0</ele><time>2026-03-30T15:11:38.999Z</time></trkpt><trkpt lat="42.42271526090979" lon="-8.088277642006243"><ele>419.0</ele><time>2026-03-30T15:11:39.999Z</time></trkpt><trkpt lat="42.422861906163156" lon="-8.088179574342067"><ele>417.0</ele><time>2026-03-30T15:11:40.999Z</time></trkpt><trkpt lat="42.423007783282756" lon="-8.088100606147009"><ele>415.0</ele><time>2026-03-30T15:11:41.999Z</time></trkpt><trkpt lat="42.42317031500308" lon="-8.088056445037056"><ele>413.0</ele><time>2026-03-30T15:11:42.999Z</time></trkpt><trkpt lat="42.42330480050111" lon="-8.087980959692189"><ele>413.0</ele><time>2026-03-30T15:11:43.999Z</time></trkpt><trkpt lat="42.42343905982145" lon="-8.087921378558411"><ele>413.0</ele><time>2026-03-30T15:11:44.999Z</time></trkpt><trkpt lat="42.42357095149749" lon="-8.087859453982595"><ele>413.0</ele><time>2026-03-30T15:11:45.999Z</time></trkpt><trkpt lat="42.42369697050294" lon="-8.087795433251182"><ele>413.0</ele><time>2026-03-30T15:11:46.999Z</time></trkpt><trkpt lat="42.42380941444969" lon="-8.087729338864968"><ele>412.4</ele><time>2026-03-30T15:11:47.999Z</time></trkpt><trkpt lat="42.423918211205915" lon="-8.087641390978545"><ele>411.79999999999995</ele><time>2026-03-30T15:11:48.999Z</time></trkpt><trkpt lat="42.423981869766365" lon="-8.087561642021113"><ele>411.2</ele><time>2026-03-30T15:11:49.999Z</time></trkpt><trkpt lat="42.424050350580345" lon="-8.087476050860431"><ele>410.6</ele><time>2026-03-30T15:11:50.999Z</time></trkpt><trkpt lat="42.42409840301715" lon="-8.087415242571808"><ele>410.0</ele><time>2026-03-30T15:11:51.999Z</time></trkpt><trkpt lat="42.42416458966955" lon="-8.087330350140654"><ele>408.0</ele><time>2026-03-30T15:11:53.999Z</time></trkpt><trkpt lat="42.424224268892196" lon="-8.087253804255988"><ele>408.0</ele><time>2026-03-30T15:11:59.999Z</time></trkpt></trkseg><trkseg><trkpt lat="42.43128320638422" lon="-8.078491331849884"><ele>408.33333333333337</ele><time>2026-03-30T15:33:53.775Z</time></trkpt><trkpt lat="42.431461798370414" lon="-8.078508324124495"><ele>408.6666666666667</ele><time>2026-03-30T15:33:54.772Z</time></trkpt><trkpt lat="42.43163184995205" lon="-8.078694939359597"><ele>409.0</ele><time>2026-03-30T15:33:54.995Z</time></trkpt><trkpt lat="42.4315293616523" lon="-8.07859774225013"><ele>409.0</ele><time>2026-03-30T15:34:01Z</time></trkpt><trkpt lat="42.43155909094694" lon="-8.078451068594745"><ele>409.0</ele><time>2026-03-30T15:34:15Z</time></trkpt><trkpt lat="42.431555609663675" lon="-8.078324553336817"><ele>409.0</ele><time>2026-03-30T15:34:17Z</time></trkpt><trkpt lat="42.43156774076071" lon="-8.078208698065348"><ele>409.0</ele><time>2026-03-30T15:34:18Z</time></trkpt><trkpt lat="42.43152145050565" lon="-8.078061918350732"><ele>409.0</ele><time>2026-03-30T15:34:20Z</time></trkpt><trkpt lat="42.431485125306594" lon="-8.077986807449241"><ele>408.83333333333337</ele><time>2026-03-30T15:34:21Z</time></trkpt><trkpt lat="42.43142690400385" lon="-8.077906958497815"><ele>408.6666666666667</ele><time>2026-03-30T15:34:23Z</time></trkpt><trkpt lat="42.43138712985801" lon="-8.077973632496557"><ele>408.5</ele><time>2026-03-30T15:34:36Z</time></trkpt><trkpt lat="42.43133667917236" lon="-8.077830630116551"><ele>408.33333333333337</ele><time>2026-03-30T15:34:40Z</time></trkpt><trkpt lat="42.43128792299624" lon="-8.077769753871182"><ele>408.1666666666667</ele><time>2026-03-30T15:34:41Z</time></trkpt><trkpt lat="42.43124488763463" lon="-8.077696639564037"><ele>408.0</ele><time>2026-03-30T15:34:42Z</time></trkpt><trkpt lat="42.431219312280135" lon="-8.077541991959247"><ele>408.0</ele><time>2026-03-30T15:34:44Z</time></trkpt><trkpt lat="42.43118753434342" lon="-8.077448776681516"><ele>408.0</ele><time>2026-03-30T15:34:45Z</time></trkpt><trkpt lat="42.43115337586311" lon="-8.077366276497196"><ele>408.0</ele><time>2026-03-30T15:34:46Z</time></trkpt><trkpt lat="42.431121979240174" lon="-8.077276744090158"><ele>408.0</ele><time>2026-03-30T15:34:47Z</time></trkpt><trkpt lat="42.43104514024695" lon="-8.077203691197077"><ele>408.0</ele><time>2026-03-30T15:34:48Z</time></trkpt><trkpt lat="42.431016243148655" lon="-8.077111632070936"><ele>408.0</ele><time>2026-03-30T15:34:49Z</time></trkpt><trkpt lat="42.43099448730986" lon="-8.077030543441852"><ele>398.0</ele><time>2026-03-30T15:34:50Z</time></trkpt><trkpt lat="42.42937027593873" lon="-8.077947680285204"><ele>397.99999999999994</ele><time>2026-03-30T15:35:51.999Z</time></trkpt><trkpt lat="42.42930187307385" lon="-8.078014003160034"><ele>398.0</ele><time>2026-03-30T15:35:52.999Z</time></trkpt><trkpt lat="42.42925067980217" lon="-8.078065474499406"><ele>398.0</ele><time>2026-03-30T15:35:53.999Z</time></trkpt><trkpt lat="42.429199701131765" lon="-8.078117289411102"><ele>398.0</ele><time>2026-03-30T15:35:54.999Z</time></trkpt><trkpt lat="42.429148614988996" lon="-8.078174684353588"><ele>397.99999999999994</ele><time>2026-03-30T15:35:55.999Z</time></trkpt><trkpt lat="42.42905969302077" lon="-8.07829840403764"><ele>398.0</ele><time>2026-03-30T15:35:57.999Z</time></trkpt><trkpt lat="42.42898960035539" lon="-8.078421364506513"><ele>398.66666666666663</ele><time>2026-03-30T15:35:59.999Z</time></trkpt><trkpt lat="42.42893892262388" lon="-8.078516516340773"><ele>399.3333333333333</ele><time>2026-03-30T15:36:01.999Z</time></trkpt><trkpt lat="42.42888800627879" lon="-8.078617268709479"><ele>400.0</ele><time>2026-03-30T15:36:03.999Z</time></trkpt><trkpt lat="42.42884765563844" lon="-8.078712094278792"><ele>400.66666666666663</ele><time>2026-03-30T15:36:06.999Z</time></trkpt><trkpt lat="42.428801315297285" lon="-8.078783124102776"><ele>401.3333333333333</ele><time>2026-03-30T15:36:20.999Z</time></trkpt><trkpt lat="42.428753313838996" lon="-8.078870858096828"><ele>402.0</ele><time>2026-03-30T15:36:23.999Z</time></trkpt><trkpt lat="42.4287121293441" lon="-8.07894010527441"><ele>401.40000000000003</ele><time>2026-03-30T15:36:25.999Z</time></trkpt><trkpt lat="42.42865790877353" lon="-8.079026377006569"><ele>400.8</ele><time>2026-03-30T15:36:28.999Z</time></trkpt><trkpt lat="42.428592314449965" lon="-8.079125235389272"><ele>400.2</ele><time>2026-03-30T15:36:30.999Z</time></trkpt><trkpt lat="42.428510892734955" lon="-8.079226048779384"><ele>399.6</ele><time>2026-03-30T15:36:34.999Z</time></trkpt><trkpt lat="42.42841361628605" lon="-8.079295206908094"><ele>399.0</ele><time>2026-03-30T15:36:36.999Z</time></trkpt><trkpt lat="42.428330077037074" lon="-8.079349957214514"><ele>399.0</ele><time>2026-03-30T15:36:38.999Z</time></trkpt><trkpt lat="42.428246734764976" lon="-8.079413973995745"><ele>399.0</ele><time>2026-03-30T15:36:40.999Z</time></trkpt><trkpt lat="42.42818588273027" lon="-8.07945217224784"><ele>399.0</ele><time>2026-03-30T15:36:42.999Z</time></trkpt><trkpt lat="42.42810502732233" lon="-8.079514539354914"><ele>399.0</ele><time>2026-03-30T15:36:44.999Z</time></trkpt><trkpt lat="42.42804658150356" lon="-8.079562112136914"><ele>399.0</ele><time>2026-03-30T15:36:47.999Z</time></trkpt><trkpt lat="42.42685783302888" lon="-8.085078633639288"><ele>401.0</ele><time>2026-03-30T15:37:52.999Z</time></trkpt><trkpt lat="42.4264433807504" lon="-8.084761904836785"><ele>401.0</ele><time>2026-03-30T15:39:51.999Z</time></trkpt><trkpt lat="42.426349216163324" lon="-8.084718947174924"><ele>401.0</ele><time>2026-03-30T15:39:52.999Z</time></trkpt><trkpt lat="42.426234049065336" lon="-8.084672067611764"><ele>401.0</ele><time>2026-03-30T15:39:53.999Z</time></trkpt><trkpt lat="42.42613183312091" lon="-8.084618687763925"><ele>401.0</ele><time>2026-03-30T15:39:54.999Z</time></trkpt><trkpt lat="42.426027435496515" lon="-8.084562229355186"><ele>401.0</ele><time>2026-03-30T15:39:55.999Z</time></trkpt><trkpt lat="42.42592930516663" lon="-8.08452309242872"><ele>401.0</ele><time>2026-03-30T15:39:56.999Z</time></trkpt><trkpt lat="42.42585705195324" lon="-8.084506786507577"><ele>401.0</ele><time>2026-03-30T15:39:57.999Z</time></trkpt><trkpt lat="42.425752413264" lon="-8.084738731310408"><ele>401.0</ele><time>2026-03-30T15:40:00.999Z</time></trkpt><trkpt lat="42.425706667754184" lon="-8.084879404006847"><ele>401.0</ele><time>2026-03-30T15:40:01.999Z</time></trkpt><trkpt lat="42.42566604165589" lon="-8.085027478732224"><ele>401.0</ele><time>2026-03-30T15:40:02.999Z</time></trkpt><trkpt lat="42.42560799304351" lon="-8.085202566169093"><ele>401.0</ele><time>2026-03-30T15:40:03.999Z</time></trkpt><trkpt lat="42.42554358235174" lon="-8.085364482949428"><ele>401.0</ele><time>2026-03-30T15:40:04.999Z</time></trkpt><trkpt lat="42.425475316602125" lon="-8.085540821954075"><ele>401.0</ele><time>2026-03-30T15:40:05.999Z</time></trkpt><trkpt lat="42.42540163138872" lon="-8.085725722546556"><ele>401.66666666666663</ele><time>2026-03-30T15:40:06.999Z</time></trkpt><trkpt lat="42.42533136946413" lon="-8.085917269766512"><ele>402.33333333333337</ele><time>2026-03-30T15:40:07.999Z</time></trkpt><trkpt lat="42.425233470232314" lon="-8.08610147395635"><ele>403.0</ele><time>2026-03-30T15:40:08.999Z</time></trkpt><trkpt lat="42.425108606388804" lon="-8.08625528984604"><ele>403.0</ele><time>2026-03-30T15:40:09.999Z</time></trkpt><trkpt lat="42.42497516546837" lon="-8.08641660238383"><ele>403.0</ele><time>2026-03-30T15:40:10.999Z</time></trkpt><trkpt lat="42.42484047777103" lon="-8.086568807822772"><ele>403.0</ele><time>2026-03-30T15:40:11.999Z</time></trkpt><trkpt lat="42.42472196471582" lon="-8.086706764944545"><ele>404.25</ele><time>2026-03-30T15:40:12.999Z</time></trkpt><trkpt lat="42.42462017440745" lon="-8.086855421117802"><ele>405.5</ele><time>2026-03-30T15:40:13.999Z</time></trkpt><trkpt lat="42.42451258018866" lon="-8.086958744591836"><ele>406.75</ele><time>2026-03-30T15:40:14.999Z</time></trkpt><trkpt lat="42.42441835033327" lon="-8.087068695824286"><ele>408.0</ele><time>2026-03-30T15:40:15.999Z</time></trkpt><trkpt lat="42.42433615684949" lon="-8.087166578607272"><ele>408.0</ele><time>2026-03-30T15:40:17Z</time></trkpt><trkpt lat="42.42427186603227" lon="-8.087250088393002"><ele>408.0</ele><time>2026-03-30T15:40:18Z</time></trkpt><trkpt lat="42.42421604542123" lon="-8.087361851461413"><ele>408.0</ele><time>2026-03-30T15:40:20Z</time></trkpt></trkseg><trkseg><trkpt lat="42.4240812496792" lon="-8.087267411489979"><ele>408.0</ele><time>2026-03-30T16:19:55.999Z</time></trkpt><trkpt lat="42.42401486396806" lon="-8.087232343521627"><ele>408.0</ele><time>2026-03-30T16:19:56.999Z</time></trkpt><trkpt lat="42.42391402792004" lon="-8.087203127263901"><ele>408.0</ele><time>2026-03-30T16:19:57.999Z</time></trkpt><trkpt lat="42.42417084102205" lon="-8.087352095443567"><ele>401.0</ele><time>2026-03-30T16:19:58.998Z</time></trkpt><trkpt lat="42.425556548020865" lon="-8.085227443162317"><ele>401.0</ele><time>2026-03-30T16:22:52Z</time></trkpt><trkpt lat="42.42560767585738" lon="-8.08511007131606"><ele>401.0</ele><time>2026-03-30T16:22:53Z</time></trkpt><trkpt lat="42.42564584965205" lon="-8.084996088269223"><ele>401.0</ele><time>2026-03-30T16:22:54Z</time></trkpt><trkpt lat="42.425685014780036" lon="-8.08488213320754"><ele>401.0</ele><time>2026-03-30T16:22:55Z</time></trkpt><trkpt lat="42.425718775659206" lon="-8.084763811287255"><ele>401.0</ele><time>2026-03-30T16:22:56Z</time></trkpt><trkpt lat="42.42575467092071" lon="-8.084643856244922"><ele>401.0</ele><time>2026-03-30T16:22:57Z</time></trkpt><trkpt lat="42.425792179417634" lon="-8.084527915944326"><ele>401.0</ele><time>2026-03-30T16:22:58Z</time></trkpt><trkpt lat="42.42582617426704" lon="-8.08441263182956"><ele>401.0</ele><time>2026-03-30T16:22:59Z</time></trkpt><trkpt lat="42.42586884466601" lon="-8.08429539826606"><ele>401.0</ele><time>2026-03-30T16:23:00Z</time></trkpt><trkpt lat="42.425907755255444" lon="-8.084181231962228"><ele>401.0</ele><time>2026-03-30T16:23:01Z</time></trkpt><trkpt lat="42.42595102547403" lon="-8.084064775207535"><ele>401.0</ele><time>2026-03-30T16:23:01.999Z</time></trkpt><trkpt lat="42.425985485962315" lon="-8.083943727011796"><ele>401.0</ele><time>2026-03-30T16:23:02.999Z</time></trkpt><trkpt lat="42.42601982953211" lon="-8.083814452138084"><ele>401.0</ele><time>2026-03-30T16:23:03.999Z</time></trkpt><trkpt lat="42.426057471012534" lon="-8.083688215846095"><ele>401.0</ele><time>2026-03-30T16:23:04.999Z</time></trkpt><trkpt lat="42.42610033398264" lon="-8.083556978413526"><ele>401.0</ele><time>2026-03-30T16:23:05.999Z</time></trkpt><trkpt lat="42.42614422927725" lon="-8.083429231653028"><ele>401.0</ele><time>2026-03-30T16:23:06.999Z</time></trkpt><trkpt lat="42.426192268017004" lon="-8.08329630535479"><ele>401.0</ele><time>2026-03-30T16:23:07.999Z</time></trkpt><trkpt lat="42.42623204043722" lon="-8.083164107800068"><ele>401.0</ele><time>2026-03-30T16:23:08.999Z</time></trkpt><trkpt lat="42.42627774649888" lon="-8.083028099682743"><ele>401.0</ele><time>2026-03-30T16:23:09.999Z</time></trkpt><trkpt lat="42.42632418774432" lon="-8.082897034607193"><ele>401.0</ele><time>2026-03-30T16:23:10.999Z</time></trkpt><trkpt lat="42.426363685581016" lon="-8.082764028003618"><ele>399.8</ele><time>2026-03-30T16:23:11.999Z</time></trkpt><trkpt lat="42.426407458218335" lon="-8.082636635098957"><ele>398.6</ele><time>2026-03-30T16:23:12.999Z</time></trkpt><trkpt lat="42.42644449861187" lon="-8.082516025283372"><ele>397.4</ele><time>2026-03-30T16:23:13.999Z</time></trkpt><trkpt lat="42.42648190297151" lon="-8.082404873221108"><ele>396.2</ele><time>2026-03-30T16:23:14.999Z</time></trkpt><trkpt lat="42.426515983832545" lon="-8.082296696847717"><ele>395.0</ele><time>2026-03-30T16:23:15.999Z</time></trkpt><trkpt lat="42.426547593055254" lon="-8.082204116431587"><ele>395.0</ele><time>2026-03-30T16:23:16.999Z</time></trkpt><trkpt lat="42.4266132566633" lon="-8.082098786525666"><ele>395.0</ele><time>2026-03-30T16:23:18.999Z</time></trkpt><trkpt lat="42.42666981485706" lon="-8.082014308841956"><ele>395.0</ele><time>2026-03-30T16:23:20.999Z</time></trkpt><trkpt lat="42.42675418775936" lon="-8.081893340175826"><ele>395.0</ele><time>2026-03-30T16:23:22.999Z</time></trkpt><trkpt lat="42.42679047660444" lon="-8.081795602934202"><ele>395.0</ele><time>2026-03-30T16:23:23.999Z</time></trkpt><trkpt lat="42.426840378995465" lon="-8.081691060255977"><ele>394.99999999999994</ele><time>2026-03-30T16:23:24.999Z</time></trkpt><trkpt lat="42.42687539498326" lon="-8.081607091456446"><ele>395.0</ele><time>2026-03-30T16:23:25.999Z</time></trkpt><trkpt lat="42.42691542977607" lon="-8.081496937969979"><ele>395.0</ele><time>2026-03-30T16:23:27.999Z</time></trkpt><trkpt lat="42.42698551638202" lon="-8.081362163735418"><ele>395.0</ele><time>2026-03-30T16:23:28.999Z</time></trkpt><trkpt lat="42.42702615929861" lon="-8.081286986295739"><ele>394.99999999999994</ele><time>2026-03-30T16:23:29.999Z</time></trkpt><trkpt lat="42.42706380087295" lon="-8.081218367802883"><ele>395.0</ele><time>2026-03-30T16:23:30.999Z</time></trkpt><trkpt lat="42.4271175701094" lon="-8.081124421503606"><ele>395.16666666666663</ele><time>2026-03-30T16:23:31.999Z</time></trkpt><trkpt lat="42.42716562646979" lon="-8.081041624769663"><ele>395.3333333333333</ele><time>2026-03-30T16:23:32.999Z</time></trkpt><trkpt lat="42.427222363414835" lon="-8.080951181339099"><ele>395.5</ele><time>2026-03-30T16:23:33.999Z</time></trkpt><trkpt lat="42.42727981333017" lon="-8.080866288805014"><ele>395.66666666666663</ele><time>2026-03-30T16:23:34.999Z</time></trkpt><trkpt lat="42.42734016487366" lon="-8.080789665649576"><ele>395.8333333333333</ele><time>2026-03-30T16:23:35.999Z</time></trkpt><trkpt lat="42.42739838060975" lon="-8.08072026164071"><ele>396.0</ele><time>2026-03-30T16:23:36.999Z</time></trkpt><trkpt lat="42.427456461888674" lon="-8.080655866071679"><ele>396.0</ele><time>2026-03-30T16:23:37.999Z</time></trkpt><trkpt lat="42.42752040119419" lon="-8.080588495482193"><ele>396.0</ele><time>2026-03-30T16:23:38.999Z</time></trkpt><trkpt lat="42.42758026336278" lon="-8.080525965652916"><ele>396.0</ele><time>2026-03-30T16:23:39.999Z</time></trkpt><trkpt lat="42.427637754742264" lon="-8.080465912387393"><ele>396.0</ele><time>2026-03-30T16:23:40.999Z</time></trkpt><trkpt lat="42.427698555848266" lon="-8.08040469626593"><ele>396.0</ele><time>2026-03-30T16:23:41.999Z</time></trkpt><trkpt lat="42.42776058346537" lon="-8.080355154566735"><ele>396.0</ele><time>2026-03-30T16:23:42.999Z</time></trkpt><trkpt lat="42.42782569377881" lon="-8.08029037315285"><ele>396.0</ele><time>2026-03-30T16:23:43.999Z</time></trkpt><trkpt lat="42.427889837095336" lon="-8.080227484820817"><ele>396.0</ele><time>2026-03-30T16:23:44.999Z</time></trkpt><trkpt lat="42.42794713709419" lon="-8.080166875781767"><ele>396.0</ele><time>2026-03-30T16:23:45.999Z</time></trkpt><trkpt lat="42.428002937440084" lon="-8.080119180360665"><ele>396.0</ele><time>2026-03-30T16:23:46.999Z</time></trkpt><trkpt lat="42.42809754647681" lon="-8.080031781486205"><ele>396.0</ele><time>2026-03-30T16:23:48.999Z</time></trkpt><trkpt lat="42.428164064986525" lon="-8.07996766094857"><ele>396.0</ele><time>2026-03-30T16:23:50.999Z</time></trkpt><trkpt lat="42.42963003339092" lon="-8.077710347171838"><ele>396.4</ele><time>2026-03-30T16:24:52Z</time></trkpt><trkpt lat="42.429575853266975" lon="-8.077663506607639"><ele>396.8</ele><time>2026-03-30T16:24:53Z</time></trkpt><trkpt lat="42.42949665051983" lon="-8.077588553925677"><ele>397.2</ele><time>2026-03-30T16:24:55Z</time></trkpt><trkpt lat="42.42945352532523" lon="-8.077458800242985"><ele>397.59999999999997</ele><time>2026-03-30T16:24:57Z</time></trkpt><trkpt lat="42.42943644366375" lon="-8.077370564282049"><ele>398.0</ele><time>2026-03-30T16:24:58Z</time></trkpt><trkpt lat="42.42948665172092" lon="-8.077221290772027"><ele>396.59999999999997</ele><time>2026-03-30T16:24:59.999Z</time></trkpt><trkpt lat="42.42950324942864" lon="-8.07713820458836"><ele>395.2</ele><time>2026-03-30T16:25:00.999Z</time></trkpt><trkpt lat="42.42946558102852" lon="-8.076964243239402"><ele>393.8</ele><time>2026-03-30T16:25:02.999Z</time></trkpt><trkpt lat="42.42943965982425" lon="-8.076845253190767"><ele>392.4</ele><time>2026-03-30T16:25:03.999Z</time></trkpt><trkpt lat="42.42942067636468" lon="-8.076718916163514"><ele>391.0</ele><time>2026-03-30T16:25:04.999Z</time></trkpt><trkpt lat="42.4293875158192" lon="-8.076594309607009"><ele>391.0</ele><time>2026-03-30T16:25:05.999Z</time></trkpt><trkpt lat="42.42933707766883" lon="-8.076436754350826"><ele>391.0</ele><time>2026-03-30T16:25:06.999Z</time></trkpt><trkpt lat="42.42930459421059" lon="-8.076245395544325"><ele>391.0</ele><time>2026-03-30T16:25:07.999Z</time></trkpt><trkpt lat="42.4292745891512" lon="-8.07611241242547"><ele>391.0</ele><time>2026-03-30T16:25:08.999Z</time></trkpt><trkpt lat="42.42923755689241" lon="-8.075969170781873"><ele>391.0</ele><time>2026-03-30T16:25:09.999Z</time></trkpt><trkpt lat="42.42921047339751" lon="-8.07585065896194"><ele>391.0</ele><time>2026-03-30T16:25:10.999Z</time></trkpt><trkpt lat="42.42918998107205" lon="-8.075745303272477"><ele>391.0</ele><time>2026-03-30T16:25:11.999Z</time></trkpt><trkpt lat="42.42921174782073" lon="-8.075633186047746"><ele>391.0</ele><time>2026-03-30T16:25:13.999Z</time></trkpt><trkpt lat="42.429359536134214" lon="-8.07564901683357"><ele>391.0</ele><time>2026-03-30T16:25:16.999Z</time></trkpt><trkpt lat="42.42943213948429" lon="-8.075644220620903"><ele>390.8</ele><time>2026-03-30T16:25:17.999Z</time></trkpt><trkpt lat="42.42951354031254" lon="-8.075615042661221"><ele>390.6</ele><time>2026-03-30T16:25:18.999Z</time></trkpt><trkpt lat="42.429615717088375" lon="-8.075621259075543"><ele>390.4</ele><time>2026-03-30T16:25:19.999Z</time></trkpt><trkpt lat="42.4297129654354" lon="-8.075631939347149"><ele>390.2</ele><time>2026-03-30T16:25:20.999Z</time></trkpt><trkpt lat="42.429807479350174" lon="-8.075621106229663"><ele>390.0</ele><time>2026-03-30T16:25:21.999Z</time></trkpt><trkpt lat="42.42989671044588" lon="-8.075596981156725"><ele>391.6666666666667</ele><time>2026-03-30T16:25:22.999Z</time></trkpt><trkpt lat="42.42997548119331" lon="-8.075568237391444"><ele>393.33333333333337</ele><time>2026-03-30T16:25:23.999Z</time></trkpt><trkpt lat="42.43002904798574" lon="-8.075508424872957"><ele>395.0</ele><time>2026-03-30T16:25:24.999Z</time></trkpt><trkpt lat="42.43012079984297" lon="-8.075463796662845"><ele>396.6666666666667</ele><time>2026-03-30T16:25:26.999Z</time></trkpt><trkpt lat="42.43018547032705" lon="-8.075463450629302"><ele>398.33333333333337</ele><time>2026-03-30T16:25:28.999Z</time></trkpt><trkpt lat="42.43018151195358" lon="-8.075283864649288"><ele>400.0</ele><time>2026-03-30T16:25:30.999Z</time></trkpt><trkpt lat="42.430146925863006" lon="-8.075164091240586"><ele>400.0</ele><time>2026-03-30T16:25:31.999Z</time></trkpt><trkpt lat="42.43014162536609" lon="-8.075059776334115"><ele>400.0</ele><time>2026-03-30T16:25:32.999Z</time></trkpt><trkpt lat="42.43011446156419" lon="-8.07494185804494"><ele>400.0</ele><time>2026-03-30T16:25:34.999Z</time></trkpt><trkpt lat="42.43018744917302" lon="-8.074908474075327"><ele>397.0</ele><time>2026-03-30T16:25:35.999Z</time></trkpt><trkpt lat="42.430264427400544" lon="-8.074923778378224"><ele>397.0</ele><time>2026-03-30T16:25:37.999Z</time></trkpt><trkpt lat="42.43031760373006" lon="-8.07487014897271"><ele>397.0</ele><time>2026-03-30T16:25:41.999Z</time></trkpt></trkseg><trkseg><trkpt lat="42.429632057967765" lon="-8.068302617495151"><ele>383.0</ele><time>2026-03-30T16:40:40Z</time></trkpt><trkpt lat="42.429655737178415" lon="-8.068387545106152"><ele>383.0</ele><time>2026-03-30T16:40:44Z</time></trkpt><trkpt lat="42.429634042625686" lon="-8.06859292099433"><ele>383.0</ele><time>2026-03-30T16:40:47Z</time></trkpt><trkpt lat="42.42964365165138" lon="-8.068776091290289"><ele>383.0</ele><time>2026-03-30T16:40:48Z</time></trkpt><trkpt lat="42.4296373498949" lon="-8.0689188333584"><ele>383.0</ele><time>2026-03-30T16:40:49Z</time></trkpt><trkpt lat="42.42963773445401" lon="-8.06905343035549"><ele>383.0</ele><time>2026-03-30T16:40:50Z</time></trkpt><trkpt lat="42.42964147171412" lon="-8.06919202710041"><ele>383.0</ele><time>2026-03-30T16:40:51Z</time></trkpt><trkpt lat="42.429643239927316" lon="-8.069331031530519"><ele>383.0</ele><time>2026-03-30T16:40:52Z</time></trkpt><trkpt lat="42.42964107679357" lon="-8.069467361654112"><ele>383.0</ele><time>2026-03-30T16:40:53Z</time></trkpt><trkpt lat="42.42963968771622" lon="-8.069611827554967"><ele>383.0</ele><time>2026-03-30T16:40:54Z</time></trkpt><trkpt lat="42.4296365848385" lon="-8.069744674168938"><ele>383.0</ele><time>2026-03-30T16:40:55Z</time></trkpt><trkpt lat="42.42964016378221" lon="-8.069878467047326"><ele>383.0</ele><time>2026-03-30T16:40:56Z</time></trkpt><trkpt lat="42.42963756936493" lon="-8.070013716928308"><ele>383.0</ele><time>2026-03-30T16:40:57Z</time></trkpt><trkpt lat="42.4296348002104" lon="-8.07013315471595"><ele>383.0</ele><time>2026-03-30T16:40:58Z</time></trkpt><trkpt lat="42.42963721644536" lon="-8.070251727225802"><ele>384.0</ele><time>2026-03-30T16:40:59Z</time></trkpt><trkpt lat="42.42964569450916" lon="-8.070370667952533"><ele>385.0</ele><time>2026-03-30T16:41:00Z</time></trkpt><trkpt lat="42.42965566432383" lon="-8.07048804381593"><ele>386.0</ele><time>2026-03-30T16:41:01Z</time></trkpt><trkpt lat="42.42965506476068" lon="-8.070600050606792"><ele>387.0</ele><time>2026-03-30T16:41:02Z</time></trkpt><trkpt lat="42.42968405238229" lon="-8.070713365992864"><ele>387.99999999999994</ele><time>2026-03-30T16:41:03Z</time></trkpt><trkpt lat="42.429691458061825" lon="-8.070803870123461"><ele>389.0</ele><time>2026-03-30T16:41:04Z</time></trkpt><trkpt lat="42.42972201521699" lon="-8.07089330406234"><ele>389.0</ele><time>2026-03-30T16:41:06Z</time></trkpt><trkpt lat="42.42986827514609" lon="-8.070772358549474"><ele>389.0</ele><time>2026-03-30T16:41:09Z</time></trkpt><trkpt lat="42.42994211570658" lon="-8.07069427424189"><ele>389.0</ele><time>2026-03-30T16:41:10Z</time></trkpt><trkpt lat="42.430016727999146" lon="-8.07061059159053"><ele>389.0</ele><time>2026-03-30T16:41:11Z</time></trkpt><trkpt lat="42.43011317696814" lon="-8.070527374709988"><ele>389.0</ele><time>2026-03-30T16:41:12Z</time></trkpt><trkpt lat="42.430207497005604" lon="-8.070431154986464"><ele>389.0</ele><time>2026-03-30T16:41:13Z</time></trkpt><trkpt lat="42.43030760412658" lon="-8.070329766527376"><ele>389.0</ele><time>2026-03-30T16:41:14Z</time></trkpt><trkpt lat="42.43041093702557" lon="-8.070226083056943"><ele>389.0</ele><time>2026-03-30T16:41:15Z</time></trkpt><trkpt lat="42.43050607293665" lon="-8.070164634801213"><ele>390.25</ele><time>2026-03-30T16:41:16Z</time></trkpt><trkpt lat="42.43056045602354" lon="-8.070091592730627"><ele>391.5</ele><time>2026-03-30T16:41:17Z</time></trkpt><trkpt lat="42.4306011873269" lon="-8.070025614752602"><ele>392.75</ele><time>2026-03-30T16:41:20Z</time></trkpt><trkpt lat="42.43071878780623" lon="-8.070270856481953"><ele>394.0</ele><time>2026-03-30T16:41:20.999Z</time></trkpt><trkpt lat="42.4307634448897" lon="-8.070412178077088"><ele>394.0</ele><time>2026-03-30T16:41:21.999Z</time></trkpt><trkpt lat="42.43082198866795" lon="-8.070549980861873"><ele>394.0</ele><time>2026-03-30T16:41:22.999Z</time></trkpt><trkpt lat="42.430896738530926" lon="-8.070666564904338"><ele>394.0</ele><time>2026-03-30T16:41:23.999Z</time></trkpt><trkpt lat="42.430945011975645" lon="-8.070781671249824"><ele>394.0</ele><time>2026-03-30T16:41:24.999Z</time></trkpt><trkpt lat="42.430991954518056" lon="-8.070890598365322"><ele>394.0</ele><time>2026-03-30T16:41:25.999Z</time></trkpt><trkpt lat="42.431032537988735" lon="-8.070976426379552"><ele>393.6666666666667</ele><time>2026-03-30T16:41:26.999Z</time></trkpt><trkpt lat="42.431080111239964" lon="-8.071043600850723"><ele>393.33333333333337</ele><time>2026-03-30T16:41:27.999Z</time></trkpt><trkpt lat="42.43111474468227" lon="-8.071126699049087"><ele>393.0</ele><time>2026-03-30T16:41:28.999Z</time></trkpt><trkpt lat="42.43116526875672" lon="-8.071196238334656"><ele>392.66666666666663</ele><time>2026-03-30T16:41:29.999Z</time></trkpt><trkpt lat="42.431228992054926" lon="-8.071266557740474"><ele>392.3333333333333</ele><time>2026-03-30T16:41:30.999Z</time></trkpt><trkpt lat="42.43129602476729" lon="-8.071343419854475"><ele>392.0</ele><time>2026-03-30T16:41:31.999Z</time></trkpt><trkpt lat="42.43135976390313" lon="-8.071420945228077"><ele>392.6</ele><time>2026-03-30T16:41:32.999Z</time></trkpt><trkpt lat="42.4314162393246" lon="-8.071491451771385"><ele>393.20000000000005</ele><time>2026-03-30T16:41:33.999Z</time></trkpt><trkpt lat="42.431467130110555" lon="-8.071544929266464"><ele>393.8</ele><time>2026-03-30T16:41:34.999Z</time></trkpt><trkpt lat="42.43155933389516" lon="-8.071615448848982"><ele>394.4</ele><time>2026-03-30T16:41:36.999Z</time></trkpt><trkpt lat="42.43162101571004" lon="-8.071665009391177"><ele>395.0</ele><time>2026-03-30T16:41:38.999Z</time></trkpt><trkpt lat="42.43171769481043" lon="-8.071540848373873"><ele>395.16666666666663</ele><time>2026-03-30T16:41:40.999Z</time></trkpt><trkpt lat="42.43177960944689" lon="-8.071469053535168"><ele>395.3333333333333</ele><time>2026-03-30T16:41:41.999Z</time></trkpt><trkpt lat="42.43181483284586" lon="-8.071389909435172"><ele>395.5</ele><time>2026-03-30T16:41:42.999Z</time></trkpt><trkpt lat="42.43186212599285" lon="-8.071296845957775"><ele>395.66666666666663</ele><time>2026-03-30T16:41:44.999Z</time></trkpt><trkpt lat="42.43194300033078" lon="-8.071350569119257"><ele>395.8333333333333</ele><time>2026-03-30T16:43:48.999Z</time></trkpt><trkpt lat="42.432045650923286" lon="-8.071392938801921"><ele>396.0</ele><time>2026-03-30T16:43:57.999Z</time></trkpt><trkpt lat="42.43206791892594" lon="-8.071502600828875"><ele>395.8</ele><time>2026-03-30T16:44:01.999Z</time></trkpt><trkpt lat="42.43212577199373" lon="-8.071645472146168"><ele>395.6</ele><time>2026-03-30T16:44:03.999Z</time></trkpt><trkpt lat="42.432168836704136" lon="-8.07174001803821"><ele>395.4</ele><time>2026-03-30T16:44:04.999Z</time></trkpt><trkpt lat="42.43225383151079" lon="-8.071830323825026"><ele>395.2</ele><time>2026-03-30T16:44:05.999Z</time></trkpt><trkpt lat="42.43230877903822" lon="-8.07195197057652"><ele>395.0</ele><time>2026-03-30T16:44:06.999Z</time></trkpt><trkpt lat="42.43236506968761" lon="-8.072076590829948"><ele>395.75</ele><time>2026-03-30T16:44:07.999Z</time></trkpt><trkpt lat="42.43242226282606" lon="-8.072203208987807"><ele>396.5</ele><time>2026-03-30T16:44:08.999Z</time></trkpt><trkpt lat="42.43248142333371" lon="-8.072334182816672"><ele>397.25</ele><time>2026-03-30T16:44:09.999Z</time></trkpt><trkpt lat="42.43254095979852" lon="-8.072466421270091"><ele>398.0</ele><time>2026-03-30T16:44:10.999Z</time></trkpt><trkpt lat="42.43260027644674" lon="-8.072598512558248"><ele>398.4</ele><time>2026-03-30T16:44:11.999Z</time></trkpt><trkpt lat="42.432651564399094" lon="-8.072712724746436"><ele>398.79999999999995</ele><time>2026-03-30T16:44:12.999Z</time></trkpt><trkpt lat="42.432698669500894" lon="-8.072817622268039"><ele>399.2</ele><time>2026-03-30T16:44:13.999Z</time></trkpt><trkpt lat="42.432741995828366" lon="-8.072914104938244"><ele>399.6</ele><time>2026-03-30T16:44:14.999Z</time></trkpt><trkpt lat="42.432806462901105" lon="-8.073057665719382"><ele>400.0</ele><time>2026-03-30T16:44:16.999Z</time></trkpt><trkpt lat="42.43285543962814" lon="-8.073166729982614"><ele>400.4</ele><time>2026-03-30T16:44:18.999Z</time></trkpt><trkpt lat="42.43271230959823" lon="-8.073301965824884"><ele>400.8</ele><time>2026-03-30T16:44:20.999Z</time></trkpt><trkpt lat="42.4326562144189" lon="-8.073349121102309"><ele>401.20000000000005</ele><time>2026-03-30T16:44:21.999Z</time></trkpt><trkpt lat="42.43258761966837" lon="-8.073381790237127"><ele>401.6</ele><time>2026-03-30T16:44:22.999Z</time></trkpt><trkpt lat="42.43252234614079" lon="-8.0734368281767"><ele>402.0</ele><time>2026-03-30T16:44:23.999Z</time></trkpt><trkpt lat="42.432459174714886" lon="-8.07348920957933"><ele>402.0</ele><time>2026-03-30T16:44:24.999Z</time></trkpt><trkpt lat="42.43235936459477" lon="-8.073584201990522"><ele>402.0</ele><time>2026-03-30T16:44:26.999Z</time></trkpt><trkpt lat="42.43226699306443" lon="-8.073633742455531"><ele>402.0</ele><time>2026-03-30T16:44:28.998Z</time></trkpt><trkpt lat="42.4321870932726" lon="-8.073703912050357"><ele>402.0</ele><time>2026-03-30T16:44:30.998Z</time></trkpt><trkpt lat="42.43212754507363" lon="-8.07374899496735"><ele>402.0</ele><time>2026-03-30T16:44:31.998Z</time></trkpt><trkpt lat="42.43205422839241" lon="-8.073820454805427"><ele>402.0</ele><time>2026-03-30T16:44:37.998Z</time></trkpt><trkpt lat="42.431979692019695" lon="-8.073885457445218"><ele>402.0</ele><time>2026-03-30T16:44:38.998Z</time></trkpt><trkpt lat="42.43188002811987" lon="-8.073956184728093"><ele>402.0</ele><time>2026-03-30T16:44:39.998Z</time></trkpt><trkpt lat="42.43177966494509" lon="-8.07403496009791"><ele>402.0</ele><time>2026-03-30T16:44:41Z</time></trkpt><trkpt lat="42.431683827087326" lon="-8.074110438086676"><ele>402.0</ele><time>2026-03-30T16:44:42Z</time></trkpt><trkpt lat="42.43159958475852" lon="-8.074180759611794"><ele>402.0</ele><time>2026-03-30T16:44:43Z</time></trkpt><trkpt lat="42.43151536195645" lon="-8.074255539873848"><ele>402.0</ele><time>2026-03-30T16:44:44Z</time></trkpt><trkpt lat="42.4314436511273" lon="-8.074312696858762"><ele>402.0</ele><time>2026-03-30T16:44:45Z</time></trkpt><trkpt lat="42.4313715024211" lon="-8.07436548361591"><ele>402.0</ele><time>2026-03-30T16:44:46Z</time></trkpt><trkpt lat="42.43128952799906" lon="-8.074420501609199"><ele>402.0</ele><time>2026-03-30T16:44:47Z</time></trkpt><trkpt lat="42.43121656440542" lon="-8.07447365905839"><ele>402.0</ele><time>2026-03-30T16:44:48Z</time></trkpt><trkpt lat="42.43113888446192" lon="-8.07452173161317"><ele>401.8333333333333</ele><time>2026-03-30T16:44:49Z</time></trkpt><trkpt lat="42.431057889600766" lon="-8.07456373047165"><ele>401.66666666666663</ele><time>2026-03-30T16:44:50Z</time></trkpt><trkpt lat="42.43098022685385" lon="-8.074598741599454"><ele>401.5</ele><time>2026-03-30T16:44:51Z</time></trkpt><trkpt lat="42.43090928299812" lon="-8.074640446998732"><ele>401.3333333333333</ele><time>2026-03-30T16:44:52Z</time></trkpt><trkpt lat="42.4308359543954" lon="-8.07466807794848"><ele>401.16666666666663</ele><time>2026-03-30T16:44:53Z</time></trkpt><trkpt lat="42.43076765251872" lon="-8.074692222448943"><ele>401.0</ele><time>2026-03-30T16:44:54Z</time></trkpt><trkpt lat="42.43065975404688" lon="-8.074720714997346"><ele>401.0</ele><time>2026-03-30T16:44:56Z</time></trkpt><trkpt lat="42.43059568722846" lon="-8.07474369254521"><ele>401.0</ele><time>2026-03-30T16:44:58Z</time></trkpt><trkpt lat="42.43054580144127" lon="-8.074800230869407"><ele>401.0</ele><time>2026-03-30T16:45:01Z</time></trkpt><trkpt lat="42.43057308887289" lon="-8.074972576789998"><ele>401.0</ele><time>2026-03-30T16:45:05Z</time></trkpt><trkpt lat="42.43060053711232" lon="-8.07509912913768"><ele>401.0</ele><time>2026-03-30T16:45:06Z</time></trkpt><trkpt lat="42.430631072288" lon="-8.075239913795548"><ele>401.6</ele><time>2026-03-30T16:45:07Z</time></trkpt><trkpt lat="42.43064307553686" lon="-8.075369875784288"><ele>402.20000000000005</ele><time>2026-03-30T16:45:08Z</time></trkpt><trkpt lat="42.4306863944068" lon="-8.075486262897172"><ele>402.79999999999995</ele><time>2026-03-30T16:45:09Z</time></trkpt><trkpt lat="42.430701519661284" lon="-8.075593241558483"><ele>403.4</ele><time>2026-03-30T16:45:10Z</time></trkpt><trkpt lat="42.430729190360886" lon="-8.07573584840337"><ele>404.0</ele><time>2026-03-30T16:45:12Z</time></trkpt><trkpt lat="42.43076596931903" lon="-8.07583395743001"><ele>403.99999999999994</ele><time>2026-03-30T16:45:14Z</time></trkpt><trkpt lat="42.43078518264534" lon="-8.075917907702593"><ele>404.0</ele><time>2026-03-30T16:45:16Z</time></trkpt><trkpt lat="42.430809432488736" lon="-8.076023864952775"><ele>404.0</ele><time>2026-03-30T16:45:25Z</time></trkpt><trkpt lat="42.43083742861425" lon="-8.076147044952677"><ele>404.0</ele><time>2026-03-30T16:45:26.999Z</time></trkpt><trkpt lat="42.430860571415536" lon="-8.076252964007379"><ele>403.99999999999994</ele><time>2026-03-30T16:45:28.999Z</time></trkpt><trkpt lat="42.43088138802025" lon="-8.076348731746478"><ele>404.0</ele><time>2026-03-30T16:45:30.999Z</time></trkpt><trkpt lat="42.43090729141284" lon="-8.076467901444147"><ele>404.0</ele><time>2026-03-30T16:45:32.999Z</time></trkpt><trkpt lat="42.430935592678914" lon="-8.076598102744022"><ele>404.0</ele><time>2026-03-30T16:45:34.999Z</time></trkpt><trkpt lat="42.43096560080391" lon="-8.076737259100215"><ele>404.0</ele><time>2026-03-30T16:45:36.999Z</time></trkpt><trkpt lat="42.430977189964196" lon="-8.076868980068578"><ele>404.0</ele><time>2026-03-30T16:45:38.999Z</time></trkpt><trkpt lat="42.43100102325226" lon="-8.07697776421167"><ele>404.0</ele><time>2026-03-30T16:45:40.999Z</time></trkpt><trkpt lat="42.43103171382951" lon="-8.077088204652469"><ele>404.2857142857143</ele><time>2026-03-30T16:45:42.999Z</time></trkpt><trkpt lat="42.431073869396364" lon="-8.077180161691047"><ele>404.57142857142856</ele><time>2026-03-30T16:45:44.999Z</time></trkpt><trkpt lat="42.431105598676574" lon="-8.077272503198655"><ele>404.8571428571429</ele><time>2026-03-30T16:45:46.999Z</time></trkpt><trkpt lat="42.43114103448992" lon="-8.077364456389226"><ele>405.1428571428571</ele><time>2026-03-30T16:45:48.999Z</time></trkpt><trkpt lat="42.43117621088165" lon="-8.077450587291077"><ele>405.42857142857144</ele><time>2026-03-30T16:45:52.999Z</time></trkpt><trkpt lat="42.431196252078124" lon="-8.07753408736558"><ele>405.7142857142857</ele><time>2026-03-30T16:45:55.999Z</time></trkpt><trkpt lat="42.43123601631728" lon="-8.077607789551973"><ele>406.0</ele><time>2026-03-30T16:46:10.999Z</time></trkpt><trkpt lat="42.4313098958291" lon="-8.077688487695625"><ele>406.6</ele><time>2026-03-30T16:46:15.999Z</time></trkpt><trkpt lat="42.431335509432" lon="-8.077776913162154"><ele>407.20000000000005</ele><time>2026-03-30T16:46:16.999Z</time></trkpt><trkpt lat="42.43136131396285" lon="-8.07789661141846"><ele>407.79999999999995</ele><time>2026-03-30T16:46:18.999Z</time></trkpt><trkpt lat="42.4314315530106" lon="-8.078054052608872"><ele>408.4</ele><time>2026-03-30T16:46:20.999Z</time></trkpt><trkpt lat="42.43144660923364" lon="-8.078146403447784"><ele>409.0</ele><time>2026-03-30T16:46:21.999Z</time></trkpt><trkpt lat="42.43144556510978" lon="-8.078300730545354"><ele>409.0</ele><time>2026-03-30T16:46:23.999Z</time></trkpt><trkpt lat="42.43142368637233" lon="-8.0784528398642"><ele>409.0</ele><time>2026-03-30T16:46:25.999Z</time></trkpt><trkpt lat="42.43140588080916" lon="-8.078536549404088"><ele>409.0</ele><time>2026-03-30T16:46:26.999Z</time></trkpt><trkpt lat="42.43135633167007" lon="-8.078685413505875"><ele>409.0</ele><time>2026-03-30T16:46:28.999Z</time></trkpt><trkpt lat="42.431301514862106" lon="-8.078742099595992"><ele>409.0</ele><time>2026-03-30T16:46:29.999Z</time></trkpt><trkpt lat="42.43123154591105" lon="-8.078803208470257"><ele>408.83333333333337</ele><time>2026-03-30T16:46:30.999Z</time></trkpt><trkpt lat="42.43115663647369" lon="-8.078863976799491"><ele>408.6666666666667</ele><time>2026-03-30T16:46:31.999Z</time></trkpt><trkpt lat="42.431072295092534" lon="-8.07891504109145"><ele>408.5</ele><time>2026-03-30T16:46:32.999Z</time></trkpt><trkpt lat="42.430995306276735" lon="-8.078980132500957"><ele>408.33333333333337</ele><time>2026-03-30T16:46:33.999Z</time></trkpt><trkpt lat="42.430923128295674" lon="-8.079053893540468"><ele>408.1666666666667</ele><time>2026-03-30T16:46:34.999Z</time></trkpt><trkpt lat="42.43085538753263" lon="-8.07912937152422"><ele>408.0</ele><time>2026-03-30T16:46:35.999Z</time></trkpt><trkpt lat="42.430781317982834" lon="-8.079192049674932"><ele>407.3333333333333</ele><time>2026-03-30T16:46:36.999Z</time></trkpt><trkpt lat="42.43070991173454" lon="-8.079251031934062"><ele>406.66666666666663</ele><time>2026-03-30T16:46:37.999Z</time></trkpt><trkpt lat="42.43063961989638" lon="-8.079308344686945"><ele>406.0</ele><time>2026-03-30T16:46:38.999Z</time></trkpt><trkpt lat="42.430567320719526" lon="-8.079367294361312"><ele>405.3333333333333</ele><time>2026-03-30T16:46:39.999Z</time></trkpt><trkpt lat="42.43049543709951" lon="-8.079425903738072"><ele>404.66666666666663</ele><time>2026-03-30T16:46:40.998Z</time></trkpt><trkpt lat="42.430416877837814" lon="-8.079478263356906"><ele>404.0</ele><time>2026-03-30T16:46:41.998Z</time></trkpt><trkpt lat="42.430334244175576" lon="-8.079543173651565"><ele>403.8333333333333</ele><time>2026-03-30T16:46:42.998Z</time></trkpt><trkpt lat="42.43025039437671" lon="-8.07960979899513"><ele>403.66666666666663</ele><time>2026-03-30T16:46:43.998Z</time></trkpt><trkpt lat="42.43017284149478" lon="-8.07967334767073"><ele>403.5</ele><time>2026-03-30T16:46:44.998Z</time></trkpt><trkpt lat="42.430101692382884" lon="-8.0797332464658"><ele>403.33333333333337</ele><time>2026-03-30T16:46:45.998Z</time></trkpt><trkpt lat="42.43003751977649" lon="-8.07979120768189"><ele>403.1666666666667</ele><time>2026-03-30T16:46:47Z</time></trkpt><trkpt lat="42.42998119549199" lon="-8.079844491152874"><ele>403.0</ele><time>2026-03-30T16:46:48Z</time></trkpt><trkpt lat="42.42992474597199" lon="-8.079898215104032"><ele>402.7142857142857</ele><time>2026-03-30T16:46:49Z</time></trkpt><trkpt lat="42.42987076361648" lon="-8.079946416198622"><ele>402.4285714285714</ele><time>2026-03-30T16:46:50Z</time></trkpt><trkpt lat="42.429816278111424" lon="-8.079994076946196"><ele>402.1428571428571</ele><time>2026-03-30T16:46:51Z</time></trkpt><trkpt lat="42.42976275308116" lon="-8.080048187691215"><ele>401.8571428571429</ele><time>2026-03-30T16:46:52Z</time></trkpt><trkpt lat="42.42969800151561" lon="-8.080108896835767"><ele>401.57142857142856</ele><time>2026-03-30T16:46:53Z</time></trkpt><trkpt lat="42.42963676894223" lon="-8.080162415181356"><ele>401.2857142857143</ele><time>2026-03-30T16:46:54Z</time></trkpt><trkpt lat="42.4295731520493" lon="-8.080197125804833"><ele>401.0</ele><time>2026-03-30T16:46:55Z</time></trkpt><trkpt lat="42.429507816260916" lon="-8.080240916130562"><ele>400.0</ele><time>2026-03-30T16:46:56Z</time></trkpt><trkpt lat="42.42943500504946" lon="-8.080298411756901"><ele>399.0</ele><time>2026-03-30T16:46:57Z</time></trkpt><trkpt lat="42.429350544258455" lon="-8.080367876910733"><ele>398.0</ele><time>2026-03-30T16:46:58Z</time></trkpt><trkpt lat="42.42926220162911" lon="-8.080439119820989"><ele>397.0</ele><time>2026-03-30T16:46:59Z</time></trkpt><trkpt lat="42.42917198732783" lon="-8.080514770211488"><ele>396.0</ele><time>2026-03-30T16:47:00Z</time></trkpt><trkpt lat="42.42908229590745" lon="-8.080612661439329"><ele>396.0</ele><time>2026-03-30T16:47:01Z</time></trkpt><trkpt lat="42.42896574124585" lon="-8.080699819014356"><ele>396.0</ele><time>2026-03-30T16:47:02Z</time></trkpt><trkpt lat="42.42888135884051" lon="-8.080802804352302"><ele>396.0</ele><time>2026-03-30T16:47:03Z</time></trkpt><trkpt lat="42.42877710987027" lon="-8.080888415300706"><ele>396.0</ele><time>2026-03-30T16:47:04Z</time></trkpt><trkpt lat="42.428669922158306" lon="-8.080965462557302"><ele>395.0</ele><time>2026-03-30T16:47:05Z</time></trkpt><trkpt lat="42.428573055713684" lon="-8.08104049903367"><ele>394.0</ele><time>2026-03-30T16:47:06Z</time></trkpt><trkpt lat="42.42848392982185" lon="-8.08112491711856"><ele>393.0</ele><time>2026-03-30T16:47:07Z</time></trkpt><trkpt lat="42.428391077897174" lon="-8.081206693479379"><ele>392.0</ele><time>2026-03-30T16:47:08Z</time></trkpt><trkpt lat="42.4282955147096" lon="-8.081308028810039"><ele>392.0</ele><time>2026-03-30T16:47:09Z</time></trkpt><trkpt lat="42.4282037769911" lon="-8.081389793265036"><ele>392.0</ele><time>2026-03-30T16:47:10Z</time></trkpt><trkpt lat="42.42811381564681" lon="-8.081453466010208"><ele>392.0</ele><time>2026-03-30T16:47:11Z</time></trkpt><trkpt lat="42.4280551495038" lon="-8.081527357734798"><ele>392.0</ele><time>2026-03-30T16:47:12Z</time></trkpt><trkpt lat="42.42800063075722" lon="-8.08157661480619"><ele>392.0</ele><time>2026-03-30T16:47:13Z</time></trkpt><trkpt lat="42.42790239789104" lon="-8.081665366836184"><ele>392.20000000000005</ele><time>2026-03-30T16:47:15Z</time></trkpt><trkpt lat="42.42784092210326" lon="-8.081720494755395"><ele>392.4</ele><time>2026-03-30T16:47:16Z</time></trkpt><trkpt lat="42.42777670498407" lon="-8.08177785672591"><ele>392.6</ele><time>2026-03-30T16:47:17Z</time></trkpt><trkpt lat="42.42769887552563" lon="-8.081847378118377"><ele>392.79999999999995</ele><time>2026-03-30T16:47:18Z</time></trkpt><trkpt lat="42.427591807160596" lon="-8.081919267821217"><ele>393.0</ele><time>2026-03-30T16:47:19Z</time></trkpt><trkpt lat="42.427480083097834" lon="-8.082015734367777"><ele>393.0</ele><time>2026-03-30T16:47:20Z</time></trkpt><trkpt lat="42.42737930650324" lon="-8.082128707362221"><ele>393.0</ele><time>2026-03-30T16:47:21Z</time></trkpt><trkpt lat="42.42725319676913" lon="-8.082222892095574"><ele>393.0</ele><time>2026-03-30T16:47:22Z</time></trkpt><trkpt lat="42.427131781442554" lon="-8.082314551792658"><ele>393.0</ele><time>2026-03-30T16:47:23Z</time></trkpt><trkpt lat="42.427022861254244" lon="-8.08239635147538"><ele>393.5</ele><time>2026-03-30T16:47:24Z</time></trkpt><trkpt lat="42.42692604980191" lon="-8.082463210382365"><ele>394.0</ele><time>2026-03-30T16:47:25Z</time></trkpt><trkpt lat="42.42686283870689" lon="-8.0825364389445"><ele>394.5</ele><time>2026-03-30T16:47:26Z</time></trkpt><trkpt lat="42.42677542267766" lon="-8.08262748803936"><ele>395.0</ele><time>2026-03-30T16:47:28Z</time></trkpt><trkpt lat="42.42678294713905" lon="-8.082839114034611"><ele>395.0</ele><time>2026-03-30T16:47:30Z</time></trkpt><trkpt lat="42.42678109380134" lon="-8.082987129763588"><ele>395.0</ele><time>2026-03-30T16:47:31Z</time></trkpt><trkpt lat="42.42680149588795" lon="-8.083151872579526"><ele>395.0</ele><time>2026-03-30T16:47:32Z</time></trkpt><trkpt lat="42.42680677384025" lon="-8.083314643091754"><ele>395.0</ele><time>2026-03-30T16:47:33Z</time></trkpt><trkpt lat="42.426811494567204" lon="-8.083489963460261"><ele>396.0</ele><time>2026-03-30T16:47:34Z</time></trkpt><trkpt lat="42.42680033602111" lon="-8.083688605419631"><ele>397.0</ele><time>2026-03-30T16:47:35Z</time></trkpt><trkpt lat="42.426777206974876" lon="-8.08387881674347"><ele>398.0</ele><time>2026-03-30T16:47:36Z</time></trkpt><trkpt lat="42.42674774069118" lon="-8.084064256491127"><ele>399.0</ele><time>2026-03-30T16:47:37Z</time></trkpt><trkpt lat="42.42671849241273" lon="-8.084225132937988"><ele>399.4</ele><time>2026-03-30T16:47:38Z</time></trkpt><trkpt lat="42.42669793584945" lon="-8.08436662412743"><ele>399.79999999999995</ele><time>2026-03-30T16:47:38.999Z</time></trkpt><trkpt lat="42.42667934399181" lon="-8.084502350276033"><ele>400.20000000000005</ele><time>2026-03-30T16:47:39.999Z</time></trkpt><trkpt lat="42.426664841335615" lon="-8.084621583514382"><ele>400.6</ele><time>2026-03-30T16:47:40.999Z</time></trkpt><trkpt lat="42.42665166089921" lon="-8.08472293597398"><ele>401.0</ele><time>2026-03-30T16:47:41.999Z</time></trkpt><trkpt lat="42.426614763943135" lon="-8.084863244775576"><ele>401.0</ele><time>2026-03-30T16:47:43.999Z</time></trkpt><trkpt lat="42.42665224124073" lon="-8.08496891009616"><ele>401.0</ele><time>2026-03-30T16:47:46.999Z</time></trkpt><trkpt lat="42.426716211414245" lon="-8.084948947629057"><ele>401.0</ele><time>2026-03-30T16:47:49.999Z</time></trkpt><trkpt lat="42.426790027001545" lon="-8.085002183895337"><ele>401.0</ele><time>2026-03-30T16:47:56.999Z</time></trkpt><trkpt lat="42.426736298178895" lon="-8.084953304917555"><ele>401.0</ele><time>2026-03-30T16:51:10Z</time></trkpt><trkpt lat="42.426663887459625" lon="-8.0849278464376"><ele>401.0</ele><time>2026-03-30T16:51:13Z</time></trkpt><trkpt lat="42.42661549768977" lon="-8.084862130545279"><ele>401.0</ele><time>2026-03-30T16:51:16Z</time></trkpt><trkpt lat="42.426618284365276" lon="-8.084723754774972"><ele>401.0</ele><time>2026-03-30T16:51:18Z</time></trkpt><trkpt lat="42.426645589347864" lon="-8.084605785081612"><ele>401.0</ele><time>2026-03-30T16:51:19Z</time></trkpt><trkpt lat="42.42666546105337" lon="-8.084465922449075"><ele>401.0</ele><time>2026-03-30T16:51:20Z</time></trkpt><trkpt lat="42.42668722144699" lon="-8.084319215443793"><ele>401.0</ele><time>2026-03-30T16:51:21Z</time></trkpt><trkpt lat="42.426706472865895" lon="-8.084192483245172"><ele>401.0</ele><time>2026-03-30T16:51:22Z</time></trkpt><trkpt lat="42.42672810512693" lon="-8.084051347863213"><ele>400.6</ele><time>2026-03-30T16:51:23Z</time></trkpt><trkpt lat="42.42674535445303" lon="-8.083905310318933"><ele>400.20000000000005</ele><time>2026-03-30T16:51:24Z</time></trkpt><trkpt lat="42.426760612777215" lon="-8.083767980614006"><ele>399.79999999999995</ele><time>2026-03-30T16:51:25Z</time></trkpt><trkpt lat="42.42677779744009" lon="-8.083633852787507"><ele>399.4</ele><time>2026-03-30T16:51:26Z</time></trkpt><trkpt lat="42.42678830962491" lon="-8.083509251900077"><ele>399.0</ele><time>2026-03-30T16:51:27Z</time></trkpt><trkpt lat="42.42679274587162" lon="-8.083385643085263"><ele>398.2</ele><time>2026-03-30T16:51:28Z</time></trkpt><trkpt lat="42.4267837427685" lon="-8.08325310511041"><ele>397.4</ele><time>2026-03-30T16:51:29Z</time></trkpt><trkpt lat="42.42677213470453" lon="-8.083121409015314"><ele>396.6</ele><time>2026-03-30T16:51:30Z</time></trkpt><trkpt lat="42.42676224702022" lon="-8.082991572221966"><ele>395.8</ele><time>2026-03-30T16:51:31Z</time></trkpt><trkpt lat="42.42675147975844" lon="-8.08286602535639"><ele>395.0</ele><time>2026-03-30T16:51:32Z</time></trkpt><trkpt lat="42.42674396588349" lon="-8.082746479159024"><ele>394.99999999999994</ele><time>2026-03-30T16:51:33Z</time></trkpt><trkpt lat="42.42673255186113" lon="-8.082642834359012"><ele>395.0</ele><time>2026-03-30T16:51:34Z</time></trkpt><trkpt lat="42.426737371907116" lon="-8.082540757454522"><ele>395.0</ele><time>2026-03-30T16:51:35Z</time></trkpt><trkpt lat="42.42673183606415" lon="-8.082424228215459"><ele>395.0</ele><time>2026-03-30T16:51:36Z</time></trkpt><trkpt lat="42.4267244187986" lon="-8.082309168922484"><ele>394.99999999999994</ele><time>2026-03-30T16:51:37Z</time></trkpt><trkpt lat="42.42670517952483" lon="-8.082197677080735"><ele>395.0</ele><time>2026-03-30T16:51:38Z</time></trkpt><trkpt lat="42.4267093585154" lon="-8.082083716905151"><ele>394.99999999999994</ele><time>2026-03-30T16:51:39Z</time></trkpt><trkpt lat="42.42672750384021" lon="-8.081965776237283"><ele>395.0</ele><time>2026-03-30T16:51:40Z</time></trkpt><trkpt lat="42.426763601042964" lon="-8.081858894994863"><ele>395.0</ele><time>2026-03-30T16:51:41Z</time></trkpt><trkpt lat="42.4268013762072" lon="-8.081751691087415"><ele>395.0</ele><time>2026-03-30T16:51:42Z</time></trkpt><trkpt lat="42.42684063932198" lon="-8.081659109710822"><ele>394.99999999999994</ele><time>2026-03-30T16:51:43Z</time></trkpt><trkpt lat="42.42687223106927" lon="-8.081585200567876"><ele>395.0</ele><time>2026-03-30T16:51:44Z</time></trkpt><trkpt lat="42.42691153898077" lon="-8.081506023107348"><ele>394.6</ele><time>2026-03-30T16:51:46Z</time></trkpt><trkpt lat="42.42695201548776" lon="-8.081426584210094"><ele>394.2</ele><time>2026-03-30T16:51:49Z</time></trkpt><trkpt lat="42.42700993987419" lon="-8.0813165524155"><ele>393.79999999999995</ele><time>2026-03-30T16:51:52Z</time></trkpt><trkpt lat="42.427053013532124" lon="-8.08123803152296"><ele>393.4</ele><time>2026-03-30T16:51:54Z</time></trkpt><trkpt lat="42.42711472150037" lon="-8.081129328461072"><ele>393.0</ele><time>2026-03-30T16:51:56Z</time></trkpt><trkpt lat="42.427196074139935" lon="-8.080993943133304"><ele>393.0</ele><time>2026-03-30T16:51:58Z</time></trkpt><trkpt lat="42.427243913777545" lon="-8.080918391379955"><ele>393.0</ele><time>2026-03-30T16:51:59Z</time></trkpt><trkpt lat="42.42728774674989" lon="-8.080854773212069"><ele>393.0</ele><time>2026-03-30T16:52:00Z</time></trkpt><trkpt lat="42.42737475812366" lon="-8.080747681887619"><ele>393.0</ele><time>2026-03-30T16:52:02Z</time></trkpt><trkpt lat="42.427439284484144" lon="-8.080674685242323"><ele>393.0</ele><time>2026-03-30T16:52:04Z</time></trkpt><trkpt lat="42.427495458324756" lon="-8.080614548523291"><ele>393.0</ele><time>2026-03-30T16:52:06Z</time></trkpt><trkpt lat="42.4275660991988" lon="-8.08054075963387"><ele>393.59999999999997</ele><time>2026-03-30T16:52:07.999Z</time></trkpt><trkpt lat="42.427677268191566" lon="-8.080426145062155"><ele>394.2</ele><time>2026-03-30T16:52:09.999Z</time></trkpt><trkpt lat="42.42773634359942" lon="-8.08036661868034"><ele>394.8</ele><time>2026-03-30T16:52:10.999Z</time></trkpt><trkpt lat="42.4278058557822" lon="-8.08029657581404"><ele>395.4</ele><time>2026-03-30T16:52:11.999Z</time></trkpt><trkpt lat="42.427865042887696" lon="-8.080240841494724"><ele>396.0</ele><time>2026-03-30T16:52:12.999Z</time></trkpt><trkpt lat="42.42796131677424" lon="-8.080166476001382"><ele>396.5</ele><time>2026-03-30T16:52:14.999Z</time></trkpt><trkpt lat="42.42801936414927" lon="-8.080104366065116"><ele>397.0</ele><time>2026-03-30T16:52:16.999Z</time></trkpt><trkpt lat="42.42810817103673" lon="-8.080035665202484"><ele>397.5</ele><time>2026-03-30T16:52:18.999Z</time></trkpt><trkpt lat="42.42816263452199" lon="-8.07997642029003"><ele>398.0</ele><time>2026-03-30T16:52:20.999Z</time></trkpt><trkpt lat="42.428212942450735" lon="-8.079921939116344"><ele>398.5</ele><time>2026-03-30T16:52:22.999Z</time></trkpt><trkpt lat="42.42814989039151" lon="-8.079816245011383"><ele>399.0</ele><time>2026-03-30T16:52:25.999Z</time></trkpt><trkpt lat="42.42807441664901" lon="-8.079757106660773"><ele>398.1666666666667</ele><time>2026-03-30T16:52:28.999Z</time></trkpt><trkpt lat="42.42797436148132" lon="-8.07971785668235"><ele>397.33333333333337</ele><time>2026-03-30T16:52:30.999Z</time></trkpt><trkpt lat="42.4278615563111" lon="-8.079675262989902"><ele>396.5</ele><time>2026-03-30T16:52:32.999Z</time></trkpt><trkpt lat="42.427799567967746" lon="-8.079649650519432"><ele>395.6666666666667</ele><time>2026-03-30T16:52:33.999Z</time></trkpt><trkpt lat="42.42773679415701" lon="-8.079626232682706"><ele>394.83333333333337</ele><time>2026-03-30T16:52:34.999Z</time></trkpt><trkpt lat="42.427670186431705" lon="-8.079595927391285"><ele>394.0</ele><time>2026-03-30T16:52:35.999Z</time></trkpt><trkpt lat="42.427597324306944" lon="-8.079567951413052"><ele>394.0</ele><time>2026-03-30T16:52:36.999Z</time></trkpt><trkpt lat="42.42753580204123" lon="-8.079544169232546"><ele>394.0</ele><time>2026-03-30T16:52:37.999Z</time></trkpt><trkpt lat="42.42747281887141" lon="-8.079518395043939"><ele>394.0</ele><time>2026-03-30T16:52:38.999Z</time></trkpt><trkpt lat="42.42741510909158" lon="-8.079483253496276"><ele>394.0</ele><time>2026-03-30T16:52:39.999Z</time></trkpt><trkpt lat="42.42734091545018" lon="-8.079464831559331"><ele>394.0</ele><time>2026-03-30T16:52:40.999Z</time></trkpt><trkpt lat="42.42727654511902" lon="-8.079440953018544"><ele>394.0</ele><time>2026-03-30T16:52:41.999Z</time></trkpt><trkpt lat="42.427210131341134" lon="-8.079412550303113"><ele>394.0</ele><time>2026-03-30T16:52:42.999Z</time></trkpt><trkpt lat="42.4271386914475" lon="-8.079393983587792"><ele>392.33333333333337</ele><time>2026-03-30T16:52:43.999Z</time></trkpt><trkpt lat="42.42707524068789" lon="-8.079366951813492"><ele>390.6666666666667</ele><time>2026-03-30T16:52:44.999Z</time></trkpt><trkpt lat="42.427009275656914" lon="-8.07934632619843"><ele>389.0</ele><time>2026-03-30T16:52:45.999Z</time></trkpt><trkpt lat="42.42694470959509" lon="-8.079331790183177"><ele>387.33333333333337</ele><time>2026-03-30T16:52:46.999Z</time></trkpt><trkpt lat="42.426882220778246" lon="-8.079313131158752"><ele>385.6666666666667</ele><time>2026-03-30T16:52:47.999Z</time></trkpt><trkpt lat="42.42675481839597" lon="-8.079277729941758"><ele>384.0</ele><time>2026-03-30T16:52:49.999Z</time></trkpt><trkpt lat="42.42664745062026" lon="-8.079233551607894"><ele>384.0</ele><time>2026-03-30T16:52:51.999Z</time></trkpt><trkpt lat="42.426567471418785" lon="-8.07920596215677"><ele>384.0</ele><time>2026-03-30T16:52:53.999Z</time></trkpt><trkpt lat="42.42657839247029" lon="-8.078976053031298"><ele>384.0</ele><time>2026-03-30T16:52:57.999Z</time></trkpt><trkpt lat="42.426625079093085" lon="-8.078912401580721"><ele>384.0</ele><time>2026-03-30T16:52:58.999Z</time></trkpt><trkpt lat="42.42667539345216" lon="-8.078841528831319"><ele>384.0</ele><time>2026-03-30T16:52:59.999Z</time></trkpt><trkpt lat="42.426724143018866" lon="-8.078757071433474"><ele>382.6666666666667</ele><time>2026-03-30T16:53:00.999Z</time></trkpt><trkpt lat="42.426775939859326" lon="-8.078674398449978"><ele>381.3333333333333</ele><time>2026-03-30T16:53:01.999Z</time></trkpt><trkpt lat="42.426818118672955" lon="-8.07860050980455"><ele>380.0</ele><time>2026-03-30T16:53:02.999Z</time></trkpt><trkpt lat="42.42684913847942" lon="-8.07852202873807"><ele>378.66666666666663</ele><time>2026-03-30T16:53:03.999Z</time></trkpt><trkpt lat="42.42692822323423" lon="-8.078409283354063"><ele>377.3333333333333</ele><time>2026-03-30T16:53:05.999Z</time></trkpt><trkpt lat="42.427005828670815" lon="-8.07829152061753"><ele>376.0</ele><time>2026-03-30T16:53:07.999Z</time></trkpt><trkpt lat="42.42704104631432" lon="-8.078217776652378"><ele>376.0</ele><time>2026-03-30T16:53:08.999Z</time></trkpt><trkpt lat="42.427090283406805" lon="-8.078136357123332"><ele>376.0</ele><time>2026-03-30T16:53:09.999Z</time></trkpt><trkpt lat="42.42713860215843" lon="-8.078072098908686"><ele>376.0</ele><time>2026-03-30T16:53:10.999Z</time></trkpt><trkpt lat="42.42717860426528" lon="-8.078004047313529"><ele>376.0</ele><time>2026-03-30T16:53:11.999Z</time></trkpt><trkpt lat="42.42726856338361" lon="-8.077897156459375"><ele>376.0</ele><time>2026-03-30T16:53:13.999Z</time></trkpt><trkpt lat="42.427311995115836" lon="-8.077831331511517"><ele>376.0</ele><time>2026-03-30T16:53:14.999Z</time></trkpt><trkpt lat="42.427401467812494" lon="-8.077737531969177"><ele>376.20000000000005</ele><time>2026-03-30T16:53:17Z</time></trkpt><trkpt lat="42.42746939277466" lon="-8.077647049433237"><ele>376.40000000000003</ele><time>2026-03-30T16:53:19Z</time></trkpt><trkpt lat="42.42752763381365" lon="-8.077588835583503"><ele>376.6</ele><time>2026-03-30T16:53:21Z</time></trkpt><trkpt lat="42.42759942163845" lon="-8.077543923474503"><ele>376.8</ele><time>2026-03-30T16:53:24Z</time></trkpt><trkpt lat="42.42769513304548" lon="-8.077415079149334"><ele>377.0</ele><time>2026-03-30T16:53:26Z</time></trkpt><trkpt lat="42.42776963493538" lon="-8.077311152324564"><ele>377.0</ele><time>2026-03-30T16:53:27Z</time></trkpt><trkpt lat="42.427833779225864" lon="-8.077188956560923"><ele>377.0</ele><time>2026-03-30T16:53:28Z</time></trkpt><trkpt lat="42.42789148699433" lon="-8.077074106730947"><ele>377.0</ele><time>2026-03-30T16:53:29Z</time></trkpt><trkpt lat="42.42793917192889" lon="-8.076976879992502"><ele>377.0</ele><time>2026-03-30T16:53:30Z</time></trkpt><trkpt lat="42.42797567000995" lon="-8.076893487647345"><ele>377.0</ele><time>2026-03-30T16:53:31Z</time></trkpt><trkpt lat="42.42801128878892" lon="-8.076807881658226"><ele>377.0</ele><time>2026-03-30T16:53:32Z</time></trkpt><trkpt lat="42.42804424087565" lon="-8.076728541980337"><ele>377.6666666666667</ele><time>2026-03-30T16:53:33Z</time></trkpt><trkpt lat="42.42807726877814" lon="-8.076550376311747"><ele>378.33333333333337</ele><time>2026-03-30T16:53:35Z</time></trkpt><trkpt lat="42.42806920208383" lon="-8.076446606470075"><ele>379.0</ele><time>2026-03-30T16:53:36Z</time></trkpt><trkpt lat="42.428075091473644" lon="-8.076333723690063"><ele>379.6666666666667</ele><time>2026-03-30T16:53:37Z</time></trkpt><trkpt lat="42.428095705651074" lon="-8.076234351724835"><ele>380.3333333333333</ele><time>2026-03-30T16:53:38Z</time></trkpt><trkpt lat="42.428119144738446" lon="-8.076141224186088"><ele>381.0</ele><time>2026-03-30T16:53:39Z</time></trkpt><trkpt lat="42.428133832373994" lon="-8.076053384708917"><ele>381.0</ele><time>2026-03-30T16:53:40Z</time></trkpt><trkpt lat="42.42812944102699" lon="-8.075960809623691"><ele>381.0</ele><time>2026-03-30T16:53:41Z</time></trkpt><trkpt lat="42.4281492600621" lon="-8.075867234281075"><ele>381.0</ele><time>2026-03-30T16:53:42Z</time></trkpt><trkpt lat="42.42814635112002" lon="-8.075781203477014"><ele>381.0</ele><time>2026-03-30T16:53:43Z</time></trkpt><trkpt lat="42.42813353001733" lon="-8.075608491921384"><ele>381.0</ele><time>2026-03-30T16:53:45Z</time></trkpt><trkpt lat="42.42811197869577" lon="-8.075433027943173"><ele>381.1666666666667</ele><time>2026-03-30T16:53:47Z</time></trkpt><trkpt lat="42.428083371038454" lon="-8.075262861162445"><ele>381.3333333333333</ele><time>2026-03-30T16:53:49Z</time></trkpt><trkpt lat="42.428073186424996" lon="-8.07517069910081"><ele>381.5</ele><time>2026-03-30T16:53:50Z</time></trkpt><trkpt lat="42.428061828733505" lon="-8.07508193288293"><ele>381.66666666666663</ele><time>2026-03-30T16:53:51Z</time></trkpt><trkpt lat="42.42804861687456" lon="-8.07498825188164"><ele>381.8333333333333</ele><time>2026-03-30T16:53:52Z</time></trkpt><trkpt lat="42.42803224442143" lon="-8.074903133445172"><ele>382.0</ele><time>2026-03-30T16:53:53.999Z</time></trkpt><trkpt lat="42.428013272232604" lon="-8.07479161945749"><ele>382.0</ele><time>2026-03-30T16:53:56.999Z</time></trkpt><trkpt lat="42.4279878717525" lon="-8.074682584275415"><ele>382.0</ele><time>2026-03-30T16:53:57.999Z</time></trkpt><trkpt lat="42.427969087995656" lon="-8.074571438110896"><ele>382.0</ele><time>2026-03-30T16:53:58.999Z</time></trkpt><trkpt lat="42.427953977812564" lon="-8.074430984535553"><ele>382.0</ele><time>2026-03-30T16:53:59.999Z</time></trkpt><trkpt lat="42.42795619816889" lon="-8.074287469333111"><ele>382.0</ele><time>2026-03-30T16:54:00.999Z</time></trkpt><trkpt lat="42.427971745658404" lon="-8.074158574237236"><ele>381.8333333333333</ele><time>2026-03-30T16:54:01.999Z</time></trkpt><trkpt lat="42.42799996198148" lon="-8.074056707266987"><ele>381.66666666666663</ele><time>2026-03-30T16:54:02.999Z</time></trkpt><trkpt lat="42.42803701383546" lon="-8.073953738810456"><ele>381.5</ele><time>2026-03-30T16:54:03.999Z</time></trkpt><trkpt lat="42.42807265225604" lon="-8.07384844287964"><ele>381.3333333333333</ele><time>2026-03-30T16:54:04.999Z</time></trkpt><trkpt lat="42.428117918884126" lon="-8.073736229635786"><ele>381.1666666666667</ele><time>2026-03-30T16:54:05.999Z</time></trkpt><trkpt lat="42.42817210630094" lon="-8.073621267714755"><ele>381.0</ele><time>2026-03-30T16:54:06.999Z</time></trkpt><trkpt lat="42.42822004320766" lon="-8.073515905400939"><ele>381.0</ele><time>2026-03-30T16:54:07.999Z</time></trkpt><trkpt lat="42.428269004782436" lon="-8.073406322705017"><ele>381.0</ele><time>2026-03-30T16:54:08.999Z</time></trkpt><trkpt lat="42.42832203887997" lon="-8.073305675760114"><ele>381.0</ele><time>2026-03-30T16:54:09.999Z</time></trkpt><trkpt lat="42.42836258045989" lon="-8.07321147509026"><ele>381.0</ele><time>2026-03-30T16:54:10.999Z</time></trkpt><trkpt lat="42.428417309623484" lon="-8.073116393977035"><ele>381.0</ele><time>2026-03-30T16:54:11.999Z</time></trkpt><trkpt lat="42.42845788405256" lon="-8.073021559025152"><ele>381.0</ele><time>2026-03-30T16:54:12.999Z</time></trkpt><trkpt lat="42.42850496506185" lon="-8.072920477548402"><ele>380.8</ele><time>2026-03-30T16:54:13.999Z</time></trkpt><trkpt lat="42.428544255042695" lon="-8.072828596692256"><ele>380.6</ele><time>2026-03-30T16:54:14.999Z</time></trkpt><trkpt lat="42.42858416628827" lon="-8.07275327172674"><ele>380.4</ele><time>2026-03-30T16:54:15.999Z</time></trkpt><trkpt lat="42.428655917415966" lon="-8.072621721571487"><ele>380.2</ele><time>2026-03-30T16:54:17.999Z</time></trkpt><trkpt lat="42.42873435638913" lon="-8.072502341952093"><ele>380.0</ele><time>2026-03-30T16:54:19.999Z</time></trkpt><trkpt lat="42.428789907191565" lon="-8.072416203723717"><ele>381.5</ele><time>2026-03-30T16:54:21.999Z</time></trkpt><trkpt lat="42.428878916136775" lon="-8.072268519869288"><ele>383.0</ele><time>2026-03-30T16:54:25.999Z</time></trkpt><trkpt lat="42.42895589686418" lon="-8.07218007836924"><ele>384.5</ele><time>2026-03-30T16:54:26.999Z</time></trkpt><trkpt lat="42.42905913295331" lon="-8.072121273065848"><ele>386.0</ele><time>2026-03-30T16:54:27.999Z</time></trkpt><trkpt lat="42.42916001722391" lon="-8.072111589756538"><ele>386.0</ele><time>2026-03-30T16:54:28.999Z</time></trkpt><trkpt lat="42.429234660251986" lon="-8.07212816526022"><ele>386.0</ele><time>2026-03-30T16:54:29.999Z</time></trkpt><trkpt lat="42.429297827756024" lon="-8.072113086625398"><ele>386.0</ele><time>2026-03-30T16:54:33.999Z</time></trkpt><trkpt lat="42.42925062901492" lon="-8.071923975778226"><ele>386.0</ele><time>2026-03-30T16:54:37.999Z</time></trkpt><trkpt lat="42.42921181230024" lon="-8.071837568504296"><ele>386.0</ele><time>2026-03-30T16:54:38.999Z</time></trkpt><trkpt lat="42.42916119140177" lon="-8.071699732385088"><ele>386.00000000000006</ele><time>2026-03-30T16:54:40.999Z</time></trkpt><trkpt lat="42.42913083907176" lon="-8.071617737819073"><ele>386.0</ele><time>2026-03-30T16:54:41.999Z</time></trkpt><trkpt lat="42.429093026463605" lon="-8.071525886437918"><ele>386.0</ele><time>2026-03-30T16:54:42.999Z</time></trkpt><trkpt lat="42.429053231679475" lon="-8.07143038257753"><ele>386.0</ele><time>2026-03-30T16:54:43.999Z</time></trkpt><trkpt lat="42.429014455788646" lon="-8.071332069277274"><ele>386.0</ele><time>2026-03-30T16:54:44.999Z</time></trkpt><trkpt lat="42.42897856314762" lon="-8.071244685521824"><ele>386.00000000000006</ele><time>2026-03-30T16:54:45.999Z</time></trkpt><trkpt lat="42.42894050742685" lon="-8.071174577710273"><ele>386.0</ele><time>2026-03-30T16:54:46.999Z</time></trkpt><trkpt lat="42.42890860553224" lon="-8.071059951177697"><ele>385.6</ele><time>2026-03-30T16:54:48.999Z</time></trkpt><trkpt lat="42.42899748498905" lon="-8.070903363840788"><ele>385.20000000000005</ele><time>2026-03-30T16:54:49.999Z</time></trkpt><trkpt lat="42.42903367254465" lon="-8.07074717388921"><ele>384.79999999999995</ele><time>2026-03-30T16:54:51.999Z</time></trkpt><trkpt lat="42.42905103098118" lon="-8.070637427194834"><ele>384.4</ele><time>2026-03-30T16:54:52.999Z</time></trkpt><trkpt lat="42.42906561976118" lon="-8.070543026914985"><ele>384.0</ele><time>2026-03-30T16:54:53.999Z</time></trkpt><trkpt lat="42.42905793720177" lon="-8.070434839338422"><ele>384.0</ele><time>2026-03-30T16:54:55.999Z</time></trkpt><trkpt lat="42.42908282822234" lon="-8.070353575385882"><ele>384.0</ele><time>2026-03-30T16:54:57.999Z</time></trkpt><trkpt lat="42.42908391897201" lon="-8.070212669854977"><ele>384.0</ele><time>2026-03-30T16:54:59.999Z</time></trkpt><trkpt lat="42.42923735254278" lon="-8.070175765954714"><ele>384.0</ele><time>2026-03-30T16:55:02.999Z</time></trkpt><trkpt lat="42.429303213824056" lon="-8.070167335941662"><ele>384.0</ele><time>2026-03-30T16:55:03.999Z</time></trkpt><trkpt lat="42.42937319493785" lon="-8.070140671560377"><ele>384.0</ele><time>2026-03-30T16:55:04.999Z</time></trkpt><trkpt lat="42.429460955867015" lon="-8.070126002750673"><ele>384.0</ele><time>2026-03-30T16:55:06.999Z</time></trkpt><trkpt lat="42.429532938375274" lon="-8.070088103134525"><ele>384.0</ele><time>2026-03-30T16:55:10.999Z</time></trkpt><trkpt lat="42.429561942685645" lon="-8.069917262233373"><ele>384.0</ele><time>2026-03-30T16:55:12.999Z</time></trkpt><trkpt lat="42.429560645582306" lon="-8.069772793065772"><ele>384.0</ele><time>2026-03-30T16:55:13.999Z</time></trkpt><trkpt lat="42.42956749143371" lon="-8.069629763606084"><ele>383.79999999999995</ele><time>2026-03-30T16:55:14.999Z</time></trkpt><trkpt lat="42.429584656128704" lon="-8.069470003971727"><ele>383.59999999999997</ele><time>2026-03-30T16:55:15.999Z</time></trkpt><trkpt lat="42.42957596316209" lon="-8.069335052164716"><ele>383.4</ele><time>2026-03-30T16:55:16.998Z</time></trkpt><trkpt lat="42.42956782501656" lon="-8.069200722924984"><ele>383.2</ele><time>2026-03-30T16:55:17.998Z</time></trkpt><trkpt lat="42.429567926089135" lon="-8.069083387276086"><ele>383.0</ele><time>2026-03-30T16:55:18.998Z</time></trkpt><trkpt lat="42.42956887801479" lon="-8.068966201067063"><ele>383.0</ele><time>2026-03-30T16:55:19.998Z</time></trkpt><trkpt lat="42.42956865905209" lon="-8.0688376140184"><ele>383.0</ele><time>2026-03-30T16:55:20.998Z</time></trkpt><trkpt lat="42.429579400345624" lon="-8.068720337401805"><ele>383.0</ele><time>2026-03-30T16:55:21.998Z</time></trkpt><trkpt lat="42.42957817473073" lon="-8.06861425536779"><ele>383.0</ele><time>2026-03-30T16:55:23Z</time></trkpt><trkpt lat="42.429581099171486" lon="-8.068513112293942"><ele>383.0</ele><time>2026-03-30T16:55:24Z</time></trkpt><trkpt lat="42.42961829605982" lon="-8.0683907653554"><ele>383.0</ele><time>2026-03-30T16:55:26Z</time></trkpt><trkpt lat="42.42963831631743" lon="-8.068294738694956"><ele>383.0</ele><time>2026-03-30T16:55:29Z</time></trkpt></trkseg></trk></gpx>